[[{"header":{"parameterUnit":"m.s-1","parameterCategory":1,"la1":30.6,"la2":29.2853,"lo1":-89.7004,"lo2":-87.6739,"dx":0.0162,"dy":0.0183,"nx":112,"ny":82,"refTime":"2022-12-16T18:00:00:Z","depth":0,"parameterNumber":2,"parameterNumberName":"U-component_of_WINDS"},"data":[0.0,0.0,0.0,0.0,0.0,0.0,0.0,0.0,0.0,0.0,0.0,0.0,0.0,0.0,0.0,0.0,0.0,0.0,0.0,0.0,0.0,0.0,0.0,0.0,0.0,0.0,0.0,0.0,0.0,0.0,0.0,0.0,0.0,0.0,0.0,0.0,0.0,0.0,0.0,0.0,0.0,0.0,0.0,0.0,0.0,0.0,0.0,0.0,0.0,0.0,0.0,0.0,0.0,0.0,0.0,0.0,0.0,0.0,0.0,0.0,0.0,0.0,0.0,0.0,0.0,0.0,0.0,0.0,0.0,0.0,0.0,0.0,0.0,0.0,0.0,0.0,0.0,0.0,0.0,0.0,0.0,0.0,0.0,0.0,0.0,0.0,0.0,0.0,0.0,0.0,3.0132,3.0251,3.0835,3.1195,3.1195,3.1195,3.0925,3.0306,0.0,0.0,0.0,0.0,0.0,0.0,0.0,0.0,0.0,0.0,0.0,0.0,0.0,0.0,0.0,0.0,0.0,0.0,0.0,0.0,0.0,0.0,0.0,0.0,0.0,0.0,0.0,0.0,0.0,0.0,0.0,0.0,0.0,0.0,0.0,0.0,0.0,0.0,0.0,0.0,0.0,0.0,0.0,0.0,0.0,0.0,0.0,0.0,0.0,0.0,0.0,0.0,0.0,0.0,0.0,0.0,0.0,0.0,0.0,0.0,0.0,0.0,0.0,0.0,0.0,0.0,0.0,0.0,0.0,0.0,0.0,0.0,0.0,0.0,0.0,0.0,0.0,0.0,0.0,0.0,0.0,0.0,0.0,0.0,0.0,0.0,0.0,0.0,0.0,0.0,0.0,0.0,0.0,0.0,0.0,0.0,0.0,0.0,0.0,0.0,0.0,0.0,0.0,0.0,3.034,3.0975,3.1128,3.1195,3.1195,3.1195,3.1145,3.1043,0.0,0.0,0.0,0.0,0.0,0.0,0.0,0.0,0.0,0.0,0.0,0.0,0.0,0.0,0.0,0.0,0.0,0.0,0.0,0.0,0.0,0.0,0.0,0.0,0.0,0.0,0.0,0.0,0.0,0.0,0.0,0.0,0.0,0.0,0.0,0.0,0.0,0.0,0.0,0.0,0.0,0.0,0.0,0.0,0.0,0.0,0.0,0.0,0.0,0.0,0.0,0.0,0.0,0.0,0.0,0.0,0.0,0.0,0.0,0.0,0.0,0.0,0.0,0.0,0.0,0.0,0.0,0.0,0.0,0.0,0.0,0.0,0.0,0.0,0.0,0.0,0.0,0.0,0.0,0.0,0.0,0.0,0.0,0.0,0.0,0.0,0.0,0.0,0.0,0.0,0.0,0.0,0.0,0.0,0.0,0.0,0.0,0.0,0.0,0.0,0.0,0.0,0.0,3.0845,3.142,3.1759,3.2143,3.2391,3.2391,3.2029,3.1797,3.1797,3.0405,0.0,0.0,0.0,0.0,0.0,0.0,0.0,0.0,0.0,0.0,0.0,0.0,0.0,0.0,0.0,0.0,0.0,0.0,0.0,0.0,0.0,0.0,0.0,0.0,0.0,0.0,0.0,0.0,0.0,0.0,0.0,0.0,0.0,0.0,0.0,0.0,0.0,0.0,0.0,0.0,0.0,0.0,0.0,0.0,0.0,0.0,0.0,0.0,0.0,0.0,0.0,0.0,0.0,0.0,0.0,0.0,0.0,0.0,0.0,0.0,0.0,0.0,0.0,0.0,0.0,0.0,0.0,0.0,0.0,0.0,0.0,0.0,0.0,0.0,0.0,0.0,0.0,0.0,0.0,0.0,0.0,0.0,0.0,0.0,0.0,0.0,0.0,0.0,0.0,0.0,0.0,0.0,0.0,0.0,0.0,0.0,0.0,0.0,0.0,0.0,0.0,0.0,3.195,3.2361,3.2542,3.3068,3.3401,3.3401,3.2887,3.2491,3.231,3.1246,0.0,0.0,0.0,0.0,0.0,0.0,0.0,0.0,0.0,0.0,0.0,0.0,0.0,0.0,0.0,0.0,0.0,0.0,0.0,0.0,0.0,0.0,0.0,0.0,0.0,0.0,0.0,0.0,0.0,0.0,0.0,0.0,0.0,0.0,0.0,0.0,0.0,0.0,0.0,0.0,0.0,0.0,0.0,0.0,0.0,0.0,0.0,0.0,0.0,0.0,0.0,0.0,0.0,0.0,0.0,0.0,0.0,0.0,0.0,0.0,0.0,0.0,0.0,0.0,0.0,0.0,0.0,0.0,0.0,0.0,0.0,0.0,0.0,0.0,0.0,0.0,0.0,0.0,0.0,0.0,0.0,0.0,0.0,0.0,0.0,0.0,0.0,0.0,0.0,0.0,0.0,0.0,0.0,0.0,0.0,0.0,0.0,0.0,0.0,0.0,0.0,0.0,3.2276,3.2554,3.3254,3.3367,3.3401,3.3401,3.335,3.3039,3.2344,3.2204,0.0,0.0,0.0,0.0,0.0,0.0,0.0,0.0,0.0,0.0,0.0,0.0,0.0,0.0,0.0,0.0,0.0,0.0,0.0,0.0,0.0,0.0,0.0,0.0,0.0,0.0,0.0,0.0,0.0,0.0,0.0,0.0,0.0,0.0,0.0,0.0,0.0,0.0,0.0,0.0,0.0,0.0,0.0,0.0,0.0,0.0,0.0,0.0,0.0,0.0,0.0,0.0,0.0,0.0,0.0,0.0,0.0,0.0,0.0,0.0,0.0,0.0,0.0,0.0,0.0,0.0,0.0,0.0,0.0,0.0,0.0,0.0,0.0,0.0,0.0,0.0,0.0,0.0,0.0,0.0,0.0,0.0,0.0,0.0,0.0,0.0,0.0,0.0,0.0,0.0,0.0,0.0,0.0,0.0,0.0,0.0,0.0,0.0,0.0,0.0,0.0,0.0,3.31,3.3789,3.4066,3.4495,3.4777,3.4777,3.4348,3.3767,3.3039,0.0,0.0,0.0,0.0,0.0,0.0,0.0,0.0,0.0,0.0,0.0,0.0,0.0,0.0,0.0,0.0,0.0,0.0,0.0,0.0,0.0,0.0,0.0,0.0,0.0,0.0,0.0,0.0,0.0,0.0,0.0,0.0,0.0,0.0,0.0,0.0,0.0,0.0,0.0,0.0,0.0,0.0,0.0,0.0,0.0,0.0,0.0,0.0,0.0,0.0,0.0,0.0,0.0,0.0,0.0,0.0,0.0,0.0,0.0,0.0,0.0,0.0,0.0,0.0,0.0,0.0,0.0,0.0,0.0,0.0,0.0,0.0,0.0,0.0,0.0,0.0,0.0,0.0,0.0,0.0,0.0,0.0,0.0,0.0,0.0,0.0,0.0,0.0,0.0,0.0,0.0,0.0,0.0,0.0,0.0,0.0,0.0,0.0,0.0,0.0,0.0,0.0,3.2554,3.3738,3.4596,3.4822,3.5306,3.56,3.56,3.5137,3.4539,3.3795,0.0,0.0,0.0,0.0,0.0,0.0,0.0,0.0,0.0,0.0,0.0,0.0,0.0,0.0,0.0,0.0,0.0,0.0,0.0,0.0,0.0,0.0,0.0,0.0,0.0,0.0,0.0,0.0,0.0,0.0,0.0,0.0,0.0,0.0,0.0,0.0,0.0,0.0,0.0,0.0,0.0,0.0,0.0,0.0,0.0,0.0,0.0,0.0,0.0,0.0,0.0,0.0,0.0,0.0,0.0,0.0,0.0,0.0,0.0,0.0,0.0,0.0,0.0,0.0,0.0,0.0,0.0,0.0,0.0,0.0,0.0,0.0,0.0,0.0,0.0,0.0,0.0,0.0,0.0,0.0,0.0,0.0,0.0,0.0,0.0,0.0,0.0,0.0,0.0,0.0,0.0,0.0,0.0,0.0,0.0,0.0,0.0,0.0,0.0,0.0,0.0,0.0,3.3316,3.4066,3.4793,3.5521,3.56,3.56,3.56,3.56,3.5289,0.0,0.0,0.0,0.0,0.0,0.0,0.0,0.0,0.0,0.0,0.0,0.0,0.0,0.0,0.0,0.0,0.0,0.0,0.0,0.0,0.0,0.0,0.0,0.0,0.0,0.0,0.0,0.0,0.0,0.0,0.0,0.0,0.0,0.0,0.0,0.0,0.0,0.0,0.0,0.0,0.0,0.0,0.0,0.0,0.0,0.0,0.0,0.0,0.0,0.0,0.0,0.0,0.0,0.0,0.0,0.0,0.0,0.0,0.0,0.0,0.0,0.0,0.0,0.0,0.0,0.0,0.0,0.0,0.0,0.0,0.0,0.0,0.0,0.0,0.0,0.0,0.0,0.0,0.0,0.0,0.0,0.0,0.0,0.0,0.0,0.0,0.0,0.0,0.0,0.0,0.0,0.0,0.0,0.0,0.0,0.0,0.0,0.0,0.0,0.0,0.0,0.0,0.0,3.4083,3.4822,3.5352,3.5583,3.56,3.56,3.56,3.56,3.5289,3.4545,0.0,0.0,0.0,0.0,0.0,0.0,0.0,0.0,0.0,0.0,0.0,0.0,0.0,0.0,0.0,0.0,0.0,0.0,0.0,0.0,0.0,0.0,0.0,0.0,0.0,0.0,0.0,0.0,0.0,0.0,0.0,0.0,0.0,0.0,0.0,0.0,0.0,0.0,0.0,0.0,0.0,0.0,0.0,0.0,0.0,0.0,0.0,0.0,0.0,0.0,0.0,0.0,0.0,0.0,0.0,0.0,0.0,0.0,0.0,0.0,0.0,0.0,0.0,0.0,0.0,0.0,0.0,0.0,0.0,0.0,0.0,0.0,0.0,0.0,0.0,0.0,0.0,0.0,0.0,0.0,0.0,0.0,0.0,0.0,0.0,0.0,0.0,0.0,0.0,0.0,0.0,0.0,0.0,0.0,0.0,0.0,0.0,0.0,0.0,0.0,0.0,0.0,3.4443,3.5137,3.56,3.56,3.56,3.56,3.56,3.56,3.5402,3.4974,0.0,0.0,0.0,0.0,0.0,0.0,0.0,0.0,0.0,0.0,0.0,0.0,0.0,0.0,0.0,0.0,0.0,0.0,0.0,0.0,0.0,0.0,0.0,0.0,0.0,0.0,0.0,0.0,0.0,0.0,0.0,0.0,0.0,0.0,0.0,0.0,0.0,0.0,0.0,0.0,0.0,0.0,0.0,0.0,0.0,0.0,0.0,0.0,0.0,0.0,0.0,0.0,0.0,0.0,0.0,0.0,0.0,0.0,0.0,0.0,0.0,0.0,0.0,0.0,0.0,0.0,0.0,0.0,0.0,0.0,0.0,0.0,0.0,0.0,0.0,0.0,0.0,0.0,0.0,0.0,0.0,0.0,0.0,0.0,0.0,0.0,0.0,0.0,0.0,0.0,0.0,0.0,0.0,0.0,0.0,0.0,0.0,0.0,0.0,0.0,0.0,0.0,3.4703,3.5295,3.574,3.5808,3.5808,3.5808,3.5808,3.5808,3.5774,3.5723,0.0,0.0,0.0,0.0,0.0,0.0,0.0,0.0,0.0,0.0,0.0,0.0,0.0,0.0,0.0,0.0,0.0,0.0,0.0,0.0,0.0,0.0,0.0,0.0,0.0,0.0,0.0,0.0,0.0,0.0,0.0,0.0,0.0,0.0,0.0,0.0,0.0,0.0,0.0,0.0,0.0,0.0,0.0,0.0,0.0,0.0,0.0,0.0,0.0,0.0,0.0,0.0,0.0,0.0,0.0,0.0,0.0,0.0,0.0,0.0,3.3903,3.3401,0.0,0.0,0.0,0.0,0.0,0.0,0.0,0.0,0.0,0.0,0.0,0.0,0.0,0.0,0.0,0.0,0.0,0.0,0.0,0.0,0.0,0.0,0.0,0.0,0.0,0.0,0.0,0.0,0.0,0.0,0.0,0.0,0.0,0.0,0.0,0.0,0.0,0.0,0.0,0.0,3.6146,3.6451,3.6761,3.7358,3.7403,3.7403,3.7403,3.7403,3.7155,3.6575,3.64,0.0,0.0,0.0,0.0,0.0,0.0,0.0,0.0,0.0,0.0,0.0,0.0,0.0,0.0,0.0,0.0,0.0,0.0,0.0,0.0,0.0,0.0,0.0,0.0,0.0,0.0,0.0,0.0,0.0,0.0,0.0,0.0,0.0,0.0,0.0,0.0,0.0,0.0,0.0,0.0,0.0,0.0,0.0,0.0,0.0,0.0,0.0,0.0,0.0,0.0,0.0,0.0,0.0,0.0,0.0,0.0,0.0,0.0,0.0,3.4794,3.4461,0.0,0.0,0.0,0.0,0.0,0.0,0.0,0.0,0.0,0.0,0.0,0.0,0.0,0.0,0.0,0.0,0.0,0.0,0.0,0.0,0.0,0.0,0.0,0.0,0.0,0.0,0.0,0.0,0.0,0.0,0.0,0.0,0.0,0.0,0.0,0.0,0.0,0.0,0.0,0.0,3.7184,3.7336,3.7488,3.7866,3.7899,3.7899,3.7899,3.7899,3.773,3.7353,3.7336,0.0,0.0,0.0,0.0,0.0,0.0,0.0,0.0,0.0,0.0,0.0,0.0,0.0,0.0,0.0,0.0,0.0,0.0,0.0,0.0,0.0,0.0,0.0,0.0,0.0,0.0,0.0,0.0,0.0,0.0,0.0,0.0,0.0,0.0,0.0,0.0,0.0,0.0,0.0,0.0,0.0,0.0,0.0,0.0,0.0,0.0,0.0,0.0,0.0,0.0,0.0,0.0,0.0,3.569,3.5819,3.5808,3.5806,3.5869,3.6,3.5731,3.5528,3.5441,3.5701,0.0,0.0,0.0,0.0,0.0,0.0,0.0,0.0,0.0,0.0,0.0,0.0,0.0,0.0,0.0,0.0,0.0,0.0,0.0,0.0,0.0,0.0,3.5441,3.5563,3.5603,3.5303,3.4213,0.0,0.0,0.0,0.0,0.0,0.0,0.0,0.0,0.0,0.0,0.0,3.8176,3.8288,3.8384,3.8644,3.8677,3.8677,3.8677,3.8677,3.8559,3.8299,3.8282,3.7905,0.0,0.0,0.0,0.0,0.0,0.0,0.0,0.0,0.0,0.0,0.0,0.0,0.0,0.0,0.0,0.0,0.0,0.0,0.0,0.0,0.0,0.0,0.0,0.0,0.0,0.0,0.0,0.0,0.0,0.0,0.0,0.0,2.8591,2.9346,0.0,0.0,0.0,0.0,0.0,0.0,0.0,0.0,0.0,0.0,0.0,0.0,0.0,3.3677,3.3868,3.4437,3.4723,3.4757,3.6032,3.6644,3.6643,3.658,3.6932,3.7524,3.6176,0.0,3.4827,3.6114,0.0,0.0,0.0,0.0,0.0,0.0,0.0,0.0,0.0,0.0,0.0,0.0,0.0,0.0,0.0,0.0,0.0,0.0,0.0,0.0,0.0,0.0,3.4806,3.5451,3.5593,3.5724,0.0,3.6316,3.6547,3.7172,3.7308,0.0,0.0,0.0,0.0,0.0,0.0,0.0,3.9633,3.9817,4.0295,4.1576,4.1718,4.1718,4.1718,4.1718,4.117,3.9882,3.9815,3.9196,3.7815,3.7747,0.0,0.0,0.0,0.0,0.0,0.0,0.0,0.0,0.0,0.0,0.0,0.0,0.0,0.0,0.0,0.0,0.0,0.0,0.0,0.0,0.0,0.0,0.0,0.0,0.0,0.0,0.0,0.0,0.0,2.8797,2.9395,3.0034,3.0109,3.025,0.0,0.0,0.0,0.0,0.0,0.0,0.0,0.0,0.0,3.359,3.3558,3.3734,3.4165,3.4823,3.5161,3.5177,3.5826,3.6124,3.6115,3.6106,3.626,3.6568,3.5889,3.5411,3.5193,3.6294,3.6121,3.5264,0.0,0.0,0.0,0.0,3.5126,3.4496,3.4496,3.4066,3.3507,3.3507,0.0,0.0,0.0,0.0,0.0,0.0,0.0,3.5136,3.5466,3.5862,3.6267,3.6585,3.668,3.7009,3.8237,3.8527,3.8414,0.0,3.7899,3.7899,3.7899,0.0,0.0,0.0,0.0,4.0138,4.12,4.1346,4.1576,4.2225,4.2293,4.2293,4.2293,4.2293,4.2022,4.1383,4.1339,4.0673,3.9206,3.9145,3.8375,0.0,0.0,0.0,0.0,0.0,0.0,0.0,0.0,0.0,0.0,0.0,0.0,0.0,0.0,0.0,0.0,0.0,0.0,0.0,0.0,0.0,0.0,0.0,0.0,0.0,0.0,0.0,0.0,2.9828,3.006,3.0688,3.0761,3.0944,0.0,0.0,0.0,0.0,0.0,0.0,3.3576,3.3098,3.3053,3.3554,3.3524,3.3763,3.4308,3.4988,3.5325,3.5328,3.5867,3.6149,3.6148,3.6298,3.6479,3.665,3.6241,3.615,3.6329,3.6761,3.6506,3.5926,3.6834,3.6724,3.606,3.606,3.5705,3.524,3.524,3.4918,3.451,3.451,3.4382,3.43,3.4442,0.0,0.0,0.0,0.0,3.5983,3.5983,3.6724,3.7465,3.7465,3.7465,3.7857,3.9269,3.9565,3.9453,0.0,3.9039,3.9039,3.9039,0.0,0.0,4.058,4.1126,4.1813,4.2767,4.2892,4.302,4.3409,4.3443,4.3443,4.3443,4.3443,4.3291,4.2909,4.2892,4.2225,4.0717,4.0439,3.944,3.7554,0.0,0.0,0.0,0.0,0.0,0.0,0.0,0.0,0.0,0.0,0.0,0.0,0.0,0.0,0.0,0.0,0.0,0.0,0.0,0.0,0.0,0.0,0.0,0.0,0.0,0.0,0.0,0.0,0.0,3.1378,3.1452,0.0,0.0,0.0,0.0,3.245,3.2547,3.2829,3.3472,3.3472,3.3472,3.3501,3.3501,3.3517,3.3545,3.4222,3.4571,3.4584,3.662,3.7589,3.7616,3.8196,3.8866,3.9496,3.7962,3.7742,3.8404,3.7863,3.717,3.6588,3.7968,3.8018,3.732,3.732,3.7295,3.7261,3.7261,3.7235,3.7201,3.7201,3.6821,3.6455,3.703,3.6806,0.0,0.0,3.7242,3.7306,3.7306,3.7346,3.741,3.741,3.741,3.7647,3.8483,3.867,3.9336,0.0,4.208,4.208,4.208,0.0,4.2147,4.2175,4.2215,4.279,4.4286,4.4472,4.5031,4.6421,4.6573,4.6573,4.6573,4.6573,4.5988,4.4574,4.4472,4.3789,4.2259,4.1387,4.0562,3.9747,3.8323,0.0,0.0,0.0,0.0,0.0,0.0,0.0,0.0,0.0,0.0,0.0,0.0,0.0,0.0,0.0,0.0,0.0,0.0,0.0,0.0,0.0,0.0,0.0,0.0,0.0,0.0,0.0,0.0,3.1466,3.1887,0.0,3.2146,3.2524,3.2896,3.3127,3.3133,3.3248,3.3498,3.3498,3.3498,3.3498,3.4341,3.4791,3.4787,3.5829,3.6371,3.6374,3.7137,3.7514,3.7516,3.7736,3.7991,3.8225,3.7653,3.7815,3.8492,3.8703,3.8127,3.7175,3.8191,3.8108,3.7396,3.7396,3.7396,3.7396,3.7396,3.7396,3.7396,3.7396,3.7246,3.712,3.7336,3.7554,3.7772,3.7982,3.8661,3.9334,3.9334,3.9658,3.9972,3.9972,3.9972,4.0212,4.1065,4.1241,4.1665,4.3111,4.2777,4.2361,4.275,4.3745,4.4485,4.4485,4.4891,4.5389,4.5954,4.6022,4.6218,4.6742,4.6793,4.6793,4.6793,4.6793,4.6573,4.6056,4.6022,4.5558,4.4536,4.32,4.1895,4.0631,3.9067,3.7567,0.0,0.0,0.0,0.0,0.0,0.0,0.0,0.0,0.0,0.0,0.0,0.0,0.0,0.0,0.0,0.0,0.0,0.0,0.0,0.0,0.0,0.0,0.0,0.0,0.0,3.1688,3.1843,3.1843,3.2428,3.2843,3.2834,3.3231,3.3585,3.3812,3.4051,3.4263,3.4502,3.471,3.4824,3.4824,3.5674,3.614,3.6138,3.6985,3.7394,3.7394,3.7622,3.7849,3.8081,3.8311,3.8536,3.8756,3.8757,3.9003,3.9457,3.9888,3.9559,3.8798,3.9343,3.9221,3.8751,3.8751,3.8751,3.8751,3.8751,3.8751,3.8751,3.8751,3.8751,3.8751,3.8751,3.9059,3.9412,3.9412,4.0047,4.0735,4.0735,4.1074,4.1403,4.1403,4.1403,4.1558,4.2135,4.2258,4.2501,4.3308,4.3371,4.3408,4.3806,4.5104,4.6075,4.6075,4.6488,4.6894,4.7141,4.7175,4.7276,4.752,4.753,4.753,4.753,4.753,4.7436,4.7192,4.7175,4.6694,4.563,4.4286,4.2943,4.16,4.0028,3.8525,3.7144,0.0,0.0,0.0,0.0,0.0,0.0,0.0,0.0,0.0,0.0,0.0,0.0,0.0,0.0,0.0,0.0,0.0,0.0,0.0,0.0,0.0,0.0,0.0,3.1614,3.2116,3.2525,3.2526,3.3123,3.354,3.3561,3.3581,3.3872,3.4548,3.5187,3.5836,3.6486,3.7086,3.7406,3.7406,3.7414,3.7432,3.746,3.7475,3.7498,3.7531,3.8179,3.8822,3.9485,4.0143,4.0785,4.1404,4.1394,4.14,4.1403,4.1418,4.1433,4.1433,4.1403,4.1403,4.1403,4.1403,4.1403,4.1403,4.1403,4.1403,4.1403,4.1403,4.1403,4.1403,4.1403,4.1403,4.1433,4.1433,4.1448,4.1463,4.1463,4.1463,4.1463,4.1463,4.1463,4.1463,4.1463,4.1463,4.1643,4.2296,4.4041,4.5378,4.5378,4.617,4.6787,4.6787,4.6787,0.0,4.7761,4.7877,4.8153,4.8871,4.8986,4.8986,4.8963,4.8986,4.8666,4.7896,4.7868,4.7146,4.549,4.4575,4.3647,4.2677,4.1182,3.9783,3.849,0.0,0.0,0.0,0.0,0.0,0.0,0.0,0.0,0.0,0.0,0.0,0.0,0.0,0.0,0.0,0.0,0.0,0.0,0.0,0.0,0.0,3.2376,3.2443,3.225,3.28,3.3221,3.323,3.3817,3.4428,3.4904,3.5396,3.593,3.6559,3.677,3.6952,3.7145,3.7313,3.7393,3.7393,3.7877,3.837,3.8853,3.9334,3.9818,4.0302,4.0495,4.0679,4.0851,4.1036,4.1225,4.1406,4.1399,4.1397,4.1433,4.1922,4.2126,4.2081,4.1583,4.1403,4.1403,4.1403,4.1403,4.1403,4.1403,4.1403,4.1403,4.1403,4.1403,4.1403,4.1403,4.1742,4.2126,4.2126,4.2441,4.2771,4.2771,4.2771,4.2771,4.2771,4.2771,4.2771,4.2771,4.2771,4.2831,4.302,4.4083,4.4955,4.4955,4.5735,4.6358,4.6358,4.6358,4.6448,4.6643,4.7251,4.7767,4.7957,4.8592,4.8719,4.8039,4.86,4.8334,4.6776,4.7317,4.7177,4.6027,4.4621,4.3211,4.1786,4.134,4.0945,0.0,0.0,0.0,0.0,0.0,0.0,0.0,0.0,0.0,0.0,0.0,0.0,0.0,0.0,0.0,0.0,0.0,0.0,0.0,0.0,0.0,0.0,3.3148,3.3441,3.3721,3.3849,3.4026,3.4293,3.4932,3.5597,3.6232,3.6655,3.7016,3.737,3.7654,3.7823,3.7826,3.8354,3.8667,3.8667,3.931,3.9842,4.0221,4.0619,4.1003,4.1402,4.1402,4.1543,4.1823,4.1818,4.1952,4.2202,4.2204,4.2203,4.2237,4.2621,4.2785,4.2741,0.0,0.0,0.0,0.0,4.2207,4.2207,4.2207,4.2207,4.2207,4.2207,4.2207,4.2207,4.2207,4.2462,4.2785,4.2785,4.3035,4.33,4.33,4.33,4.33,4.33,4.33,4.33,4.33,4.33,4.33,4.33,4.3998,0.0,4.4585,4.5485,4.62,4.62,4.62,4.62,4.62,4.6686,4.7011,4.7011,4.7506,4.7605,4.7054,4.7506,0.0,0.0,0.0,4.6591,4.5652,4.431,0.0,0.0,0.0,4.2067,4.1817,4.1817,0.0,0.0,3.9314,3.9448,0.0,0.0,0.0,0.0,0.0,0.0,0.0,0.0,0.0,0.0,0.0,0.0,0.0,0.0,0.0,0.0,3.4077,3.4724,3.5496,3.5162,3.505,3.565,3.6232,3.6841,3.7444,3.7514,3.7579,3.773,3.8283,3.8667,3.8724,3.9866,0.0,0.0,0.0,4.1438,4.1511,4.1515,4.1547,4.1621,4.1621,4.1927,4.25,4.25,4.2783,4.33,4.33,4.33,4.33,4.33,4.33,4.33,4.33,4.33,4.33,4.33,4.33,4.33,4.33,0.0,0.0,4.33,4.33,4.33,4.33,4.33,4.33,4.33,4.3359,4.3419,4.3419,4.3479,4.3524,4.3524,4.3524,4.3524,4.3524,4.3524,4.3524,4.3524,4.4012,4.4411,4.4411,4.5347,4.6101,4.6101,4.6101,4.6101,4.6101,4.6191,4.6262,4.6262,4.6351,0.0,4.6271,4.6351,4.6324,4.611,4.6101,4.5718,4.4893,4.3922,4.3419,4.3419,4.3344,4.3035,4.2506,4.2506,4.2206,4.1603,4.1538,4.1508,0.0,0.0,0.0,0.0,0.0,0.0,0.0,0.0,0.0,0.0,0.0,0.0,0.0,0.0,0.0,3.3808,3.4191,3.4602,3.61,3.6605,3.6893,3.7019,3.7152,3.7488,3.8133,3.821,3.8667,3.9736,3.9938,4.0245,4.0794,4.1079,4.1216,4.1214,4.1322,4.166,4.2197,4.2214,4.2451,4.2932,4.2932,0.0,4.314,4.314,4.319,4.33,4.33,4.33,4.33,4.33,4.33,4.33,4.33,4.33,4.33,4.33,4.33,4.33,4.33,4.33,4.33,4.33,4.33,4.33,4.33,4.33,0.0,4.33,4.3698,4.4102,4.4102,4.4516,4.4915,4.4915,4.4915,4.4915,4.4915,4.4915,4.4915,4.4915,4.502,4.511,4.511,4.5298,4.5465,4.5465,4.5465,4.5465,4.5465,4.6145,4.6609,4.6609,4.728,4.7429,4.6676,4.7298,4.7098,4.5576,4.5465,4.539,4.5217,4.4508,4.4102,4.4102,4.3569,4.324,4.313,4.313,4.3055,4.2921,4.2436,4.2206,0.0,0.0,0.0,0.0,0.0,0.0,0.0,0.0,0.0,0.0,0.0,2.8999,3.3224,0.0,3.1438,3.4926,3.5193,3.5548,3.7221,3.7715,3.7905,3.7906,3.7905,3.8307,3.9301,3.9406,3.9818,4.0828,4.0894,4.1053,4.139,4.1717,4.1905,4.1907,4.2194,4.25,4.2857,4.2857,4.3006,4.33,4.33,4.33,4.33,4.33,4.33,4.33,4.33,4.33,4.3329,4.3658,4.3803,4.3823,4.4162,4.3893,4.33,4.33,4.33,4.3359,4.3673,4.3803,4.3863,4.4202,4.4307,4.4307,4.4307,4.4307,4.4307,4.4307,4.4531,4.4811,4.4811,4.505,4.53,4.53,4.53,4.53,4.53,4.53,4.53,4.53,4.5574,4.5802,4.5802,4.6082,4.6067,4.5394,4.53,4.53,4.53,4.5712,4.6006,4.6006,4.6411,4.651,4.6041,4.6421,4.6307,4.5362,4.53,4.53,4.53,4.4975,4.4811,4.4811,4.4471,4.4307,4.4307,4.4307,4.4307,4.4292,4.3983,4.3499,0.0,0.0,0.0,0.0,0.0,0.0,0.0,2.9476,2.9184,3.2062,3.0713,3.0213,3.4164,3.3055,3.2673,3.6121,3.6182,3.6459,3.8338,3.8715,3.8843,3.8972,3.8867,3.9253,4.048,4.0582,4.0859,4.1543,4.1593,4.1646,4.1754,4.2278,4.2575,4.2575,4.3041,4.33,4.33,4.33,4.33,4.33,4.33,4.33,4.33,4.33,4.33,4.3314,4.3444,4.3573,4.3728,4.4271,4.4501,4.4546,4.5095,4.4636,4.3698,4.3698,4.3698,4.3773,4.4322,4.4501,4.4576,4.5125,4.53,4.53,4.53,4.53,4.53,4.53,4.5394,4.5484,4.5484,4.5589,4.5678,4.5678,4.5678,4.5678,4.5678,4.5678,4.5678,4.5678,4.6221,4.67,4.67,4.7238,4.7234,4.5888,4.5678,4.5678,4.5678,4.5678,4.5678,4.5678,4.5678,4.5678,4.5678,4.5678,4.5678,4.5678,4.5678,4.5678,4.5678,4.5559,4.5484,4.5484,4.5364,4.53,4.53,4.53,4.53,4.53,4.53,4.471,3.1503,3.0974,3.0733,3.1952,3.036,2.9306,0.0,3.1158,3.0276,3.3579,3.3187,3.308,3.5788,3.4372,3.3792,3.6813,3.6265,3.6343,3.8927,3.9793,4.0399,4.0997,4.0544,4.0471,4.1224,4.1285,4.1573,4.2243,4.2288,4.2525,4.3066,4.3165,4.319,4.319,4.3265,4.33,4.33,4.33,4.33,4.33,4.33,4.33,4.33,4.33,4.33,4.3334,4.3936,4.4526,4.5084,4.5167,4.5185,4.52,4.5274,4.5214,4.508,4.508,4.508,4.5095,4.5155,4.5185,4.52,4.5285,4.53,4.53,4.53,4.53,4.53,4.53,4.5728,4.6196,4.6196,4.6625,4.7085,4.7085,4.7085,4.7085,4.7085,4.7085,4.7085,4.7085,4.7623,4.8083,4.8083,4.8633,4.8618,4.7279,4.7085,4.7085,4.7085,4.7085,4.7085,4.7085,4.7085,4.7085,4.7085,4.7085,4.7085,4.7085,4.7085,4.7085,4.7085,4.6505,4.6196,4.6196,4.5603,4.53,4.53,4.53,4.53,4.53,4.53,4.5214,3.1976,3.2116,3.2317,3.2926,3.2124,3.1683,3.3637,3.2646,3.212,3.5059,3.4381,3.4034,3.6554,3.5585,3.5183,3.7585,3.7645,3.7994,3.9736,4.0567,4.1235,4.19,4.1728,4.167,4.1949,4.1986,4.2243,4.2882,4.2917,4.3031,4.329,4.33,4.33,4.33,4.33,4.33,4.33,4.33,4.33,4.33,4.33,4.3496,4.3887,4.3887,4.4085,4.4487,4.4753,4.5042,4.5324,4.5726,4.5877,4.5922,4.6311,4.6456,4.6367,4.5599,4.53,4.536,4.5743,4.5877,4.5952,4.6337,4.6456,4.6456,4.6456,4.6456,4.6456,4.6456,4.6681,4.6869,4.6869,4.7384,4.7878,4.7878,4.8173,4.8457,4.8457,4.8457,4.8457,4.8457,4.8693,4.8873,4.8873,4.9108,4.9108,4.8558,4.8457,4.8457,4.8457,4.8457,4.8457,4.8457,4.8457,4.8457,4.8457,4.8457,4.8457,4.8457,4.8457,4.8457,4.8457,4.8188,4.8053,4.8053,4.778,4.763,4.763,4.763,4.763,4.763,4.763,4.763,3.2594,3.3134,3.3547,3.3728,3.3437,3.3437,3.4746,3.4128,3.3926,3.6264,3.5776,3.5487,3.7345,3.6789,3.6704,3.8637,3.8866,3.9306,4.0751,4.1363,4.1927,4.2575,4.2649,4.2649,4.2649,4.2649,4.2833,4.3265,4.33,4.33,4.33,4.33,4.33,4.33,4.33,4.33,4.33,4.3474,4.3573,4.3588,4.3762,4.4109,4.4584,4.4579,4.4941,4.5573,4.5586,4.5678,4.5888,4.6386,4.657,4.6614,4.7104,4.7414,4.7459,4.6497,4.6007,4.5918,4.6416,4.657,4.667,4.7134,4.7429,4.7578,4.7578,4.7698,4.7848,4.7848,4.7848,4.7848,4.7848,4.8203,4.8588,4.8588,4.8947,4.9303,4.9303,4.9303,4.9303,4.9303,4.9426,4.955,4.955,4.9699,4.9819,4.9819,4.9819,4.9696,4.9348,4.9303,4.9303,4.9303,4.9303,4.9303,4.9303,4.9303,4.9303,4.9303,4.9303,4.9303,4.9303,4.9303,4.9303,4.9303,4.9303,4.9303,4.9303,4.9303,4.9303,4.9303,4.9303,4.9303,3.33,3.3472,3.3656,3.4307,3.3783,3.3695,3.5932,3.5655,3.5396,3.7034,3.7839,3.8274,3.8363,3.8018,3.8294,4.0052,3.9472,3.9624,4.2016,4.2357,4.2599,4.319,4.3265,4.3265,4.3265,4.3265,4.3275,4.33,4.33,4.33,4.33,4.33,4.33,4.33,4.33,4.33,4.33,4.3932,4.4267,4.4288,4.4936,4.5249,4.5268,4.5268,4.5647,4.6275,4.626,4.6629,4.7249,4.7253,4.7268,4.7268,4.7294,4.7698,4.8263,4.8218,4.7799,4.7249,4.7253,4.7268,4.7268,4.7294,4.7743,4.8263,4.8263,4.8723,4.9243,4.9243,4.9243,4.9243,4.9243,4.9258,4.9273,4.9273,4.9288,4.9303,4.9303,4.9303,4.9303,4.9303,4.9778,5.0177,5.0177,5.0712,5.1131,5.1131,5.1131,5.0705,4.9468,4.9303,4.9303,4.9303,4.9303,4.9303,4.9303,4.9303,4.9303,4.9303,4.9303,4.9303,4.9303,4.9303,4.9303,4.9303,4.9303,4.9303,4.9303,4.9303,4.9303,4.9303,4.9303,4.9303,3.4104,3.4494,3.4878,3.511,3.5264,3.555,3.6333,3.6552,3.6862,3.786,3.8234,3.8667,3.9559,3.9616,3.9866,4.09,4.1134,4.1472,4.2298,4.2733,4.3066,4.3275,4.33,4.33,4.33,4.33,4.33,4.33,4.33,4.33,4.33,4.33,4.33,4.33,4.3733,4.3957,4.3957,4.4633,4.4961,4.4965,4.5635,4.5958,4.5984,4.6419,4.674,4.6969,4.6969,4.7343,4.7963,4.7963,4.8233,4.8633,4.8633,4.8768,4.8962,4.8962,4.8813,4.8633,4.8633,4.8633,4.8633,4.8633,4.8783,4.8962,4.8962,4.9112,4.9303,4.9303,4.9303,4.9303,4.9303,4.9595,4.9901,4.9901,5.023,5.0556,5.0556,5.0556,5.0556,5.0556,5.0724,5.0862,5.0862,5.1041,5.1191,5.1191,5.1191,5.1053,5.0616,5.0556,5.0556,5.0556,5.0556,5.0556,5.0556,5.0556,5.0556,5.0556,5.0556,5.0556,5.0556,5.0556,5.0556,5.0556,5.0556,5.0556,5.0556,5.0556,5.0556,5.0556,5.0556,5.0556,3.4787,3.5164,3.555,3.5798,3.6178,3.6622,3.7077,3.748,3.7947,3.862,3.8763,3.9101,4.0197,4.0396,4.0691,4.1605,4.2119,4.2476,4.2684,4.3066,4.33,4.33,4.33,4.33,4.33,4.33,4.33,4.33,4.33,4.33,4.33,4.3524,4.3658,4.3658,4.4307,4.466,4.4655,4.5311,4.5786,4.6024,4.646,4.6665,4.668,4.7342,4.7653,4.7668,4.7919,4.8263,4.8663,4.8663,4.8902,4.9303,4.9303,4.9426,4.9625,4.9625,4.9774,4.9909,4.9468,4.9303,4.9303,4.9303,4.9456,4.9625,4.9625,4.9789,4.9984,4.9984,4.9984,4.9984,4.9984,5.026,5.0551,5.0551,5.0892,5.1191,5.1191,5.1191,5.1191,5.1191,5.1191,5.1191,5.1191,5.1191,5.128,5.1517,5.1561,5.1472,5.1232,5.1191,5.1191,5.1191,5.1191,5.1191,5.1191,5.1191,5.1191,5.1191,5.1191,5.1191,5.1191,5.1191,5.1191,5.1191,5.1191,5.1191,5.1191,5.1191,5.1191,5.1191,5.1191,5.1191,3.5327,3.5527,3.5697,3.6333,3.654,3.6904,3.8127,3.8435,3.8634,3.9277,3.943,3.9664,4.0326,4.0478,4.0928,4.2233,4.2451,4.2649,4.3215,4.33,4.33,4.33,4.33,4.33,4.33,4.33,4.3314,4.3349,4.3349,4.3349,4.3349,4.3982,4.4343,4.4343,4.5005,4.5361,4.5344,4.6024,4.6665,4.7309,4.7328,4.7358,4.7373,4.8053,4.8353,4.8394,4.9022,4.9318,4.9348,4.9348,4.9378,4.9408,4.9408,4.9748,5.0252,5.0252,5.0641,5.1038,4.9816,4.9408,4.9408,4.9408,4.9778,5.0252,5.0252,5.0712,5.1191,5.1191,5.1191,5.1191,5.1191,5.1191,5.1191,5.1191,5.1191,5.1206,5.1236,5.1251,5.1251,5.1307,5.1307,5.1307,5.1307,5.1307,5.1517,5.2157,5.2247,5.2022,5.137,5.1307,5.1307,5.1307,5.1307,5.1292,5.1251,5.1251,5.1247,5.1191,5.1191,5.1191,5.1191,5.1191,5.1191,5.1191,5.1191,5.1191,5.1191,5.1191,5.1191,5.1191,5.1191,5.1191,3.545,3.5852,3.6287,3.6458,3.7213,3.8002,3.8334,3.8796,3.9182,3.9358,3.9793,4.035,4.1021,4.156,4.2144,4.2942,4.3066,4.3116,4.3275,4.33,4.33,4.33,4.33,4.33,4.33,4.33,4.3499,4.4007,4.4057,4.4057,4.4057,4.4683,4.5051,4.5039,4.5694,4.6047,4.606,4.6717,4.7129,4.7298,4.7812,4.8048,4.8063,4.8734,4.9048,4.9048,4.9228,4.9565,4.9964,4.9964,5.0249,5.072,5.072,5.0814,5.0951,5.0951,5.1041,5.1146,5.0828,5.072,5.072,5.072,5.0828,5.0951,5.0951,5.1056,5.1191,5.1191,5.1191,5.1191,5.1191,5.1191,5.1191,5.1191,5.1191,5.1337,5.1843,5.1947,5.2097,5.2588,5.2692,5.2692,5.2692,5.2692,5.2752,5.2917,5.2947,5.2887,5.2707,5.2692,5.2692,5.2692,5.2692,5.2498,5.1992,5.1947,5.1726,5.1221,5.1191,5.1191,5.1191,5.1191,5.1191,5.1191,5.1191,5.1191,5.1191,5.1191,5.1191,5.1191,5.1191,5.1191,3.5496,3.5984,3.6551,3.683,3.7655,3.8482,3.8772,3.9125,3.9406,3.9406,3.9938,4.0607,4.1276,4.1958,4.2599,4.319,4.33,4.33,4.33,4.33,4.33,4.33,4.33,4.33,4.33,4.3573,4.3883,4.4267,4.4307,4.4419,4.4722,4.5363,4.5732,4.5749,4.6383,4.6743,4.6743,4.7392,4.7741,4.7758,4.8417,4.8734,4.8764,4.9396,4.9688,4.9703,5.0014,5.0331,5.0652,5.0652,5.0862,5.1191,5.1191,5.1191,5.1191,5.1191,5.1191,5.1191,5.1191,5.1397,5.1591,5.1307,5.1191,5.1191,5.1191,5.1191,5.1191,5.1191,5.1412,5.1636,5.1636,5.1861,5.2082,5.2082,5.2082,5.2172,5.2573,5.2648,5.2752,5.3139,5.3198,5.3198,5.3198,5.3198,5.3291,5.3593,5.3635,5.3755,5.4039,5.356,5.3198,5.3198,5.3198,5.3052,5.2677,5.2648,5.2483,5.2097,5.2082,5.2082,5.2082,5.2082,5.2082,5.2082,5.2082,5.192,5.1636,5.1636,5.1487,5.1191,5.1191,5.1191,3.5496,3.6054,3.6756,3.7281,3.797,3.8691,3.9277,3.9406,3.9406,3.9406,3.9995,4.0701,4.1283,4.2011,4.2684,4.3215,4.33,4.33,4.33,4.33,4.33,4.33,4.33,4.3324,4.3424,4.3957,4.4368,4.4544,4.4574,4.4825,4.5395,4.6075,4.6434,4.6434,4.7077,4.7427,4.7427,4.8103,4.8428,4.8441,4.9097,4.9421,4.9441,5.0054,5.0327,5.0372,5.0951,5.1191,5.1191,5.1191,5.1191,5.1191,5.1191,5.1251,5.1325,5.1325,5.1397,5.1472,5.1472,5.1846,5.2217,5.1546,5.1397,5.1472,5.1472,5.1472,5.1472,5.1472,5.1876,5.2336,5.2336,5.2767,5.3198,5.3198,5.3198,5.3216,5.3306,5.3396,5.3471,5.3471,5.3471,5.3471,5.3471,5.3471,5.3665,5.4251,5.4329,5.4536,5.5132,5.4174,5.3471,5.3471,5.3471,5.3426,5.3336,5.3321,5.3291,5.3213,5.3198,5.3198,5.3198,5.3198,5.3198,5.3198,5.3198,5.2902,5.2336,5.2336,5.2037,5.1472,5.1472,5.1472,3.5496,3.6357,3.7265,3.7361,3.833,3.9253,3.9358,3.9406,3.9406,3.9406,4.0375,4.1254,4.1381,4.2367,4.319,4.3275,4.33,4.33,4.33,4.33,4.33,4.33,4.33,4.3524,4.4072,4.4232,4.4764,4.5869,4.5945,4.6,4.6123,4.6768,4.7129,4.7129,4.7789,4.8125,4.8125,4.8794,4.9129,4.913,4.9745,5.005,5.0069,5.0727,5.1026,5.1026,5.1146,5.1191,5.1191,5.1191,5.1191,5.1191,5.1191,5.1546,5.2037,5.2037,5.2381,5.2842,5.2842,5.2932,5.2917,5.2247,5.2396,5.2842,5.2842,5.2842,5.2842,5.2842,5.2932,5.3034,5.3034,5.3111,5.3198,5.3198,5.3198,5.3351,5.3907,5.4461,5.4862,5.4862,5.4862,5.4862,5.4862,5.4862,5.4892,5.4999,5.5042,5.5072,5.5192,5.4997,5.4862,5.4862,5.4862,5.4625,5.4072,5.4027,5.3788,5.3243,5.3198,5.3198,5.3198,5.3198,5.3198,5.3198,5.3198,5.3139,5.3034,5.3034,5.2974,5.2842,5.2842,5.2842,3.5496,3.6435,3.739,3.7408,3.8411,3.9406,3.9406,3.9406,3.9406,3.9406,4.0197,4.1002,4.1332,4.2184,4.2932,4.325,4.33,4.33,4.33,4.33,4.33,4.33,4.3608,4.3957,4.4267,4.4929,4.5606,4.6253,4.6614,4.682,4.682,4.7129,4.7464,4.7815,4.8125,4.8476,4.882,4.9442,4.9776,4.9775,5.0421,5.0715,5.073,5.1041,5.1191,5.1191,5.1191,5.1191,5.1232,5.1576,5.1726,5.1768,5.2097,5.2453,5.2722,5.2722,5.2917,5.3198,5.3198,5.3426,5.3668,5.3354,5.3219,5.3198,5.3198,5.3198,5.3198,5.3198,5.3456,5.3713,5.3713,5.3979,5.4234,5.4234,5.4234,5.4324,5.464,5.497,5.5207,5.5207,5.5207,5.5207,5.5207,5.5207,5.5207,5.5207,5.5207,5.5207,5.5207,5.5207,5.5207,5.5207,5.5207,5.5059,5.4745,5.4715,5.4581,5.4264,5.4234,5.4234,5.4234,5.4234,5.4234,5.4234,5.4234,5.4069,5.3713,5.3713,5.3545,5.3198,5.3198,5.3198,3.5496,3.6435,3.739,3.7408,3.8411,3.9406,3.9406,3.9406,3.9406,3.9406,3.9938,4.0594,4.1274,4.1947,4.2599,4.319,4.33,4.33,4.33,4.33,4.33,4.33,4.3883,4.4358,4.4503,4.5603,4.6357,4.6496,4.7129,4.7516,4.7516,4.7516,4.7815,4.8492,4.8646,4.8966,4.9492,5.0108,5.04,5.0427,5.0962,5.1191,5.1191,5.1191,5.1191,5.1206,5.1352,5.1412,5.1472,5.2142,5.2411,5.2468,5.2992,5.3291,5.3411,5.3411,5.3501,5.3633,5.3633,5.3979,5.4404,5.4404,5.4057,5.3633,5.3633,5.3633,5.3633,5.3633,5.4012,5.4404,5.4404,5.4805,5.5207,5.5207,5.5207,5.5207,5.5207,5.5207,5.5207,5.5207,5.5207,5.5207,5.5207,5.5207,5.5207,5.5207,5.5207,5.5207,5.5207,5.5207,5.5207,5.5207,5.5207,5.5207,5.5207,5.5207,5.5207,5.5207,5.5207,5.5207,5.5207,5.5207,5.5207,5.5207,5.5207,5.494,5.4404,5.4404,5.4147,5.3633,5.3633,5.3633,3.5496,3.6435,3.739,3.7408,3.8411,3.9406,3.9406,3.9406,3.9406,3.9406,3.9938,4.0604,4.1283,4.1955,4.2599,4.319,4.33,4.33,4.33,4.33,4.33,4.33,4.3883,4.4543,4.5142,4.5865,4.6548,4.7154,4.7841,4.8218,4.8218,4.8218,4.8518,4.9183,4.9748,5.0042,5.012,5.0788,5.1111,5.1111,5.1164,5.1191,5.1191,5.1191,5.1191,5.1221,5.1843,5.2112,5.2157,5.2827,5.3111,5.3111,5.3183,5.3575,5.4104,5.4104,5.4491,5.5012,5.5012,5.5057,5.5104,5.5104,5.5072,5.5012,5.5012,5.5012,5.5012,5.5012,5.5057,5.5104,5.5104,5.5162,5.5207,5.5207,5.5207,5.5207,5.5207,5.5207,5.5207,5.5207,5.5207,5.5207,5.5207,5.5207,5.5207,5.5207,5.5207,5.5207,5.5207,5.5207,5.5207,5.5207,5.5207,5.5207,5.5207,5.5207,5.5207,5.5207,5.5207,5.5207,5.5207,5.5207,5.5207,5.5207,5.5207,5.5177,5.5104,5.5104,5.5087,5.5012,5.5012,5.5012,3.5496,3.6435,3.739,3.7408,3.8411,3.9406,3.9406,3.9406,3.9406,3.9406,3.9607,4.0124,4.12,4.1618,4.2134,4.314,4.33,4.33,4.33,4.33,4.3449,4.3848,4.4493,4.5162,4.5838,4.6511,4.718,4.7841,4.8151,4.8625,4.9399,4.9106,4.9185,4.982,5.0066,5.04,5.0803,5.1069,5.1191,5.1191,5.1191,5.1191,5.1206,5.1621,5.1801,5.1843,5.2501,5.2797,5.2857,5.353,5.3803,5.3832,5.4249,5.4578,5.4805,5.4805,5.497,5.5207,5.5207,5.5207,5.5207,5.5207,5.5207,5.5207,5.5207,5.5207,5.5207,5.5207,5.5207,5.5207,5.5207,5.5207,5.5207,5.5207,5.5207,5.5207,5.5207,5.5207,5.5207,5.5207,5.5207,5.5207,5.5207,5.5207,5.5207,5.5207,5.5207,5.5207,5.5207,5.5207,5.5207,5.5207,5.5207,5.5207,5.5207,5.5207,5.5207,5.5207,5.5207,5.5207,5.5207,5.5207,5.5207,5.5207,5.5207,5.5207,5.5207,5.5207,5.5207,5.5207,5.5207,5.5207,3.5496,3.6302,3.7187,3.7361,3.8259,3.9158,3.9358,3.9406,3.9406,3.9406,3.9406,3.9818,4.1151,4.1403,4.1828,4.3091,4.33,4.33,4.33,4.33,4.3548,4.4217,4.4891,4.5553,4.6231,4.7092,4.7789,4.827,4.8655,4.9247,5.0152,4.9987,5.0067,5.048,5.0507,5.0723,5.1191,5.1191,5.1191,5.1191,5.1191,5.1307,5.1517,5.198,5.2306,5.2531,5.3201,5.3501,5.3545,5.4221,5.4506,5.4536,5.5027,5.5207,5.5207,5.5207,5.5207,5.5207,5.5207,5.5207,5.5207,5.5207,5.5207,5.5207,5.5207,5.5207,5.5207,5.5207,5.5207,5.5207,5.5207,5.5207,5.5207,5.5207,5.5207,5.5207,5.5207,5.5207,5.5207,5.5207,5.5207,5.5207,5.5207,5.5207,5.5207,5.5207,5.5207,5.5207,5.5207,5.5207,5.5207,5.5207,5.5207,5.5207,5.5207,5.5207,5.5207,5.5207,5.5207,5.5207,5.5207,5.5207,5.5207,5.5207,5.5207,5.5207,5.5207,5.5207,5.5207,5.5207,5.5207,5.5207,3.5496,3.5984,3.6655,3.7258,3.7914,3.8587,3.9253,3.9406,3.9406,3.9406,3.9406,3.9818,4.1151,4.1403,4.1828,4.3091,4.33,4.33,4.33,4.33,4.3548,4.4217,4.4882,4.556,4.6229,4.7516,4.8296,4.8296,4.947,5.0185,5.0199,5.0814,5.1191,5.1191,5.1191,5.1191,5.1191,5.1191,5.1191,5.1191,5.1191,5.1546,5.2187,5.2202,5.2573,5.3231,5.3907,5.4194,5.4239,5.491,5.5192,5.5192,5.5207,5.5207,5.5207,5.5207,5.5207,5.5207,5.5207,5.5207,5.5207,5.5207,5.5207,5.5207,5.5207,5.5207,5.5207,5.5207,5.5207,5.5207,5.5207,5.5207,5.5207,5.5207,5.5207,5.5207,5.5207,5.5207,5.5207,5.5207,5.5207,5.5207,5.5207,5.5207,5.5207,5.5207,5.5207,5.5207,5.5207,5.5207,5.5207,5.5207,5.5207,5.5207,5.5207,5.5207,5.5207,5.5207,5.5207,5.5207,5.5207,5.5207,5.5207,5.5207,5.5207,5.5207,5.5207,5.5207,5.5207,5.5207,5.5207,5.5207,3.5496,3.5984,3.6553,3.6732,3.76,3.8458,3.8667,3.9077,3.9406,3.9406,3.9406,3.9818,4.1151,4.1403,4.1828,4.3091,4.33,4.33,4.33,4.33,4.3723,4.4843,4.5988,4.6743,4.6948,4.7789,4.8488,4.8954,4.974,5.04,5.0856,5.1084,5.1191,5.1191,5.1191,5.1191,5.1191,5.1191,5.1191,5.1217,5.1666,5.198,5.2232,5.3159,5.3683,5.3922,5.4581,5.488,5.4895,5.5104,5.5207,5.5207,5.5207,5.5207,5.5207,5.5207,5.5207,5.5207,5.5207,5.5207,5.5207,5.5207,5.5207,5.5207,5.5207,5.5207,5.5207,5.5207,5.5207,5.5207,5.5207,5.5207,5.5207,5.5207,5.5207,5.5207,5.5207,5.5207,5.5207,5.5207,5.5207,5.5207,5.5207,5.5207,5.5207,5.5207,5.5207,5.5207,5.5207,5.5207,5.5207,5.5207,5.5207,5.5207,5.5207,5.5207,5.5207,5.5207,5.5207,5.5207,5.5207,5.5207,5.5207,5.5207,5.5207,5.5207,5.5207,5.5207,5.5207,5.5207,5.5207,5.5207,3.5427,3.5798,3.6232,3.6715,3.7444,3.8156,3.8653,3.9101,3.9406,3.9406,3.9406,3.9818,4.1151,4.1403,4.1828,4.3091,4.33,4.33,4.33,4.3524,4.4173,4.5519,4.6639,4.7401,4.7645,4.827,4.8938,4.9594,5.0214,5.0761,5.1191,5.1191,5.1191,5.1191,5.1191,5.1191,5.1191,5.144,5.1577,5.1589,5.2264,5.271,5.2968,5.382,5.4329,5.4596,5.5027,5.5207,0.0,5.5207,5.5207,5.5207,5.5207,5.5207,5.5207,5.5207,5.5207,5.5207,5.5207,5.5207,5.5207,5.5207,5.5207,5.5207,5.5207,5.5207,5.5207,5.5207,5.5207,5.5207,5.5207,5.5207,5.5207,5.5207,5.5207,5.5207,5.5207,5.5207,5.5207,5.5207,5.5207,5.5207,5.5207,5.5207,5.5207,5.5207,5.5207,5.5207,5.5207,5.5207,5.5207,5.5207,5.5207,5.5207,5.5207,5.5207,5.5207,5.5207,5.5207,5.5207,5.5207,5.5207,5.5207,5.5207,5.5207,5.5207,5.5207,5.5207,5.5207,5.5207,5.5207,5.5207,0.0,3.5465,3.5798,3.7034,3.7367,3.7741,3.9038,3.9358,0.0,3.9406,3.9439,3.9866,4.1151,4.1437,4.1877,4.3091,4.33,4.33,4.33,4.3913,4.4848,4.6152,4.6923,4.7619,4.8244,4.8944,4.9597,5.0169,5.0814,5.1191,5.1191,5.1191,5.1191,5.1191,5.1254,5.1269,5.128,5.1893,5.2214,5.2279,5.2955,5.3605,5.4194,5.4254,5.461,5.5207,5.5207,5.5207,5.5207,5.5207,5.5207,5.5207,5.5207,5.5207,5.5207,5.5207,5.5207,5.5207,5.5207,5.5207,5.5207,5.5207,5.5207,5.5207,5.5207,5.5207,5.5207,5.5207,5.5207,5.5207,5.5207,5.5207,5.5207,5.5207,5.5207,5.5207,5.5207,5.5207,5.5207,5.5207,5.5207,5.5207,5.5207,5.5207,5.5207,5.5207,5.5207,5.5207,5.5207,5.5207,5.5207,5.5207,5.5207,5.5207,5.5207,5.5207,5.5207,5.5207,5.5207,5.5207,5.5207,5.5207,5.5207,5.5207,5.5207,5.5207,5.5207,5.5207,5.5207,5.5207,5.5207,5.5207,3.4548,0.0,3.5697,3.6512,3.7062,3.7624,0.0,3.9029,3.9406,3.9406,3.9818,4.0423,4.1248,4.1814,4.2416,4.319,4.33,4.33,4.33,4.4317,4.5369,4.6206,4.7335,4.8125,4.827,4.9318,5.0052,5.0196,5.0814,5.1191,5.1191,5.1191,5.1191,5.1191,5.17,5.195,5.1963,5.2111,5.2461,5.297,5.3641,5.4057,5.4209,5.473,5.5044,5.5207,5.5207,5.5207,5.5207,5.5207,5.5207,5.5207,5.5207,5.5207,5.5207,5.5207,5.5207,5.5207,5.5207,5.5207,5.5207,5.5207,5.5207,5.5207,5.5207,5.5207,5.5207,5.5207,5.5207,5.5207,5.5207,5.5207,5.5207,5.5207,5.5207,5.5207,5.5207,5.5207,5.5207,5.5207,5.5207,5.5207,5.5207,5.5207,5.5207,5.5207,5.5207,5.5207,5.5207,5.5207,5.5207,5.5207,5.5207,5.5207,5.5207,5.5207,5.5207,5.5207,5.5207,5.5207,5.5207,5.5207,5.5207,5.5207,5.5207,5.5207,5.5207,5.5207,5.5207,5.5207,5.5207,5.5207,3.4322,3.4987,3.5651,3.6333,3.6958,3.7579,3.825,3.8924,3.9487,3.9793,4.0148,4.0704,4.1678,4.216,4.2599,4.319,4.33,4.3499,4.4132,4.5116,4.5998,4.6676,4.767,4.8425,4.8738,4.9636,5.032,5.064,5.0989,5.1191,5.1191,5.1191,5.1343,5.1652,5.2001,5.2194,5.2191,5.2801,5.33,5.3675,5.4351,5.4655,5.467,5.5029,5.5207,5.5207,5.5207,5.5207,5.5207,5.5207,5.5207,5.5207,5.5207,5.5207,5.5207,5.5207,5.5207,5.5207,5.5207,5.5207,5.5207,5.5207,5.5207,5.5266,5.5578,5.5656,5.5596,5.5296,5.5207,5.5207,5.5207,5.5207,5.5207,5.5207,5.5207,5.5207,5.5207,5.5207,5.5207,5.5207,5.5207,5.5207,5.5207,5.5207,5.5207,5.5207,5.5207,5.5207,5.5207,5.5207,5.5207,5.5207,5.5207,5.5207,5.5207,5.5207,5.5207,5.5207,5.5207,5.5207,5.5207,5.5207,5.5207,5.5207,5.5207,5.5207,5.5207,5.5207,5.5207,5.5207,5.5207,5.5207,3.4188,3.4987,3.5806,3.6466,3.7014,3.7603,3.8379,3.9077,3.9712,4.0278,4.0562,4.1051,4.2184,4.2476,4.2699,4.3215,4.3389,4.3923,4.5268,4.5943,4.6583,4.7356,4.8039,4.8711,4.9365,4.9987,5.0586,5.1164,5.1191,5.1191,5.1191,5.1299,5.1607,5.2174,5.241,5.2502,5.2517,5.3635,5.4244,5.4361,5.4929,5.5207,5.5207,5.5207,5.5207,5.5207,5.5207,5.5207,5.5207,5.5207,5.5207,5.5207,5.5207,5.5207,5.5207,5.5207,5.5207,5.5207,5.5207,5.5266,5.5356,5.5356,5.5416,5.5596,5.6177,5.6342,5.6222,5.5656,5.5491,5.5491,5.5491,5.5491,5.5491,5.5491,5.5416,5.5356,5.5356,5.5281,5.5207,5.5207,5.5207,5.5207,5.5207,5.5207,5.5207,5.5207,5.5207,5.5207,5.5207,5.5207,5.5207,5.5207,5.5207,5.5207,5.5207,5.5207,5.5207,5.5207,5.5207,5.5207,5.5207,5.5207,5.5207,5.5207,5.5207,5.5207,5.5207,5.5207,5.5207,5.5207,5.5207,5.5207,3.3624,3.4964,3.6489,3.7112,3.733,3.7715,3.8954,3.9769,4.0278,4.0375,4.1293,4.2149,4.2367,4.2818,4.319,4.3275,4.3783,4.4614,4.5962,4.6233,4.6771,4.7999,4.8732,4.9381,4.9998,5.0655,5.1096,5.1191,5.1191,5.1191,5.1191,5.1744,5.2091,5.2193,5.3299,5.3888,5.3878,5.4102,5.4488,5.5054,5.5151,5.5207,5.5207,5.5207,5.5207,5.5207,5.5207,5.5207,5.5207,5.5207,5.5207,5.5207,5.5207,5.5207,5.5207,5.5207,5.5207,5.5207,5.5207,5.5566,5.6057,5.6057,5.6389,5.6838,5.6928,5.6972,5.6943,5.6853,5.6808,5.6808,5.6808,5.6808,5.6808,5.6808,5.6419,5.6057,5.6057,5.5596,5.5207,5.5207,5.5207,5.5207,5.5207,5.5207,5.5207,5.5207,5.5207,5.5207,5.5207,5.5207,5.5207,5.5207,5.5207,5.5207,5.5207,5.5207,5.5207,5.5207,5.5207,5.5207,5.5207,5.5207,5.5207,5.5207,5.5207,5.5207,5.5207,5.5207,5.5207,5.5207,5.5207,5.5207,3.3495,3.4964,3.6634,3.7246,3.7676,3.8188,3.917,3.9914,4.0604,4.1328,4.1974,4.25,4.2833,4.3116,4.3414,4.3776,4.4404,4.5185,4.6168,4.691,4.7614,4.8234,4.9182,4.989,5.0167,5.0814,5.1191,5.1191,5.1191,5.1367,5.1726,5.2034,5.2528,5.3264,5.388,5.4374,5.4745,5.4745,5.4895,5.5207,5.5207,5.5207,5.5207,5.5207,5.5207,5.5207,5.5207,5.5207,5.5207,5.5207,5.5207,5.5207,5.5207,5.5207,5.5207,5.5207,5.5431,5.5743,5.5743,5.6162,5.6688,5.6688,5.6868,5.7169,5.753,5.7635,5.7709,5.8082,5.7663,5.7094,5.7094,5.7094,5.7094,5.7094,5.6883,5.6688,5.6688,5.6179,5.5743,5.5743,5.5446,5.5207,5.5207,5.5207,5.5207,5.5207,5.5207,5.5207,5.5207,5.5207,5.5207,5.5207,5.5207,5.5207,5.5207,5.5207,5.5207,5.5207,5.5207,5.5207,5.5207,5.5207,5.5207,5.5207,5.5207,5.5207,5.5207,5.5207,5.5207,5.5207,5.5207,5.5207,3.369,3.5195,3.6819,3.7284,3.7899,3.8628,3.9449,4.0152,4.096,4.2159,4.25,4.2758,4.3215,4.3429,4.3752,4.4433,4.509,4.5768,4.6434,4.7547,4.835,4.8517,4.9524,5.0263,5.0412,5.0909,5.1191,5.1191,5.1352,5.1666,5.2172,5.2501,5.3144,5.4164,5.4344,5.4685,5.5179,5.5207,5.5207,5.5207,5.5207,5.5207,5.5207,5.5207,5.5207,5.5207,5.5207,5.5207,5.5207,5.5207,5.5207,5.5207,5.5207,5.5296,5.5431,5.5431,5.585,5.6417,5.6417,5.6823,5.7334,5.7334,5.7438,5.7663,5.8188,5.8324,5.8442,5.8964,5.8366,5.7573,5.7573,5.7573,5.7573,5.7573,5.7453,5.7334,5.7334,5.6853,5.6417,5.6417,5.6,5.5641,5.5641,5.5536,5.5431,5.5431,5.5296,5.5207,5.5207,5.5207,5.5207,5.5207,5.5207,5.5207,5.5207,5.5207,5.5207,5.5207,5.5207,5.5207,5.5207,5.5207,5.5207,5.5207,5.5207,5.5207,5.5207,5.5207,5.5207,5.5207,5.5207,5.5207,3.4262,3.5849,3.7344,3.7392,3.7899,3.8745,4.003,4.0859,4.1533,4.2248,4.2857,4.325,4.329,4.381,4.4452,4.5122,4.5788,4.646,4.7129,4.7854,4.8537,4.9158,4.9794,5.0438,5.1078,5.1164,5.1191,5.1191,5.1783,5.2157,5.2202,5.3384,5.4104,5.4194,5.4805,5.5162,5.5207,5.5207,5.5207,5.5207,5.5207,5.5207,5.5207,5.5207,5.5207,5.5207,5.5207,5.5207,5.5207,5.5207,5.5207,5.5207,5.5207,5.5581,5.6132,5.6132,5.6509,5.7047,5.7047,5.7468,5.8025,5.8025,5.8442,5.8979,5.9011,5.9039,5.9039,5.9099,5.9039,5.8964,5.8964,5.8964,5.8964,5.8964,5.8487,5.8025,5.8025,5.7513,5.7047,5.7047,5.7002,5.6972,5.6972,5.6494,5.6132,5.6132,5.5596,5.5207,5.5207,5.5207,5.5207,5.5207,5.5207,5.5207,5.5207,5.5207,5.5207,5.5207,5.5207,5.5207,5.5207,5.5207,5.5207,5.5207,5.5207,5.5207,5.5207,5.5207,5.5207,5.5207,5.5207,5.5207,3.4827,3.6245,3.7606,3.8446,3.9147,3.9897,4.0806,4.1536,4.2194,4.2833,4.314,4.3429,4.3857,4.4123,4.466,4.5752,4.6126,4.6687,4.7762,4.8495,4.9164,4.9783,5.0427,5.0922,5.1187,5.1191,5.1382,5.1786,5.2067,5.2561,5.3399,5.3925,5.4401,5.4805,5.5072,5.5207,5.5207,5.5207,5.5207,5.5207,5.5207,5.5207,5.5207,5.5207,5.5207,5.5207,5.5207,5.5207,5.5207,5.5207,5.5207,5.5237,5.5656,5.6209,5.6763,5.6763,5.7169,5.7724,5.7724,5.8158,5.8726,5.8726,5.8891,5.9099,5.9099,5.9099,5.9099,5.9099,5.9099,5.9099,5.9099,5.9099,5.9099,5.9099,5.8906,5.8726,5.8726,5.8203,5.7724,5.7724,5.7393,5.7094,5.7094,5.6913,5.6763,5.6763,5.6539,5.6389,5.6389,5.6389,5.6389,5.6389,5.6045,5.5641,5.5237,5.5207,5.5207,5.5207,5.5207,5.5207,5.5207,5.5207,5.5207,5.5207,5.5207,5.5207,5.5207,5.5207,5.5207,5.5207,5.5207,5.5207,3.539,3.6758,3.8002,3.9112,4.0215,4.1154,4.1618,4.2066,4.2565,4.318,4.3464,4.3768,4.4215,4.4653,4.5241,4.6145,4.667,4.7238,4.8173,4.9041,4.9748,5.0147,5.0787,5.1191,5.1191,5.1397,5.1708,5.2172,5.2591,5.3222,5.4149,5.4389,5.473,5.5192,5.5207,5.5207,5.5207,5.5207,5.5207,5.5207,5.5207,5.5207,5.5207,5.5207,5.5207,5.5207,5.5207,5.5207,5.5222,5.5431,5.5626,5.585,5.6299,5.6868,5.7423,5.7423,5.7829,5.8427,5.8427,5.8712,5.9099,5.9099,5.9099,5.9099,5.9099,5.9099,5.9099,5.9099,5.9099,5.9099,5.9099,5.9099,5.9099,5.9099,5.9099,5.9099,5.9099,5.8741,5.8427,5.8427,5.8052,5.7723,5.7723,5.7558,5.7423,5.7423,5.7229,5.7094,5.7094,5.7094,5.7094,5.7094,5.6733,5.6312,5.585,5.5626,5.5521,5.5521,5.5311,5.5207,5.5207,5.5207,5.5207,5.5207,5.5207,5.5207,5.5207,5.5207,5.5207,5.5207,5.5207,5.5207,3.5961,3.7437,3.8565,3.9251,4.0915,4.2396,4.241,4.241,4.2571,4.319,4.3848,4.4307,4.4322,4.5403,4.63,4.6315,4.7418,4.8293,4.8319,4.9396,5.0207,5.0207,5.0802,5.1191,5.1206,5.1801,5.2202,5.2217,5.3458,5.4194,5.4209,5.4835,5.5207,5.5207,5.5207,5.5207,5.5207,5.5207,5.5207,5.5207,5.5207,5.5207,5.5207,5.5207,5.5207,5.5207,5.5222,5.5222,5.5266,5.5938,5.6566,5.7109,5.7109,5.7515,5.8115,5.8115,5.8532,5.9099,5.9099,5.9099,5.9099,5.9099,5.9099,5.9099,5.9099,5.9099,5.9099,5.9099,5.9099,5.9099,5.9099,5.9099,5.9099,5.9099,5.9099,5.9099,5.9099,5.9099,5.9099,5.9099,5.9099,5.9099,5.9099,5.8547,5.8115,5.8115,5.753,5.7109,5.7109,5.7109,5.7122,5.7109,5.7109,5.7109,5.7094,5.6551,5.6207,5.6192,5.5581,5.5222,5.5207,5.5207,5.5207,5.5207,5.5207,5.5207,5.5207,5.5207,5.5207,5.5207,5.5207,5.5207,3.6462,3.7404,3.8197,4.0286,4.1254,4.1927,4.2826,4.3035,4.3215,4.3863,4.4162,4.4591,4.5538,4.6031,4.6614,4.7549,4.8038,4.8611,4.9501,4.9953,5.0372,5.0847,5.1071,5.1397,5.1861,5.2082,5.2591,5.3536,5.397,5.4416,5.488,5.5102,5.5207,5.5207,5.5207,5.5207,5.5207,5.5207,5.5207,5.5207,5.5207,5.5207,5.5207,5.5207,5.5207,5.5237,5.57,5.5908,5.5953,5.6568,5.7214,5.7799,5.7799,5.8203,5.8801,5.8801,5.8934,5.9099,5.9099,5.9099,5.9099,5.9099,5.9099,5.9099,5.9099,5.9099,5.9099,5.9099,5.9099,5.9099,5.9099,5.9099,5.9099,5.9099,5.9099,5.9099,5.9099,5.9099,5.9099,5.9099,5.9099,5.9099,5.9099,5.8949,5.8801,5.8801,5.8635,5.8515,5.8515,5.8515,5.8336,5.7844,5.7799,5.7605,5.7139,5.6943,5.6643,5.6222,5.6013,5.5698,5.5222,5.5207,5.5207,5.5207,5.5207,5.5207,5.5207,5.5207,5.5207,5.5207,5.5207,5.5207,3.6693,3.759,3.8377,4.0804,4.1598,4.2062,4.307,4.33,4.3494,4.4162,4.4516,4.5025,4.6106,4.651,4.7044,4.8128,4.8517,4.9056,5.0058,5.0431,5.0757,5.1146,5.1191,5.1457,5.2127,5.2453,5.3039,5.4119,5.4461,5.4775,5.5177,5.5207,5.5207,5.5207,5.5207,5.5207,5.5207,5.5207,5.5207,5.5207,5.5207,5.5341,5.5596,5.5596,5.5596,5.5626,5.6282,5.6703,5.6974,5.7348,5.7889,5.8502,5.8502,5.8741,5.9099,5.9099,5.9099,5.9099,5.9099,5.9099,5.9099,5.9099,5.9099,5.9099,5.9099,5.9099,5.9099,5.9099,5.9099,5.9099,5.9099,5.9099,5.9099,5.9099,5.9099,5.9099,5.9099,5.9099,5.9099,5.9099,5.9099,5.9099,5.9099,5.9099,5.9099,5.9099,5.9099,5.9099,5.9099,5.9099,5.8951,5.8547,5.8502,5.8323,5.7932,5.7648,5.7348,5.6974,5.6492,5.6013,5.5611,5.5341,5.5207,5.5207,5.5207,5.5207,5.5207,5.5207,5.5207,5.5207,5.5207,5.5207,3.6693,3.7838,3.8805,4.0879,4.1952,4.2631,4.3175,4.3359,4.3584,4.4262,4.493,4.5603,4.6271,4.6939,4.7608,4.8278,4.8947,4.9595,5.0207,5.0817,5.1191,5.1191,5.1251,5.1546,5.2232,5.2902,5.3575,5.4239,5.4862,5.5207,5.5207,5.5207,5.5207,5.5207,5.5207,5.5207,5.5207,5.5207,5.5237,5.5296,5.5296,5.5641,5.6282,5.6222,5.6267,5.6402,5.6958,5.7573,5.819,5.819,5.8547,5.9099,5.9099,5.9099,5.9099,5.9099,5.9099,5.9099,5.9099,5.9099,5.9099,5.9099,5.9099,5.9099,5.9099,5.9099,5.9099,5.9099,5.9099,5.9099,5.9099,5.9099,5.9099,5.9099,5.9099,5.9099,5.9099,5.9099,5.9099,5.9099,5.9099,5.9099,5.9099,5.9099,5.9099,5.9099,5.9099,5.9099,5.9099,5.9099,5.9099,5.9099,5.9099,5.9099,5.9099,5.8547,5.8173,5.81,5.7004,5.6327,5.6192,5.5564,5.5207,5.5207,5.5207,5.5207,5.5207,5.5207,5.5207,5.5207,5.5207,5.5207,3.6693,3.7509,3.8219,4.0775,4.2267,4.3145,4.327,4.3703,4.4277,4.4945,4.5623,4.6296,4.6969,4.7638,4.8293,4.8989,4.9598,5.0234,5.0892,5.1101,5.1191,5.1191,5.1666,5.2247,5.2917,5.3593,5.4266,5.4925,5.5117,5.5207,5.5207,5.5207,5.5207,5.5207,5.5207,5.5207,5.5207,5.5207,5.5461,5.5983,5.5983,5.6312,5.6883,5.6417,5.6748,5.7694,5.7829,5.8263,5.8876,5.8876,5.8966,5.9099,5.9099,5.9099,5.9099,5.9099,5.9099,5.9099,5.9099,5.9099,5.9099,5.9099,5.9099,5.9099,5.9099,5.9099,5.9099,5.9099,5.9099,5.9099,5.9099,5.9099,5.9099,5.9099,5.9099,5.9099,5.9099,5.9099,5.9099,5.9099,5.9099,5.9099,5.9099,5.9099,5.9099,5.9099,5.9099,5.9099,5.9099,5.9099,5.9099,5.9099,5.9099,5.9099,5.9099,5.8979,5.8667,5.813,5.7844,5.7244,5.6237,5.5564,5.5207,5.5207,5.5207,5.5207,5.5207,5.5207,5.5207,5.5207,5.5207,5.5207,3.6693,3.7396,3.8039,4.072,4.2362,4.33,4.33,4.4072,4.4885,4.524,4.5832,4.6495,4.7179,4.7848,4.8517,4.9198,4.9811,5.0431,5.1113,5.1191,5.131,5.1636,5.1992,5.2591,5.3578,5.3985,5.4476,5.5162,5.5207,5.5207,5.5207,5.5207,5.5466,5.6035,5.5501,5.5478,5.6063,5.582,5.5848,5.6192,5.6492,5.6972,5.7573,5.7244,5.7648,5.8577,5.8577,5.8771,5.9099,5.9099,5.9099,5.9099,5.9099,5.9099,5.9099,5.9099,5.9099,5.9099,5.9099,5.9099,5.9099,5.9099,5.9099,5.9099,5.9099,5.9099,5.9099,5.9099,5.9099,5.9099,5.9099,5.9099,5.9099,5.9099,5.9099,5.9099,5.9099,5.9099,5.9099,5.9099,5.9099,5.9099,5.9099,5.9099,5.9099,5.9099,5.9099,5.9099,5.9099,5.9099,5.9099,5.9099,5.9099,5.9099,5.9099,5.9099,5.8951,5.8607,5.8278,5.7799,5.7139,5.6194,5.5521,5.5222,5.5207,5.5207,5.5207,5.5207,5.5207,5.5207,5.5207,5.5207,3.6693,3.774,3.8616,4.0849,4.2362,4.33,4.33,4.4337,4.53,4.53,4.5933,4.6685,4.7354,4.8023,4.8693,4.9352,4.9976,5.0578,5.1116,5.1191,5.1457,5.2127,5.2291,5.2845,5.4074,5.4299,5.4596,5.5162,5.5391,5.5501,5.5501,5.571,5.6183,5.6979,5.6038,5.5939,5.6852,5.6421,5.6425,5.6879,5.7471,5.7945,5.8264,5.8264,5.8577,5.9099,5.9099,5.9099,5.9099,5.9099,5.9099,5.9099,5.9099,5.9099,5.9099,5.9099,5.9099,5.9099,5.9099,5.9099,5.9099,5.9099,5.9099,5.9099,5.9099,5.9099,5.9099,5.9099,5.9099,5.9099,5.9099,5.9099,5.9099,5.9099,5.9099,5.9099,5.9099,5.9099,5.9099,5.9099,5.9099,5.9099,5.9099,5.9099,5.9099,5.9099,5.9099,5.9099,5.9099,5.9099,5.9099,5.9099,5.9099,5.9099,5.9099,5.9099,5.9099,5.9099,5.8577,5.822,5.81,5.6987,5.6057,5.5386,5.5266,5.5207,5.5207,5.5207,5.5207,5.5207,5.5207,5.5207,3.6693,3.9095,4.0954,4.1313,4.2362,4.33,4.33,4.4337,4.53,4.53,4.6307,4.7358,4.8038,4.8708,4.9381,4.9979,5.0637,5.1101,5.1191,5.1191,5.1457,5.2127,5.2707,5.3366,5.4132,5.473,5.5102,5.5192,5.617,5.6767,5.6767,5.7749,5.7912,5.7023,5.6836,5.6614,5.6308,5.6237,5.7346,5.9595,6.019,5.9947,5.8979,5.8979,5.9024,5.9099,5.9099,5.9099,5.9099,5.9099,5.9099,5.9099,5.9099,5.9099,5.9099,5.9099,5.9099,5.9099,5.9099,5.9099,5.9099,5.9099,5.9099,5.9099,5.9099,5.9099,5.9099,5.9099,5.9099,5.9099,5.9099,5.9099,5.9099,5.9099,5.9099,5.9099,5.9099,5.9099,5.9099,5.9099,5.9099,5.9099,5.9099,5.9099,5.9099,5.9099,5.9099,5.9099,5.9099,5.9099,5.9099,5.9099,5.9099,5.9099,5.9099,5.9099,5.9099,5.9099,5.9024,5.8712,5.8115,5.7378,5.6688,5.6072,5.5491,5.5207,5.5207,5.5207,5.5207,5.5207,5.5207,5.5207,3.6693,3.908,4.093,4.1313,4.2362,4.33,4.33,4.4042,4.4855,4.5214,4.6072,4.7059,4.8113,4.8843,4.9501,5.0102,5.0772,5.1191,5.1191,5.1191,5.1832,5.3554,5.4029,5.4613,5.567,5.6036,5.6204,5.6204,5.6707,5.7296,5.7969,5.8519,5.8564,5.8027,5.7339,5.7067,5.7212,5.7619,5.876,6.0611,6.0878,6.0328,5.9099,5.9099,5.9099,5.9099,5.9099,5.9099,5.9099,5.9099,5.9099,5.9099,5.9099,5.9099,5.9099,5.9099,5.9099,5.9099,5.9099,5.9099,5.9099,5.9099,5.9099,5.9099,5.9099,5.9099,5.9099,5.9099,5.9099,5.9099,5.9099,5.9099,5.9099,5.9099,5.9099,5.9099,5.9099,5.9099,5.9099,5.9099,5.9099,5.9099,5.9099,5.9099,5.9099,5.9099,5.9099,5.9099,5.9099,5.9099,5.9099,5.9099,5.9099,5.9099,5.9099,5.9099,5.9099,5.9099,5.9099,5.8979,5.8667,5.7663,5.6987,5.6703,5.5715,5.5207,5.5207,5.5207,5.5207,5.5207,5.5207,5.4756,3.6836,3.8742,4.0352,4.1194,4.2237,4.3115,4.327,4.3818,4.4486,4.5155,4.5832,4.6704,4.8053,4.9068,4.9816,5.016,5.1008,5.1534,5.1238,5.1456,5.2462,5.4733,5.5266,5.5853,5.6899,5.7284,5.7331,5.7011,5.7574,5.831,5.9214,5.9544,5.9566,5.9269,5.8576,5.8377,5.8739,5.9958,6.0718,6.1002,6.1344,6.0666,5.9099,5.9099,5.9099,5.9099,5.9099,5.9099,5.9099,5.9099,5.9099,5.9099,5.9099,5.9099,5.9099,5.9099,5.9099,5.9099,5.9099,5.9099,5.9099,5.9099,5.9099,5.9099,5.9099,5.9099,5.9099,5.9099,5.9099,5.9099,5.9099,5.9099,5.9099,5.9099,5.9099,5.9099,5.9099,5.9099,5.9099,5.9099,5.9099,5.9099,5.9099,5.9099,5.9099,5.9099,5.9099,5.9099,5.9099,5.9099,5.9099,5.9099,5.9099,5.9099,5.9099,5.9099,5.9099,5.9099,5.9099,5.9099,5.9099,5.7812,5.7094,5.7094,5.585,5.5207,5.5207,5.5207,5.5207,5.5194,5.4807,5.4042,3.721,3.8389,3.9774,4.1064,4.1937,4.2601,4.3175,4.3818,4.4486,4.5155,4.5832,4.6704,4.8053,4.9682,5.0679,5.0267,5.1667,5.2429,5.1351,5.2132,5.3371,5.4825,5.5955,5.6704,5.6967,5.8023,5.8234,5.7083,5.912,6.0438,6.0501,6.1588,6.1696,6.0533,6.1111,6.1228,6.0743,6.3307,6.3388,6.103,6.2291,6.1552,5.9099,5.9099,5.9099,5.9099,5.9099,5.9099,5.9099,5.9099,5.9099,5.9099,5.9099,5.9099,5.9099,5.9099,5.9099,5.9099,5.9099,5.9099,5.9099,5.9099,5.9099,5.9099,5.9099,5.9099,5.9099,5.9099,5.9099,5.9099,5.9099,5.9099,5.9099,5.9099,5.9099,5.9099,5.9099,5.9099,5.9099,5.9099,5.9099,5.9099,5.9099,5.9099,5.9099,5.9099,5.9099,5.9099,5.9099,5.9099,5.9099,5.9099,5.9099,5.9099,5.9099,5.9099,5.9099,5.9099,5.9099,5.9099,5.9099,5.7812,5.7094,5.7094,5.585,5.5207,5.5207,5.5207,5.5207,5.5181,5.3768,5.3083,3.665,3.7764,3.908,4.0412,4.1583,4.2566,4.316,4.3494,4.3848,4.4516,4.5189,4.6138,4.7694,4.9587,5.0739,5.0279,5.1723,5.2508,5.1363,5.2184,5.3708,5.5903,5.7157,5.8238,5.9223,5.9697,5.9773,5.9341,6.0113,6.0943,6.1716,6.2167,6.1854,6.0644,6.1326,6.2048,6.283,6.4206,6.4012,6.2291,6.2771,6.1628,5.9099,5.9099,5.9099,5.9099,5.9099,5.9099,5.9099,5.9099,5.9099,5.9099,5.9099,5.9099,5.9099,5.9099,5.9099,5.9099,5.9099,5.9099,5.9099,5.9099,5.9099,5.9099,5.9099,5.9099,5.9099,5.9099,5.9099,5.9099,5.9099,5.9099,5.9099,5.9099,5.9099,5.9099,5.9099,5.9099,5.9099,5.9099,5.9099,5.9099,5.9099,5.9099,5.9099,5.9099,5.9099,5.9099,5.9099,5.9099,5.9099,5.9099,5.9099,5.9099,5.9099,5.9099,5.9099,5.9099,5.9099,5.8906,5.8487,5.7588,5.6928,5.6536,5.5656,5.5207,5.5207,5.5207,5.4718,5.3781,5.3241,5.2469,3.6329,3.7263,3.8392,3.9729,4.1064,4.2236,4.2865,4.3145,4.3494,4.4162,4.4651,4.5539,4.7447,4.9436,5.0804,5.0947,5.2169,5.2922,5.241,5.2989,5.4351,5.6725,5.8212,5.9358,6.015,6.0815,6.1042,6.0634,6.0974,6.1558,6.2361,6.2391,6.2259,6.1943,6.2426,6.3385,6.487,6.5326,6.4693,6.3,6.3,6.1628,5.9099,5.9099,5.9099,5.9099,5.9099,5.9099,5.9099,5.9099,5.9099,5.9099,5.9099,5.9099,5.9099,5.9099,5.9099,5.9099,5.9099,5.9099,5.9099,5.9099,5.9099,5.9099,5.9099,5.9099,5.9099,5.9099,5.9099,5.9099,5.9099,5.9099,5.9099,5.9099,5.9099,5.9099,5.9099,5.9099,5.9099,5.9099,5.9099,5.9099,5.9099,5.9099,5.9099,5.9099,5.9099,5.9099,5.9099,5.9099,5.9099,5.9099,5.9099,5.9099,5.9099,5.9099,5.9099,5.9099,5.9099,5.8801,5.813,5.7468,5.6823,5.6207,5.5536,5.5207,5.5207,5.5207,5.4705,5.3729,5.3228,5.2173,0.0,0.0,0.0,3.9032,4.0382,4.1553,4.2246,4.2851,4.3464,4.4132,4.4292,4.5022,4.7379,4.9262,5.0939,5.2324,5.3089,5.3753,5.4461,5.4594,5.5297,5.7175,5.8973,5.9941,5.9587,6.1264,6.1897,6.0739,6.1736,6.2391,6.2391,6.2391,6.3084,6.4546,6.4597,6.5314,6.6785,6.6802,6.5537,6.3064,6.3012,6.164,5.9153,5.9113,5.9099,5.9099,5.9099,5.9099,5.9099,5.9099,5.9099,5.9099,5.9099,5.9099,5.9099,5.9099,5.9099,5.9099,5.9099,5.9099,5.9099,5.9099,5.9099,5.9099,5.9099,5.9099,5.9099,5.9099,5.9099,5.9099,5.9099,5.9099,5.9099,5.9099,5.9099,5.9099,5.9099,5.9099,5.9099,5.9099,5.9099,5.9099,5.9099,5.9099,5.9099,5.9099,5.9099,5.9099,5.9099,5.9099,5.9099,5.9099,5.9099,5.9099,5.9099,5.9099,5.9099,5.9099,5.9071,5.8771,5.81,5.7438,5.6793,5.6177,5.5536,5.5207,5.5207,5.5207,5.5181,5.5103,5.3676,5.2173,3.5729,0.0,0.0,0.0,0.0,0.0,4.2141,4.2536,4.283,4.3444,4.3967,4.5122,4.7751,4.9039,5.0653,5.3555,5.373,5.3567,5.378,5.4258,5.5297,5.7175,5.8519,5.9704,6.0704,6.1285,6.1689,6.189,6.2206,6.2391,6.2391,6.2391,6.3084,6.4546,6.4597,6.5314,6.6785,6.6802,6.5974,6.4352,6.3442,6.211,6.0445,5.9524,5.9099,5.9099,5.9099,5.9099,5.9099,5.9099,5.9099,5.9099,5.9099,5.9099,5.9099,5.9099,5.9099,5.9099,5.9099,5.9099,5.9099,5.9099,5.9099,5.9099,5.9099,5.9099,5.9099,5.9099,5.9099,5.9099,5.9099,5.9099,5.9099,5.9099,5.9099,5.9099,5.9099,5.9099,5.9099,5.9099,5.9099,5.9099,5.9099,5.9099,5.9099,5.9099,5.9099,5.9099,5.9099,5.9099,5.9099,5.9099,5.9099,5.9099,5.9099,5.9099,5.9099,5.9099,5.8637,5.8083,5.7408,5.6778,5.6134,5.5491,5.5296,5.5207,5.5207,5.5207,5.4654,5.3597,5.3189,5.2173,3.5496,3.6252,3.718,3.7823,0.0,0.0,4.1682,4.2201,4.258,4.319,4.3614,4.4715,4.7443,4.8508,5.0004,5.3128,5.3063,5.3154,5.4652,5.4471,5.5039,5.7345,5.8423,5.9351,6.0257,6.0917,6.1484,6.1917,6.2238,6.2391,6.2391,6.2391,6.3084,6.4546,6.4597,6.5314,6.6785,6.6802,6.6153,6.488,6.3607,6.2291,6.0966,5.9681,5.9099,5.9099,5.9099,5.9099,5.9099,5.9099,5.9099,5.9099,5.9099,5.9099,5.9099,5.9099,5.9099,5.9099,5.9099,5.9099,5.9099,5.9099,5.9099,5.9099,5.9099,5.9099,5.9099,5.9099,5.9099,5.9099,5.9099,5.9099,5.9099,5.9099,5.8891,5.8682,5.8682,5.8457,5.8351,5.8622,5.8906,5.9011,5.8726,5.8906,5.9099,5.9099,5.9099,5.9099,5.9099,5.9099,5.9099,5.9099,5.9099,5.9099,5.9099,5.9099,5.9099,5.9099,5.8472,5.7799,5.7137,5.6521,5.588,5.5222,5.5207,5.5207,5.5207,5.5207,5.4756,5.3925,5.3925,5.3438,3.5526,3.6043,3.6725,3.727,3.8404,0.0,4.1005,4.1817,4.249,4.3203,4.3418,4.4278,4.6964,4.7986,4.9268,5.1773,5.1694,5.2506,5.5907,5.4772,5.4601,5.7297,5.8358,5.8921,5.8989,6.024,6.1119,6.1298,6.1985,6.2391,6.2391,6.2391,6.3084,6.4546,6.4597,6.5314,6.6785,6.6802,6.6235,6.5087,6.3678,6.2377,6.1167,5.9747,5.9099,5.9099,5.9099,5.9099,5.9099,5.9099,5.9099,5.9099,5.9099,5.9099,5.9099,5.9099,5.9099,5.9099,5.9099,5.9099,5.9099,5.9099,5.9099,5.9099,5.9099,5.9099,5.9099,5.9099,5.9099,5.9099,5.9099,5.9041,5.8994,5.8994,5.8487,5.798,5.798,5.7515,5.7259,5.7784,5.8412,5.8695,5.8098,5.8547,5.8994,5.8994,5.9054,5.9099,5.9099,5.9099,5.9099,5.9099,5.9099,5.9099,5.9099,5.9099,5.9069,5.8994,5.8367,5.7694,5.7032,5.6404,5.5818,5.5222,5.5207,5.5207,5.5207,5.5207,5.5207,5.5207,5.5207,5.5103,3.5654,3.6334,3.7246,3.7366,3.8404,0.0,4.0412,4.1109,4.2,4.341,4.4119,4.531,4.7946,4.8536,4.9256,5.1106,5.1129,5.1578,5.348,5.3662,5.4144,5.562,5.7171,5.8338,5.8938,5.9276,5.9953,6.1214,6.1985,6.2391,6.2391,6.2391,6.3084,6.4546,6.4597,6.5314,6.6785,6.6802,6.6669,6.6401,6.4103,6.2868,6.254,6.0165,5.9099,5.9099,5.9099,5.9099,5.9099,5.9099,5.9099,5.9099,5.9099,5.9099,5.9099,5.9099,5.9099,5.9099,5.9099,5.9099,5.9099,5.9099,5.9099,5.9099,5.9099,5.9099,5.9099,5.9099,5.9099,5.9099,5.9099,5.8697,5.8308,5.8308,5.7784,5.7304,5.7304,5.7184,5.7002,5.6628,5.7062,5.7453,5.7319,5.7844,5.8308,5.8308,5.8741,5.9099,5.9099,5.9099,5.9099,5.9099,5.9099,5.9099,5.9099,5.9099,5.8861,5.8338,5.7678,5.7032,5.6402,5.573,5.5341,5.5207,5.5207,5.5207,5.5207,5.5207,5.5207,5.5207,5.5207,5.4562,3.6626,3.6917,3.7471,3.7823,3.8407,0.0,0.0,4.0915,4.1855,4.3463,4.4335,4.5486,4.773,4.8454,4.9127,5.0439,5.0434,5.0643,5.174,5.2704,5.3644,5.459,5.6279,5.7492,5.7872,5.8566,5.9648,6.118,6.1637,6.2018,6.2374,6.2391,6.2905,6.4011,6.44,6.5138,6.6237,6.6616,6.6802,6.677,6.4218,6.3,6.2904,6.0283,5.9099,5.9099,5.9099,5.9099,5.9099,5.9099,5.9099,5.9099,5.9099,5.9099,5.9099,5.9099,5.9099,5.9099,5.9099,5.9099,5.9099,5.9099,5.9099,5.9099,5.9099,5.9099,5.9099,5.9099,5.9099,5.9011,5.8682,5.8353,5.8023,5.7679,5.7109,5.6643,5.6643,5.6389,5.606,5.576,5.5955,5.6269,5.6583,5.7169,5.759,5.759,5.8173,5.8607,5.8607,5.8891,5.9099,5.9099,5.9099,5.9099,5.9099,5.9099,5.8801,5.813,5.7468,5.6823,5.6222,5.5564,5.5207,5.5207,5.5207,5.5207,5.5207,5.5207,5.5207,5.5181,5.4445,5.3716,3.7808,3.7695,3.7875,3.8296,3.8505,3.8924,0.0,0.0,0.0,4.3787,4.4768,4.5858,4.7556,4.8365,4.8911,4.939,4.9633,4.9819,4.9944,5.1512,5.2964,5.378,5.5293,5.6416,5.6764,5.8126,5.953,6.0764,6.1119,6.1552,6.2154,6.2323,6.2736,6.3477,6.4214,6.4952,6.5689,6.643,6.6802,6.677,6.4218,6.3,6.2904,6.0283,5.9099,5.9099,5.9099,5.9099,5.9099,5.9099,5.9099,5.9099,5.9099,5.9099,5.9099,5.9099,5.9099,5.9099,5.9099,5.9099,5.9099,5.9099,5.9099,5.9099,5.9099,5.9099,5.9099,5.9099,5.9011,5.8786,5.8234,5.7919,5.759,5.7062,5.6449,5.6013,5.6013,5.5581,5.5207,5.5207,5.5207,5.5371,5.5908,5.6509,5.6928,5.6928,5.7498,5.795,5.8085,5.8577,5.8951,5.9099,5.9099,5.9099,5.9099,5.9099,5.8756,5.7964,5.7408,5.6763,5.6042,5.5491,5.5207,5.5207,5.5207,5.5207,5.5207,5.5207,5.5207,5.5181,5.3977,5.3268,3.8625,3.8712,3.9056,3.8535,3.8856,3.9535,4.0463,0.0,4.3152,4.4943,0.0,4.7597,4.8656,0.0,0.0,4.737,4.8789,4.9317,4.7202,4.9509,5.1832,5.2988,5.388,5.5042,5.6634,5.8126,5.9064,5.9259,6.0528,6.1349,6.1417,6.2042,6.2736,6.3477,6.4214,6.4952,6.5689,6.643,6.6802,6.677,6.4218,6.3,6.2904,6.0283,5.9099,5.9099,5.9099,5.9099,5.9099,5.9099,5.9099,5.9099,5.9099,5.9099,5.9099,5.9099,5.9099,5.9099,5.9099,5.9099,5.9099,5.9099,5.9099,5.9099,5.9099,5.9099,5.9099,5.9099,5.8667,5.819,5.8115,5.7259,5.6402,5.6327,5.5803,5.5311,5.5311,5.5251,5.5207,5.5207,5.5207,5.5222,5.5296,5.585,5.6297,5.6297,5.6823,5.7438,5.801,5.8173,5.8442,5.9039,5.9099,5.9099,5.9099,5.9099,5.856,5.7289,5.7139,5.6555,5.5356,5.5237,5.5207,5.5207,5.5207,5.5207,5.5207,5.5207,5.5207,5.5207,5.504,5.4237,4.04,4.074,4.1312,4.1015,4.157,4.2285,4.2646,4.3489,4.4557,4.5872,0.0,0.0,0.0,0.0,0.0,0.0,4.8857,4.9249,4.8635,4.9209,5.0199,5.1554,5.291,5.456,5.6611,5.7348,5.8075,5.8938,6.0003,6.0808,6.1281,6.2001,6.2543,6.2854,6.3572,6.4326,6.5053,6.5781,6.6389,6.6781,6.4969,6.3713,6.2928,6.1061,5.9798,5.9099,5.9099,5.9099,5.9099,5.9099,5.9099,5.9099,5.9099,5.9099,5.9099,5.9099,5.9099,5.9099,5.9099,5.9099,5.9099,5.9099,5.9099,5.9099,5.9099,5.9099,5.9099,5.9099,5.8622,5.801,5.762,5.6868,5.6102,5.57,5.5401,5.5207,5.5207,5.5207,5.5207,5.5207,5.5207,5.5207,5.5207,5.5431,5.5611,5.5611,5.6177,5.6673,5.6972,5.7304,5.7769,5.8442,5.8517,5.8682,5.9069,5.8741,5.8113,5.7154,5.6419,5.576,5.5222,5.5207,5.5207,5.5207,5.5207,5.5207,5.5207,5.5207,5.5207,5.5181,5.4329,5.3584,4.2609,4.2933,4.3416,4.3236,4.3703,4.4253,4.4494,4.5085,4.5837,4.6768,4.75,0.0,0.0,0.0,4.8866,4.846,0.0,4.9052,4.9178,4.8921,4.926,5.0728,5.2437,5.4203,5.6021,5.6562,5.723,5.8329,5.9276,6.0148,6.0926,6.1687,6.2188,6.2391,6.3115,6.3859,6.4597,6.5334,6.6068,6.6781,6.5498,6.4225,6.2952,6.1609,6.0289,5.9099,5.9099,5.9099,5.9099,5.9099,5.9099,5.9099,5.9099,5.9099,5.9099,5.9099,5.9099,5.9099,5.9099,5.9099,5.9099,5.9099,5.9099,5.9099,5.9099,5.9099,5.9069,5.8876,5.8338,5.7679,5.7032,5.6389,5.5803,5.5311,5.5207,5.5207,5.5207,5.5207,5.5207,5.5207,5.5207,5.5207,5.5207,5.5207,5.5207,5.5207,5.5611,5.5998,5.6177,5.6568,5.7094,5.7754,5.7829,5.8023,5.8515,5.8113,5.7558,5.6898,5.582,5.5207,5.5207,5.5207,5.5207,5.5207,5.5207,5.5207,5.5207,5.5207,5.5207,5.5181,5.4108,5.3597,4.5267,4.511,4.496,4.4321,4.417,4.4411,4.5264,4.6031,4.68,4.7673,4.8448,4.8963,4.8994,4.8994,4.8528,0.0,4.8071,0.0,0.0,4.8116,4.953,5.1,5.2562,5.3805,5.4592,5.5953,5.6816,5.6867,5.8228,5.9361,6.0097,6.0909,6.1653,6.2374,6.3115,6.3859,6.4597,6.5334,6.6068,6.6781,6.5498,6.4225,6.2952,6.1609,6.0289,5.9099,5.9099,5.9099,5.9099,5.9099,5.9099,5.9099,5.9099,5.9099,5.9099,5.9099,5.9099,5.9099,5.9099,5.9099,5.9099,5.9099,5.9099,5.9099,5.9099,5.9099,5.8951,5.8309,5.7649,5.6987,5.6387,5.573,5.5237,5.5207,5.5207,5.5207,5.5207,5.5207,5.5207,5.5207,5.5207,5.5207,5.5207,5.5207,5.5207,5.5207,5.5222,5.5461,5.6117,5.6222,5.6462,5.7077,5.7124,5.7139,5.7154,5.7139,5.6868,5.6267,5.5581,5.5207,5.5207,5.5207,5.5207,5.5207,5.5207,5.5207,5.5207,5.5207,5.5207,5.5207,5.5141,5.5128,0.0,0.0,4.7457,4.7229,4.7284,4.7443,4.7751,4.8007,4.8262,4.8568,4.8825,4.8994,4.8994,4.8994,4.8849,4.8342,0.0,4.8832,0.0,4.8697,4.9373,5.0355,5.1361,5.2477,5.3754,5.4752,5.575,5.6731,5.8177,5.9327,6.0063,6.0849,6.1637,6.2374,6.2644,6.3362,6.4597,6.485,6.5595,6.6791,6.6369,6.5048,6.2976,6.2524,6.1137,5.9099,5.9099,5.9099,5.9099,5.9099,5.9099,5.9099,5.9099,5.9099,5.9099,5.9099,5.9099,5.9099,5.9099,5.9099,5.9099,5.9099,5.9099,5.9099,5.9099,5.8786,5.8397,5.816,5.7334,5.6462,5.6252,5.57,5.5207,5.5207,5.5207,5.5207,5.5207,5.5207,5.5207,5.5207,5.5207,5.5207,5.5207,5.5207,5.5207,5.5207,5.5207,5.5281,5.5506,5.5536,5.579,5.6447,5.6494,5.6671,5.7077,5.6733,5.6237,5.5581,5.5326,5.5207,5.5207,5.5207,5.5207,5.5207,5.5207,5.5207,5.5207,5.5207,5.5207,5.5207,5.5207,5.5207,4.9408,4.9494,0.0,4.9593,4.9686,0.0,4.9789,4.9789,4.9789,4.9789,4.9569,4.939,4.939,4.9187,4.8994,4.8994,0.0,0.0,0.0,4.8994,4.9187,4.9644,5.0355,5.142,5.2934,5.3754,5.482,5.63,5.7534,5.865,5.9665,6.0452,6.1214,6.1985,6.2255,6.2983,6.4197,6.4478,6.5205,6.6406,6.6667,6.5696,6.3654,6.3204,6.1828,5.976,5.93,5.9099,5.9099,5.9099,5.9099,5.9099,5.9099,5.9099,5.9099,5.9099,5.9099,5.9099,5.9099,5.9099,5.9099,5.9099,5.9099,5.9099,5.9099,5.8637,5.81,5.81,5.7184,5.6192,5.6192,5.57,5.5207,5.5207,5.5207,5.5207,5.5207,5.5207,5.5207,5.5207,5.5207,5.5207,5.5207,5.5207,5.5207,5.5207,5.5207,5.5207,5.5207,5.5207,5.5371,5.5803,5.5835,5.6,5.6389,5.606,5.5656,5.5237,5.5207,5.5207,5.5207,5.5207,5.5102,5.485,5.5087,5.5074,5.4835,5.5074,5.5207,5.5207,5.5207,5.5207]},{"header":{"parameterUnit":"m.s-1","parameterCategory":1,"la1":30.6,"la2":29.2853,"lo1":-89.7004,"lo2":-87.6739,"dx":0.0162,"dy":0.0183,"nx":112,"ny":82,"refTime":"2022-12-16T18:00:00:Z","depth":0,"parameterNumber":3,"parameterNumberName":"V-component_of_WINDS"},"data":[0.0,0.0,0.0,0.0,0.0,0.0,0.0,0.0,0.0,0.0,0.0,0.0,0.0,0.0,0.0,0.0,0.0,0.0,0.0,0.0,0.0,0.0,0.0,0.0,0.0,0.0,0.0,0.0,0.0,0.0,0.0,0.0,0.0,0.0,0.0,0.0,0.0,0.0,0.0,0.0,0.0,0.0,0.0,0.0,0.0,0.0,0.0,0.0,0.0,0.0,0.0,0.0,0.0,0.0,0.0,0.0,0.0,0.0,0.0,0.0,0.0,0.0,0.0,0.0,0.0,0.0,0.0,0.0,0.0,0.0,0.0,0.0,0.0,0.0,0.0,0.0,0.0,0.0,0.0,0.0,0.0,0.0,0.0,0.0,0.0,0.0,0.0,0.0,0.0,0.0,1.7419,1.7487,1.7803,1.7999,1.7999,1.7999,1.7843,1.7508,0.0,0.0,0.0,0.0,0.0,0.0,0.0,0.0,0.0,0.0,0.0,0.0,0.0,0.0,0.0,0.0,0.0,0.0,0.0,0.0,0.0,0.0,0.0,0.0,0.0,0.0,0.0,0.0,0.0,0.0,0.0,0.0,0.0,0.0,0.0,0.0,0.0,0.0,0.0,0.0,0.0,0.0,0.0,0.0,0.0,0.0,0.0,0.0,0.0,0.0,0.0,0.0,0.0,0.0,0.0,0.0,0.0,0.0,0.0,0.0,0.0,0.0,0.0,0.0,0.0,0.0,0.0,0.0,0.0,0.0,0.0,0.0,0.0,0.0,0.0,0.0,0.0,0.0,0.0,0.0,0.0,0.0,0.0,0.0,0.0,0.0,0.0,0.0,0.0,0.0,0.0,0.0,0.0,0.0,0.0,0.0,0.0,0.0,0.0,0.0,0.0,0.0,0.0,0.0,1.7528,1.7872,1.796,1.7999,1.7999,1.7999,1.797,1.7911,0.0,0.0,0.0,0.0,0.0,0.0,0.0,0.0,0.0,0.0,0.0,0.0,0.0,0.0,0.0,0.0,0.0,0.0,0.0,0.0,0.0,0.0,0.0,0.0,0.0,0.0,0.0,0.0,0.0,0.0,0.0,0.0,0.0,0.0,0.0,0.0,0.0,0.0,0.0,0.0,0.0,0.0,0.0,0.0,0.0,0.0,0.0,0.0,0.0,0.0,0.0,0.0,0.0,0.0,0.0,0.0,0.0,0.0,0.0,0.0,0.0,0.0,0.0,0.0,0.0,0.0,0.0,0.0,0.0,0.0,0.0,0.0,0.0,0.0,0.0,0.0,0.0,0.0,0.0,0.0,0.0,0.0,0.0,0.0,0.0,0.0,0.0,0.0,0.0,0.0,0.0,0.0,0.0,0.0,0.0,0.0,0.0,0.0,0.0,0.0,0.0,0.0,0.0,1.7786,1.8118,1.8313,1.8546,1.8701,1.8701,1.8469,1.8324,1.8324,1.7532,0.0,0.0,0.0,0.0,0.0,0.0,0.0,0.0,0.0,0.0,0.0,0.0,0.0,0.0,0.0,0.0,0.0,0.0,0.0,0.0,0.0,0.0,0.0,0.0,0.0,0.0,0.0,0.0,0.0,0.0,0.0,0.0,0.0,0.0,0.0,0.0,0.0,0.0,0.0,0.0,0.0,0.0,0.0,0.0,0.0,0.0,0.0,0.0,0.0,0.0,0.0,0.0,0.0,0.0,0.0,0.0,0.0,0.0,0.0,0.0,0.0,0.0,0.0,0.0,0.0,0.0,0.0,0.0,0.0,0.0,0.0,0.0,0.0,0.0,0.0,0.0,0.0,0.0,0.0,0.0,0.0,0.0,0.0,0.0,0.0,0.0,0.0,0.0,0.0,0.0,0.0,0.0,0.0,0.0,0.0,0.0,0.0,0.0,0.0,0.0,0.0,0.0,1.8411,1.8637,1.8753,1.9092,1.9296,1.9296,1.8975,1.8723,1.8607,1.8029,0.0,0.0,0.0,0.0,0.0,0.0,0.0,0.0,0.0,0.0,0.0,0.0,0.0,0.0,0.0,0.0,0.0,0.0,0.0,0.0,0.0,0.0,0.0,0.0,0.0,0.0,0.0,0.0,0.0,0.0,0.0,0.0,0.0,0.0,0.0,0.0,0.0,0.0,0.0,0.0,0.0,0.0,0.0,0.0,0.0,0.0,0.0,0.0,0.0,0.0,0.0,0.0,0.0,0.0,0.0,0.0,0.0,0.0,0.0,0.0,0.0,0.0,0.0,0.0,0.0,0.0,0.0,0.0,0.0,0.0,0.0,0.0,0.0,0.0,0.0,0.0,0.0,0.0,0.0,0.0,0.0,0.0,0.0,0.0,0.0,0.0,0.0,0.0,0.0,0.0,0.0,0.0,0.0,0.0,0.0,0.0,0.0,0.0,0.0,0.0,0.0,0.0,1.8588,1.8771,1.9199,1.9277,1.9296,1.9296,1.9267,1.9063,1.8627,1.8558,0.0,0.0,0.0,0.0,0.0,0.0,0.0,0.0,0.0,0.0,0.0,0.0,0.0,0.0,0.0,0.0,0.0,0.0,0.0,0.0,0.0,0.0,0.0,0.0,0.0,0.0,0.0,0.0,0.0,0.0,0.0,0.0,0.0,0.0,0.0,0.0,0.0,0.0,0.0,0.0,0.0,0.0,0.0,0.0,0.0,0.0,0.0,0.0,0.0,0.0,0.0,0.0,0.0,0.0,0.0,0.0,0.0,0.0,0.0,0.0,0.0,0.0,0.0,0.0,0.0,0.0,0.0,0.0,0.0,0.0,0.0,0.0,0.0,0.0,0.0,0.0,0.0,0.0,0.0,0.0,0.0,0.0,0.0,0.0,0.0,0.0,0.0,0.0,0.0,0.0,0.0,0.0,0.0,0.0,0.0,0.0,0.0,0.0,0.0,0.0,0.0,0.0,1.9074,1.9483,1.9668,1.9941,2.0116,2.0116,1.9843,1.9483,1.9063,0.0,0.0,0.0,0.0,0.0,0.0,0.0,0.0,0.0,0.0,0.0,0.0,0.0,0.0,0.0,0.0,0.0,0.0,0.0,0.0,0.0,0.0,0.0,0.0,0.0,0.0,0.0,0.0,0.0,0.0,0.0,0.0,0.0,0.0,0.0,0.0,0.0,0.0,0.0,0.0,0.0,0.0,0.0,0.0,0.0,0.0,0.0,0.0,0.0,0.0,0.0,0.0,0.0,0.0,0.0,0.0,0.0,0.0,0.0,0.0,0.0,0.0,0.0,0.0,0.0,0.0,0.0,0.0,0.0,0.0,0.0,0.0,0.0,0.0,0.0,0.0,0.0,0.0,0.0,0.0,0.0,0.0,0.0,0.0,0.0,0.0,0.0,0.0,0.0,0.0,0.0,0.0,0.0,0.0,0.0,0.0,0.0,0.0,0.0,0.0,0.0,0.0,1.8771,1.9454,1.9961,2.0117,2.041,2.0605,2.0605,2.0312,1.9941,1.9512,0.0,0.0,0.0,0.0,0.0,0.0,0.0,0.0,0.0,0.0,0.0,0.0,0.0,0.0,0.0,0.0,0.0,0.0,0.0,0.0,0.0,0.0,0.0,0.0,0.0,0.0,0.0,0.0,0.0,0.0,0.0,0.0,0.0,0.0,0.0,0.0,0.0,0.0,0.0,0.0,0.0,0.0,0.0,0.0,0.0,0.0,0.0,0.0,0.0,0.0,0.0,0.0,0.0,0.0,0.0,0.0,0.0,0.0,0.0,0.0,0.0,0.0,0.0,0.0,0.0,0.0,0.0,0.0,0.0,0.0,0.0,0.0,0.0,0.0,0.0,0.0,0.0,0.0,0.0,0.0,0.0,0.0,0.0,0.0,0.0,0.0,0.0,0.0,0.0,0.0,0.0,0.0,0.0,0.0,0.0,0.0,0.0,0.0,0.0,0.0,0.0,0.0,1.9247,1.9668,2.0088,2.0547,2.0605,2.0605,2.0605,2.0605,2.04,0.0,0.0,0.0,0.0,0.0,0.0,0.0,0.0,0.0,0.0,0.0,0.0,0.0,0.0,0.0,0.0,0.0,0.0,0.0,0.0,0.0,0.0,0.0,0.0,0.0,0.0,0.0,0.0,0.0,0.0,0.0,0.0,0.0,0.0,0.0,0.0,0.0,0.0,0.0,0.0,0.0,0.0,0.0,0.0,0.0,0.0,0.0,0.0,0.0,0.0,0.0,0.0,0.0,0.0,0.0,0.0,0.0,0.0,0.0,0.0,0.0,0.0,0.0,0.0,0.0,0.0,0.0,0.0,0.0,0.0,0.0,0.0,0.0,0.0,0.0,0.0,0.0,0.0,0.0,0.0,0.0,0.0,0.0,0.0,0.0,0.0,0.0,0.0,0.0,0.0,0.0,0.0,0.0,0.0,0.0,0.0,0.0,0.0,0.0,0.0,0.0,0.0,0.0,1.9678,2.0117,2.0449,2.0595,2.0605,2.0605,2.0605,2.0605,2.04,1.9932,0.0,0.0,0.0,0.0,0.0,0.0,0.0,0.0,0.0,0.0,0.0,0.0,0.0,0.0,0.0,0.0,0.0,0.0,0.0,0.0,0.0,0.0,0.0,0.0,0.0,0.0,0.0,0.0,0.0,0.0,0.0,0.0,0.0,0.0,0.0,0.0,0.0,0.0,0.0,0.0,0.0,0.0,0.0,0.0,0.0,0.0,0.0,0.0,0.0,0.0,0.0,0.0,0.0,0.0,0.0,0.0,0.0,0.0,0.0,0.0,0.0,0.0,0.0,0.0,0.0,0.0,0.0,0.0,0.0,0.0,0.0,0.0,0.0,0.0,0.0,0.0,0.0,0.0,0.0,0.0,0.0,0.0,0.0,0.0,0.0,0.0,0.0,0.0,0.0,0.0,0.0,0.0,0.0,0.0,0.0,0.0,0.0,0.0,0.0,0.0,0.0,0.0,1.9873,2.0312,2.0605,2.0605,2.0605,2.0605,2.0605,2.0605,2.0478,2.0205,0.0,0.0,0.0,0.0,0.0,0.0,0.0,0.0,0.0,0.0,0.0,0.0,0.0,0.0,0.0,0.0,0.0,0.0,0.0,0.0,0.0,0.0,0.0,0.0,0.0,0.0,0.0,0.0,0.0,0.0,0.0,0.0,0.0,0.0,0.0,0.0,0.0,0.0,0.0,0.0,0.0,0.0,0.0,0.0,0.0,0.0,0.0,0.0,0.0,0.0,0.0,0.0,0.0,0.0,0.0,0.0,0.0,0.0,0.0,0.0,0.0,0.0,0.0,0.0,0.0,0.0,0.0,0.0,0.0,0.0,0.0,0.0,0.0,0.0,0.0,0.0,0.0,0.0,0.0,0.0,0.0,0.0,0.0,0.0,0.0,0.0,0.0,0.0,0.0,0.0,0.0,0.0,0.0,0.0,0.0,0.0,0.0,0.0,0.0,0.0,0.0,0.0,2.001,2.039,2.0674,2.0713,2.0713,2.0713,2.0713,2.0713,2.0693,2.0664,0.0,0.0,0.0,0.0,0.0,0.0,0.0,0.0,0.0,0.0,0.0,0.0,0.0,0.0,0.0,0.0,0.0,0.0,0.0,0.0,0.0,0.0,0.0,0.0,0.0,0.0,0.0,0.0,0.0,0.0,0.0,0.0,0.0,0.0,0.0,0.0,0.0,0.0,0.0,0.0,0.0,0.0,0.0,0.0,0.0,0.0,0.0,0.0,0.0,0.0,0.0,0.0,0.0,0.0,0.0,0.0,0.0,0.0,0.0,0.0,1.9599,1.9296,0.0,0.0,0.0,0.0,0.0,0.0,0.0,0.0,0.0,0.0,0.0,0.0,0.0,0.0,0.0,0.0,0.0,0.0,0.0,0.0,0.0,0.0,0.0,0.0,0.0,0.0,0.0,0.0,0.0,0.0,0.0,0.0,0.0,0.0,0.0,0.0,0.0,0.0,0.0,0.0,2.083,2.1005,2.1211,2.1582,2.1622,2.1622,2.1622,2.1622,2.1465,2.1103,2.0976,0.0,0.0,0.0,0.0,0.0,0.0,0.0,0.0,0.0,0.0,0.0,0.0,0.0,0.0,0.0,0.0,0.0,0.0,0.0,0.0,0.0,0.0,0.0,0.0,0.0,0.0,0.0,0.0,0.0,0.0,0.0,0.0,0.0,0.0,0.0,0.0,0.0,0.0,0.0,0.0,0.0,0.0,0.0,0.0,0.0,0.0,0.0,0.0,0.0,0.0,0.0,0.0,0.0,0.0,0.0,0.0,0.0,0.0,0.0,2.0126,1.9921,0.0,0.0,0.0,0.0,0.0,0.0,0.0,0.0,0.0,0.0,0.0,0.0,0.0,0.0,0.0,0.0,0.0,0.0,0.0,0.0,0.0,0.0,0.0,0.0,0.0,0.0,0.0,0.0,0.0,0.0,0.0,0.0,0.0,0.0,0.0,0.0,0.0,0.0,0.0,0.0,2.1455,2.1543,2.163,2.1876,2.1895,2.1895,2.1895,2.1895,2.1797,2.1552,2.1543,0.0,0.0,0.0,0.0,0.0,0.0,0.0,0.0,0.0,0.0,0.0,0.0,0.0,0.0,0.0,0.0,0.0,0.0,0.0,0.0,0.0,0.0,0.0,0.0,0.0,0.0,0.0,0.0,0.0,0.0,0.0,0.0,0.0,0.0,0.0,0.0,0.0,0.0,0.0,0.0,0.0,0.0,0.0,0.0,0.0,0.0,0.0,0.0,0.0,0.0,0.0,0.0,0.0,2.0683,2.0771,2.083,2.1026,2.0997,2.085,2.1231,2.1189,2.0838,2.0742,0.0,0.0,0.0,0.0,0.0,0.0,0.0,0.0,0.0,0.0,0.0,0.0,0.0,0.0,0.0,0.0,0.0,0.0,0.0,0.0,0.0,0.0,2.1599,2.1435,2.1406,2.1147,2.0229,0.0,0.0,0.0,0.0,0.0,0.0,0.0,0.0,0.0,0.0,0.0,2.2041,2.212,2.2189,2.2325,2.2344,2.2344,2.2344,2.2344,2.2276,2.214,2.213,2.1885,0.0,0.0,0.0,0.0,0.0,0.0,0.0,0.0,0.0,0.0,0.0,0.0,0.0,0.0,0.0,0.0,0.0,0.0,0.0,0.0,0.0,0.0,0.0,0.0,0.0,0.0,0.0,0.0,0.0,0.0,0.0,0.0,2.3101,2.3095,0.0,0.0,0.0,0.0,0.0,0.0,0.0,0.0,0.0,0.0,0.0,0.0,0.0,2.1403,2.31,2.1441,2.0594,2.0614,2.1066,2.1451,2.176,2.2692,2.2604,2.1842,2.376,0.0,2.1775,2.1312,0.0,0.0,0.0,0.0,0.0,0.0,0.0,0.0,0.0,0.0,0.0,0.0,0.0,0.0,0.0,0.0,0.0,0.0,0.0,0.0,0.0,0.0,2.5594,2.4795,2.4591,2.4295,0.0,2.1888,2.1074,2.1475,2.1553,0.0,0.0,0.0,0.0,0.0,0.0,0.0,2.2839,2.2988,2.3293,2.4004,2.4071,2.4071,2.4071,2.4071,2.3769,2.307,2.3031,2.2658,2.1846,2.1807,0.0,0.0,0.0,0.0,0.0,0.0,0.0,0.0,0.0,0.0,0.0,0.0,0.0,0.0,0.0,0.0,0.0,0.0,0.0,0.0,0.0,0.0,0.0,0.0,0.0,0.0,0.0,0.0,0.0,2.4203,2.5009,2.5007,2.5886,2.6499,0.0,0.0,0.0,0.0,0.0,0.0,0.0,0.0,0.0,2.645,2.4818,2.4313,2.518,2.4939,2.5138,2.5749,2.425,2.391,2.459,2.4498,2.42,2.3804,2.4781,2.5157,2.4958,2.3219,2.3415,2.4721,0.0,0.0,0.0,0.0,2.5785,2.659,2.659,2.7264,2.81,2.81,0.0,0.0,0.0,0.0,0.0,0.0,0.0,2.7007,2.6605,2.6597,2.6607,2.6201,2.6103,2.5839,2.4891,2.4147,2.3325,0.0,2.1895,2.1895,2.1895,0.0,0.0,0.0,0.0,2.3174,2.3757,2.3856,2.4004,2.4363,2.4402,2.4402,2.4402,2.4402,2.4246,2.3908,2.3867,2.3497,2.2679,2.2629,2.2591,0.0,0.0,0.0,0.0,0.0,0.0,0.0,0.0,0.0,0.0,0.0,0.0,0.0,0.0,0.0,0.0,0.0,0.0,0.0,0.0,0.0,0.0,0.0,0.0,0.0,0.0,0.0,0.0,2.5433,2.6507,2.6501,2.6506,2.6502,0.0,0.0,0.0,0.0,0.0,0.0,2.6499,2.6504,2.6498,2.6496,2.6502,2.6766,2.7336,2.8144,2.8814,2.9333,2.6982,2.6339,2.7193,2.663,2.6216,2.5976,2.6543,2.7288,2.7892,2.5339,2.5193,2.6478,2.5508,2.5804,2.6789,2.6789,2.7228,2.7828,2.7828,2.8323,2.8941,2.8941,2.885,2.8765,2.89,0.0,0.0,0.0,0.0,2.8494,2.8494,2.8243,2.7976,2.7976,2.7976,2.7742,2.6863,2.6671,2.5851,0.0,2.2539,2.2539,2.2539,0.0,0.0,2.3385,2.3729,2.4141,2.4676,2.4732,2.4822,2.5047,2.5066,2.5066,2.5066,2.5066,2.4978,2.4742,2.4732,2.4363,2.3538,2.3821,2.4006,2.404,0.0,0.0,0.0,0.0,0.0,0.0,0.0,0.0,0.0,0.0,0.0,0.0,0.0,0.0,0.0,0.0,0.0,0.0,0.0,0.0,0.0,0.0,0.0,0.0,0.0,0.0,0.0,0.0,0.0,2.6505,2.6508,0.0,0.0,0.0,0.0,2.6498,2.6503,2.6496,2.6505,2.6505,2.6505,2.6499,2.6499,2.7507,2.9613,2.97,2.9202,2.8177,2.7831,2.8005,2.862,2.9276,2.8973,2.8074,3.0179,3.0546,2.9518,2.7336,2.7978,3.0261,2.9697,3.0139,3.1091,3.1091,3.1121,3.1162,3.1162,3.1192,3.1233,3.1233,3.0896,3.0573,3.1072,3.0884,0.0,0.0,3.1215,3.1199,3.1199,3.1181,3.1166,3.1166,3.1166,3.0879,2.9831,2.9589,2.853,0.0,2.4264,2.4264,2.4264,0.0,2.4303,2.4334,2.4342,2.4674,2.552,2.5628,2.5949,2.6784,2.6872,2.6872,2.6872,2.6872,2.6518,2.5686,2.5628,2.5249,2.4383,2.5502,2.5934,2.5505,2.617,0.0,0.0,0.0,0.0,0.0,0.0,0.0,0.0,0.0,0.0,0.0,0.0,0.0,0.0,0.0,0.0,0.0,0.0,0.0,0.0,0.0,0.0,0.0,0.0,0.0,0.0,0.0,0.0,2.6491,2.6505,0.0,2.6499,2.65,2.6506,2.6499,2.7817,2.8617,2.8625,2.8625,2.8625,2.8625,2.8625,2.9,2.9793,2.9799,2.9601,2.9193,2.9112,2.9706,3.0823,3.0832,3.0611,3.0287,3.1333,3.1626,3.1327,3.0941,3.0909,3.1021,3.0141,3.0465,3.1396,3.1396,3.1396,3.1396,3.1396,3.1396,3.1396,3.1396,3.1271,3.1148,3.1346,3.1512,3.1677,3.1853,3.2441,3.3006,3.3006,3.3258,3.3522,3.3522,3.3522,3.3203,3.2047,3.1788,3.1166,2.9062,2.7219,2.6118,2.6455,2.6058,2.5684,2.5684,2.5918,2.6189,2.6498,2.6537,2.6667,2.697,2.6999,2.6999,2.6999,2.6999,2.6872,2.6557,2.6537,2.6286,2.5713,2.6619,2.7256,2.7535,2.827,2.894,0.0,0.0,0.0,0.0,0.0,0.0,0.0,0.0,0.0,0.0,0.0,0.0,0.0,0.0,0.0,0.0,0.0,0.0,0.0,0.0,0.0,0.0,0.0,0.0,0.0,2.6501,2.6498,2.6498,2.6494,2.6789,2.7535,2.7608,2.7609,2.761,2.897,2.9801,2.9794,2.9792,2.9809,2.9809,2.9802,3.0158,3.0916,3.0914,3.0911,3.0911,3.091,3.1218,3.1795,3.1916,3.2103,3.2358,3.263,3.2854,3.3072,3.347,3.3194,3.2429,3.1735,3.1885,3.2516,3.2516,3.2516,3.2516,3.2516,3.2516,3.2516,3.2516,3.2516,3.2516,3.2516,3.2756,3.3034,3.3034,3.3585,3.4162,3.4162,3.4427,3.4703,3.4703,3.4703,3.4487,3.3685,3.35,3.3318,3.2653,2.986,2.772,2.8076,2.7286,2.6602,2.6602,2.6823,2.7057,2.7217,2.7236,2.7295,2.7419,2.7441,2.7441,2.7441,2.7441,2.737,2.7246,2.7236,2.7248,2.7282,2.8196,2.9136,3.0034,3.0802,3.1162,3.115,0.0,0.0,0.0,0.0,0.0,0.0,0.0,0.0,0.0,0.0,0.0,0.0,0.0,0.0,0.0,0.0,0.0,0.0,0.0,0.0,0.0,0.0,0.0,2.6498,2.6504,2.653,2.659,2.6598,2.7449,2.9595,2.9808,2.9803,2.9801,2.9804,2.9821,2.9893,2.9898,2.9904,2.9904,2.9894,3.0925,3.3087,3.31,3.3103,3.3095,3.3097,3.2522,3.1496,3.2671,3.3583,3.4244,3.4256,3.4432,3.4703,3.4715,3.4728,3.4728,3.4703,3.4703,3.4703,3.4703,3.4703,3.4703,3.4703,3.4703,3.4703,3.4703,3.4703,3.4703,3.4703,3.4703,3.4728,3.4728,3.4741,3.4753,3.4753,3.4753,3.4753,3.4753,3.4753,3.4753,3.4753,3.4753,3.4904,3.5432,3.209,2.9171,2.9171,2.8051,2.7166,2.7166,2.7166,0.0,2.7783,2.7816,2.7924,2.8322,2.8318,2.8318,2.8358,2.8318,2.8168,2.7862,2.7793,2.8171,2.9068,3.0314,3.1602,3.2932,3.3591,3.3382,3.2279,0.0,0.0,0.0,0.0,0.0,0.0,0.0,0.0,0.0,0.0,0.0,0.0,0.0,0.0,0.0,0.0,0.0,0.0,0.0,0.0,0.0,2.6496,2.6507,2.6496,2.6501,2.7098,2.8696,2.8883,2.9129,2.9745,2.9799,2.98,2.9803,2.9792,3.0495,3.2112,3.2187,3.2184,3.2184,3.2189,3.2483,3.3092,3.3097,3.3098,3.3094,3.3104,3.2941,3.2695,3.4624,3.5306,3.5033,3.5554,3.5376,3.4728,3.5118,3.527,3.5232,3.4853,3.4703,3.4703,3.4703,3.4703,3.4703,3.4703,3.4703,3.4703,3.4703,3.4703,3.4703,3.4703,3.4968,3.527,3.527,3.5593,3.5929,3.5929,3.5929,3.5929,3.5929,3.5929,3.5929,3.5929,3.5929,3.5979,3.6118,3.4402,3.2925,3.2925,3.1764,3.0848,3.0848,3.0848,3.0889,3.1019,3.0193,2.9631,2.9731,2.8873,2.8698,2.9673,2.886,2.9078,3.0924,3.0126,3.0128,3.1339,3.2289,3.3232,3.4179,3.4382,3.4338,0.0,0.0,0.0,0.0,0.0,0.0,0.0,0.0,0.0,0.0,0.0,0.0,0.0,0.0,0.0,0.0,0.0,0.0,0.0,0.0,0.0,0.0,2.7279,2.7875,2.7874,2.7872,2.8362,2.9647,2.9802,2.9803,2.9801,3.0638,3.1181,3.1184,3.1178,3.1738,3.3026,3.3103,3.3098,3.3098,3.3095,3.3099,3.31,3.4027,3.4482,3.4491,3.4491,3.4474,3.4534,3.5815,3.6168,3.5786,3.6205,3.6025,3.5441,3.5743,3.5881,3.5844,0.0,0.0,0.0,0.0,3.5416,3.5416,3.5416,3.5416,3.5416,3.5416,3.5416,3.5416,3.5416,3.5629,3.5881,3.5881,3.6131,3.6393,3.6393,3.6393,3.6393,3.6393,3.6393,3.6393,3.6393,3.6393,3.6393,3.6393,3.5948,0.0,3.5564,3.3753,3.2293,3.2293,3.2293,3.2293,3.2293,3.162,3.1135,3.1135,3.0447,3.0292,3.1071,3.0411,0.0,0.0,0.0,3.176,3.313,3.4173,0.0,0.0,0.0,3.5279,3.503,3.503,0.0,0.0,3.297,3.3083,0.0,0.0,0.0,0.0,0.0,0.0,0.0,0.0,0.0,0.0,0.0,0.0,0.0,0.0,0.0,0.0,2.8515,2.9805,2.9801,3.0015,3.0085,2.9831,3.0017,3.0168,3.017,3.1952,3.3101,3.3106,3.3096,3.3098,3.3092,3.3101,0.0,0.0,0.0,3.3462,3.3465,3.5418,3.6396,3.64,3.64,3.6406,3.6399,3.6399,3.6399,3.6393,3.6393,3.6393,3.6393,3.6393,3.6393,3.6393,3.6393,3.6393,3.6393,3.6393,3.6393,3.6393,3.6393,0.0,0.0,3.6393,3.6393,3.6393,3.6393,3.6393,3.6393,3.6393,3.6443,3.6494,3.6494,3.6544,3.6582,3.6582,3.6582,3.6582,3.6582,3.6582,3.6582,3.6582,3.6972,3.7286,3.7286,3.4875,3.294,3.294,3.294,3.294,3.294,3.2815,3.2714,3.2714,3.2587,0.0,3.2701,3.2587,3.2625,3.2928,3.294,3.3503,3.476,3.5886,3.6494,3.6494,3.6431,3.6131,3.5607,3.5607,3.5356,3.489,3.4816,3.4791,0.0,0.0,0.0,0.0,0.0,0.0,0.0,0.0,0.0,0.0,0.0,0.0,0.0,0.0,0.0,2.9163,2.9526,2.9798,2.9808,3.1333,3.1807,3.0011,3.1382,3.2462,3.2461,3.2851,3.3098,3.3103,3.3106,3.3102,3.3108,3.3098,3.3919,3.5708,3.5762,3.5758,3.5762,3.6193,3.6397,3.6405,3.6405,0.0,3.64,3.64,3.6402,3.6393,3.6393,3.6393,3.6393,3.6393,3.6393,3.6393,3.6393,3.6393,3.6393,3.6393,3.6393,3.6393,3.6393,3.6393,3.6393,3.6393,3.6393,3.6393,3.6393,3.6393,0.0,3.6393,3.6708,3.7047,3.7047,3.7374,3.7688,3.7688,3.7688,3.7688,3.7688,3.7688,3.7688,3.7688,3.7776,3.7852,3.7852,3.732,3.6899,3.6899,3.6899,3.6899,3.6899,3.5951,3.5282,3.5282,3.4311,3.4105,3.5193,3.4286,3.4593,3.6763,3.6899,3.7023,3.7295,3.714,3.7047,3.7047,3.6619,3.6343,3.623,3.623,3.6168,3.6055,3.5569,3.5356,0.0,0.0,0.0,0.0,0.0,0.0,0.0,0.0,0.0,0.0,0.0,2.9253,3.2845,0.0,3.0426,3.2338,3.1051,3.0194,3.1301,3.2408,3.2697,3.1578,3.2427,3.3098,3.3106,3.3102,3.3098,3.3098,3.4124,3.4754,3.4749,3.4754,3.526,3.6369,3.6396,3.6399,3.6402,3.6402,3.6407,3.6393,3.6393,3.6393,3.6393,3.6393,3.6393,3.6393,3.6393,3.6393,3.6418,3.6695,3.6796,3.6833,3.7097,3.6871,3.6393,3.6393,3.6393,3.6443,3.6707,3.6796,3.6846,3.711,3.7198,3.7198,3.7198,3.7198,3.7198,3.7198,3.7387,3.76,3.76,3.7801,3.799,3.799,3.799,3.799,3.799,3.799,3.799,3.799,3.8241,3.8454,3.8454,3.8668,3.8655,3.809,3.799,3.799,3.799,3.7431,3.7007,3.7007,3.6403,3.6276,3.6932,3.639,3.6567,3.7916,3.799,3.799,3.799,3.7739,3.76,3.76,3.7336,3.7198,3.7198,3.7198,3.7198,3.7186,3.6885,3.6459,0.0,0.0,0.0,0.0,0.0,0.0,0.0,2.9605,2.8121,3.1576,3.0965,3.0964,3.4803,3.2377,3.1226,3.5554,3.2991,3.1053,3.2852,3.3102,3.3102,3.3102,3.3104,3.3102,3.3092,3.3491,3.3738,3.3735,3.5387,3.6402,3.6396,3.6389,3.6402,3.6402,3.6397,3.6393,3.6393,3.6393,3.6393,3.6393,3.6393,3.6393,3.6393,3.6393,3.6393,3.6406,3.6555,3.6704,3.6855,3.721,3.7362,3.7399,3.7839,3.7475,3.6708,3.6708,3.6708,3.6771,3.7211,3.7362,3.7424,3.7864,3.799,3.799,3.799,3.799,3.799,3.799,3.809,3.8165,3.8165,3.8253,3.8329,3.8329,3.8329,3.8329,3.8329,3.8329,3.8329,3.8329,3.8806,3.9208,3.9208,3.966,3.9634,3.8504,3.8329,3.8329,3.8329,3.8329,3.8329,3.8329,3.8329,3.8329,3.8329,3.8329,3.8329,3.8329,3.8329,3.8329,3.8329,3.8228,3.8165,3.8165,3.8065,3.799,3.799,3.799,3.799,3.799,3.799,3.7537,2.6508,2.6498,2.6598,2.6975,2.6787,2.7993,0.0,3.2142,3.0491,3.4283,3.2241,3.0966,3.4806,3.2387,3.1806,3.7976,3.5463,3.2813,3.3064,3.3096,3.3099,3.3106,3.3107,3.3103,3.3104,3.4873,3.6039,3.6039,3.6257,3.64,3.6398,3.6401,3.6402,3.6402,3.6404,3.6393,3.6393,3.6393,3.6393,3.6393,3.6393,3.6393,3.6393,3.6393,3.6393,3.6443,3.7092,3.7756,3.8336,3.8026,3.7914,3.7927,3.799,3.7939,3.7826,3.7826,3.7826,3.7839,3.7889,3.7914,3.7927,3.7977,3.799,3.799,3.799,3.799,3.799,3.799,3.8391,3.8806,3.8806,3.9145,3.9509,3.9509,3.9509,3.9509,3.9509,3.9509,3.9509,3.9509,3.9961,4.0324,4.0324,4.0763,4.075,3.9672,3.9509,3.9509,3.9509,3.9509,3.9509,3.9509,3.9509,3.9509,3.9509,3.9509,3.9509,3.9509,3.9509,3.9509,3.9509,3.9044,3.8806,3.8806,3.8266,3.799,3.799,3.799,3.799,3.799,3.799,3.7939,2.6491,2.6504,2.6507,2.65,2.7467,2.9658,3.4417,3.254,3.0248,3.1845,3.0906,3.0678,3.3569,3.2804,3.3405,3.8561,3.5861,3.3101,3.3103,3.421,3.5024,3.5022,3.5014,3.5023,3.5024,3.5859,3.6399,3.6403,3.6392,3.6408,3.6405,3.6393,3.6393,3.6393,3.6393,3.6393,3.6393,3.6393,3.6393,3.6393,3.6393,3.7067,3.8319,3.8319,3.8091,3.7682,3.776,3.7962,3.8264,3.8454,3.8517,3.8555,3.8881,3.8981,3.8906,3.8241,3.799,3.804,3.8404,3.8517,3.858,3.8881,3.8981,3.8981,3.8981,3.8981,3.8981,3.8981,3.917,3.9371,3.9371,3.976,4.0174,4.0174,4.04,4.0638,4.0638,4.0638,4.0638,4.0638,4.0813,4.0964,4.0964,4.1138,4.1138,4.07,4.0638,4.0638,4.0638,4.0638,4.0638,4.0638,4.0638,4.0638,4.0638,4.0638,4.0638,4.0638,4.0638,4.0638,4.0638,4.0412,4.0299,4.0299,4.0048,3.9922,3.9922,3.9922,3.9922,3.9922,3.9922,3.9922,2.7244,2.742,2.7409,2.7404,2.8606,3.0522,3.3298,3.179,2.9801,2.9794,3.0287,3.119,3.2805,3.3107,3.4096,3.7169,3.5091,3.3312,3.393,3.5386,3.6406,3.6402,3.6406,3.6406,3.6406,3.6406,3.6401,3.6404,3.6393,3.6393,3.6393,3.6393,3.6393,3.6393,3.6393,3.6393,3.6393,3.6398,3.6401,3.6413,3.7027,3.8153,3.9684,3.9484,3.9131,3.8666,3.8378,3.8329,3.8504,3.8944,3.912,3.9158,3.9547,3.9785,3.9823,3.8994,3.8605,3.853,3.8969,3.912,3.9183,3.9572,3.9798,3.9923,3.9923,4.0023,4.0149,4.0149,4.0149,4.0149,4.0149,4.0425,4.0725,4.0725,4.1026,4.1301,4.1301,4.1301,4.1301,4.1301,4.1428,4.1554,4.1554,4.168,4.178,4.178,4.178,4.1654,4.1339,4.1301,4.1301,4.1301,4.1301,4.1301,4.1301,4.1301,4.1301,4.1301,4.1301,4.1301,4.1301,4.1301,4.1301,4.1301,4.1301,4.1301,4.1301,4.1301,4.1301,4.1301,4.1301,4.1301,2.9123,2.9695,2.9694,2.9691,2.9757,2.9827,2.995,2.9885,2.9799,2.9806,3.1505,3.3016,3.3092,3.3103,3.3142,3.3274,3.3176,3.3842,3.6004,3.6356,3.6403,3.6402,3.6404,3.6404,3.6404,3.6404,3.6392,3.6393,3.6393,3.6393,3.6393,3.6393,3.6393,3.6393,3.6393,3.6393,3.6393,3.6397,3.639,3.6427,3.857,3.9639,3.9677,3.8962,3.8729,3.8894,3.8881,3.917,3.9647,3.9672,3.9685,3.9685,3.9685,4.0023,4.0475,4.0437,4.0086,3.9647,3.9672,3.9685,3.9685,3.9685,4.0061,4.0475,4.0475,4.0838,4.1251,4.1251,4.1251,4.1251,4.1251,4.1264,4.1276,4.1276,4.1289,4.1301,4.1301,4.1301,4.1301,4.1301,4.1769,4.2174,4.2174,4.26,4.2951,4.2951,4.2951,4.2547,4.1439,4.1301,4.1301,4.1301,4.1301,4.1301,4.1301,4.1301,4.1301,4.1301,4.1301,4.1301,4.1301,4.1301,4.1301,4.1301,4.1301,4.1301,4.1301,4.1301,4.1301,4.1301,4.1301,4.1301,2.9597,2.9804,2.9805,2.9805,2.9804,2.9797,2.9802,3.0943,3.1991,3.1998,3.2583,3.3098,3.3102,3.3095,3.3101,3.3102,3.4325,3.5558,3.6305,3.6397,3.6398,3.6392,3.6393,3.6393,3.6393,3.6393,3.6393,3.6393,3.6393,3.6393,3.6393,3.6393,3.6393,3.6393,3.6392,3.6397,3.6397,3.6406,3.7145,3.8595,3.9344,3.9687,3.9688,3.9449,3.9372,3.9434,3.9434,3.9748,4.0224,4.0224,4.045,4.0763,4.0763,4.0876,4.1039,4.1039,4.0913,4.0763,4.0763,4.0763,4.0763,4.0763,4.0888,4.1039,4.1039,4.1164,4.1301,4.1301,4.1301,4.1301,4.1301,4.1592,4.1895,4.1895,4.2171,4.2421,4.2421,4.2421,4.2421,4.2421,4.2586,4.2725,4.2725,4.2876,4.3002,4.3002,4.3002,4.2862,4.2472,4.2421,4.2421,4.2421,4.2421,4.2421,4.2421,4.2421,4.2421,4.2421,4.2421,4.2421,4.2421,4.2421,4.2421,4.2421,4.2421,4.2421,4.2421,4.2421,4.2421,4.2421,4.2421,4.2421,2.9793,2.9801,2.9797,2.9806,2.9806,3.0005,3.0803,3.2082,3.3096,3.3094,3.3107,3.3101,3.3099,3.3746,3.4276,3.4277,3.546,3.6398,3.6395,3.6398,3.6393,3.6393,3.6393,3.6393,3.6393,3.6393,3.6393,3.6393,3.6393,3.6393,3.6393,3.6399,3.6391,3.6391,3.6403,3.6774,3.7574,3.758,3.8291,3.9701,3.9702,3.9702,3.9715,3.9901,3.9986,3.9998,4.0186,4.0475,4.0788,4.0788,4.0989,4.1301,4.1301,4.1428,4.1617,4.1617,4.1742,4.1855,4.1439,4.1301,4.1301,4.1301,4.1453,4.1617,4.1617,4.1755,4.1918,4.1918,4.1918,4.1918,4.1918,4.2197,4.2488,4.2488,4.275,4.3002,4.3002,4.3002,4.3002,4.3002,4.3002,4.3002,4.3002,4.3002,4.3077,4.3251,4.3289,4.3214,4.3013,4.3002,4.3002,4.3002,4.3002,4.3002,4.3002,4.3002,4.3002,4.3002,4.3002,4.3002,4.3002,4.3002,4.3002,4.3002,4.3002,4.3002,4.3002,4.3002,4.3002,4.3002,4.3002,4.3002,2.9791,2.9794,2.9805,2.9802,2.9888,3.0523,3.2618,3.3099,3.3106,3.3104,3.3104,3.3098,3.3095,3.4917,3.6389,3.641,3.6397,3.6406,3.6402,3.6393,3.6393,3.6393,3.6393,3.6393,3.6393,3.6393,3.6406,3.6395,3.6395,3.6395,3.6395,3.6398,3.6452,3.6574,3.6567,3.758,3.9679,3.9701,3.9702,3.9697,3.9735,3.976,3.9773,4.0299,4.055,4.0562,4.1089,4.1314,4.1339,4.1339,4.1364,4.1389,4.1389,4.1743,4.2237,4.2237,4.2563,4.285,4.1754,4.1389,4.1389,4.1389,4.1769,4.2237,4.2237,4.26,4.3002,4.3002,4.3002,4.3002,4.3002,4.3002,4.3002,4.3002,4.3002,4.3014,4.3039,4.3052,4.3052,4.3076,4.3076,4.3076,4.3076,4.3076,4.3251,4.3765,4.384,4.3652,4.3152,4.3076,4.3076,4.3076,4.3076,4.3063,4.3052,4.3052,4.3025,4.3002,4.3002,4.3002,4.3002,4.3002,4.3002,4.3002,4.3002,4.3002,4.3002,4.3002,4.3002,4.3002,4.3002,4.3002,2.9796,2.9802,2.9797,2.9804,3.1036,3.2403,3.2976,3.3098,3.3096,3.3099,3.3096,3.3096,3.3107,3.4911,3.6394,3.6393,3.6398,3.6399,3.6392,3.6393,3.6393,3.6393,3.6393,3.6393,3.6393,3.6393,3.6399,3.6398,3.6399,3.6399,3.6399,3.6406,3.7158,3.8809,3.8855,3.9133,3.9688,3.9702,3.9699,3.971,4.0252,4.0518,4.0531,4.0916,4.1088,4.1088,4.1239,4.1567,4.1972,4.1972,4.221,4.2559,4.2559,4.2661,4.2801,4.2801,4.2876,4.2964,4.2674,4.2559,4.2559,4.2559,4.2674,4.2801,4.2801,4.2889,4.3002,4.3002,4.3002,4.3002,4.3002,4.3002,4.3002,4.3002,4.3002,4.3101,4.3501,4.3589,4.3714,4.4102,4.419,4.419,4.419,4.419,4.424,4.4378,4.4403,4.4353,4.4202,4.419,4.419,4.419,4.419,4.4027,4.3627,4.3589,4.3427,4.3027,4.3002,4.3002,4.3002,4.3002,4.3002,4.3002,4.3002,4.3002,4.3002,4.3002,4.3002,4.3002,4.3002,4.3002,2.9801,2.9795,3.003,3.1007,3.2178,3.3104,3.3096,3.3103,3.3102,3.3102,3.3106,3.3399,3.4367,3.556,3.6403,3.6402,3.6393,3.6393,3.6393,3.6393,3.6393,3.6393,3.6393,3.6393,3.6393,3.6401,3.6396,3.639,3.6403,3.682,3.7797,3.7854,3.8416,3.966,3.9702,3.9702,3.9702,4.0656,4.091,4.0407,4.0988,4.1188,4.1032,4.1494,4.1693,4.1706,4.1943,4.2233,4.2549,4.2549,4.2725,4.3002,4.3002,4.3002,4.3002,4.3002,4.3002,4.3002,4.3002,4.3151,4.3314,4.3076,4.3002,4.3002,4.3002,4.3002,4.3002,4.3002,4.3164,4.3352,4.3352,4.354,4.3702,4.3702,4.3702,4.3777,4.4089,4.4152,4.424,4.4539,4.4589,4.4589,4.4589,4.4589,4.4692,4.497,4.498,4.5081,4.5319,4.4918,4.4589,4.4589,4.4589,4.4491,4.4177,4.4152,4.4014,4.3714,4.3702,4.3702,4.3702,4.3702,4.3702,4.3702,4.3702,4.3591,4.3352,4.3352,4.3226,4.3002,4.3002,4.3002,2.9801,2.9803,3.0333,3.2551,3.3098,3.31,3.3104,3.3102,3.3102,3.3102,3.3098,3.3776,3.5986,3.6399,3.6395,3.6402,3.6393,3.6393,3.6393,3.6393,3.6393,3.6393,3.6393,3.6394,3.6397,3.6397,3.6513,3.6822,3.6846,3.7675,3.9592,3.9701,3.9702,3.9702,3.97,3.9708,3.9708,4.1746,4.2354,4.1533,4.1817,4.1768,4.144,4.2047,4.2299,4.2337,4.2801,4.3002,4.3002,4.3002,4.3002,4.3002,4.3002,4.3052,4.3115,4.3115,4.3151,4.3214,4.3214,4.3528,4.3815,4.3277,4.3151,4.3214,4.3214,4.3214,4.3214,4.3214,4.3553,4.3915,4.3915,4.4252,4.4589,4.4589,4.4589,4.4629,4.4704,4.478,4.4842,4.4842,4.4842,4.4842,4.4842,4.4842,4.5006,4.5522,4.5612,4.5761,4.6235,4.5432,4.4842,4.4842,4.4842,4.4805,4.4729,4.4717,4.4692,4.4602,4.4589,4.4589,4.4589,4.4589,4.4589,4.4589,4.4589,4.4365,4.3915,4.3915,4.3664,4.3214,4.3214,4.3214,2.9801,2.9804,3.0328,3.2549,3.31,3.3102,3.3099,3.3102,3.3102,3.3102,3.3098,3.3781,3.5992,3.6405,3.6402,3.6392,3.6393,3.6393,3.6393,3.6393,3.6393,3.6393,3.6393,3.6399,3.6411,3.6402,3.7168,3.8981,3.9133,3.9309,3.9676,3.9702,3.9699,3.9699,3.9701,3.9693,3.9693,4.0966,4.196,4.2708,4.2322,4.2113,4.206,4.2612,4.2864,4.2864,4.2964,4.3002,4.3002,4.3002,4.3002,4.3002,4.3002,4.3277,4.3664,4.3664,4.3953,4.4315,4.4315,4.4391,4.4378,4.384,4.3966,4.4315,4.4315,4.4315,4.4315,4.4315,4.4391,4.4451,4.4451,4.4541,4.4589,4.4589,4.4589,4.4742,4.5234,4.5698,4.601,4.601,4.601,4.601,4.601,4.601,4.6035,4.615,4.616,4.6185,4.6286,4.6122,4.601,4.601,4.601,4.5836,4.5372,4.5334,4.5133,4.4627,4.4589,4.4589,4.4589,4.4589,4.4589,4.4589,4.4589,4.4539,4.4451,4.4451,4.4401,4.4315,4.4315,4.4315,2.9801,2.9801,3.0329,3.2554,3.3097,3.3102,3.3102,3.3102,3.3102,3.3102,3.3099,3.378,3.5989,3.6408,3.6405,3.6391,3.6393,3.6393,3.6393,3.6393,3.6393,3.6393,3.6389,3.6397,3.639,3.7429,3.8566,3.9613,3.9702,3.9702,3.9702,3.9699,3.9695,3.9701,3.9693,4.025,4.142,4.1925,4.2466,4.3007,4.2732,4.2626,4.2639,4.2876,4.3002,4.3002,4.3002,4.3002,4.3013,4.3302,4.3427,4.3438,4.3714,4.3989,4.4215,4.4215,4.4378,4.4589,4.4589,4.4805,4.5033,4.4769,4.4656,4.4589,4.4589,4.4589,4.4589,4.4589,4.483,4.507,4.507,4.5269,4.5482,4.5482,4.5482,4.5558,4.5849,4.6125,4.6298,4.6298,4.6298,4.6298,4.6298,4.6298,4.6298,4.6298,4.6298,4.6298,4.6298,4.6298,4.6298,4.6298,4.6298,4.62,4.5937,4.5912,4.5799,4.5508,4.5482,4.5482,4.5482,4.5482,4.5482,4.5482,4.5482,4.5344,4.507,4.507,4.4905,4.4589,4.4589,4.4589,2.9801,2.9801,3.0329,3.2554,3.3097,3.3102,3.3102,3.3102,3.3102,3.3102,3.3106,3.363,3.5369,3.6084,3.6403,3.6402,3.6393,3.6393,3.6393,3.6393,3.6393,3.6393,3.6396,3.6587,3.7054,3.8691,3.9702,3.969,3.9699,3.9694,3.9694,3.9694,3.9701,3.9708,4.0167,4.1247,4.2976,4.3009,4.2998,4.2997,4.3,4.3002,4.3002,4.3002,4.3002,4.3014,4.3113,4.3164,4.3214,4.3752,4.3978,4.4001,4.4441,4.4692,4.4792,4.4792,4.4867,4.4953,4.4953,4.5269,4.5675,4.5675,4.5359,4.4953,4.4953,4.4953,4.4953,4.4953,4.5321,4.5675,4.5675,4.5987,4.6298,4.6298,4.6298,4.6298,4.6298,4.6298,4.6298,4.6298,4.6298,4.6298,4.6298,4.6298,4.6298,4.6298,4.6298,4.6298,4.6298,4.6298,4.6298,4.6298,4.6298,4.6298,4.6298,4.6298,4.6298,4.6298,4.6298,4.6298,4.6298,4.6298,4.6298,4.6298,4.6298,4.61,4.5675,4.5675,4.5434,4.4953,4.4953,4.4953,2.9801,2.9801,3.0329,3.2554,3.3097,3.3102,3.3102,3.3102,3.3102,3.3102,3.3106,3.3156,3.3374,3.5048,3.6403,3.6402,3.6393,3.6393,3.6393,3.6393,3.6393,3.6393,3.6396,3.719,3.9198,3.9586,3.969,3.9699,3.97,3.9704,3.9704,3.9704,3.9707,3.9694,4.1652,4.2787,4.2996,4.2995,4.3006,4.3006,4.3003,4.3002,4.3002,4.3002,4.3002,4.3027,4.3501,4.3727,4.3765,4.4303,4.4541,4.4541,4.4577,4.493,4.5424,4.5424,4.5723,4.6135,4.6135,4.6173,4.6238,4.6238,4.6185,4.6135,4.6135,4.6135,4.6135,4.6135,4.6173,4.6238,4.6238,4.6261,4.6298,4.6298,4.6298,4.6298,4.6298,4.6298,4.6298,4.6298,4.6298,4.6298,4.6298,4.6298,4.6298,4.6298,4.6298,4.6298,4.6298,4.6298,4.6298,4.6298,4.6298,4.6298,4.6298,4.6298,4.6298,4.6298,4.6298,4.6298,4.6298,4.6298,4.6298,4.6298,4.6298,4.6273,4.6238,4.6238,4.6198,4.6135,4.6135,4.6135,2.9801,2.9801,3.0329,3.2554,3.3097,3.3102,3.3102,3.3102,3.3102,3.3102,3.3106,3.3094,3.3103,3.4902,3.6405,3.64,3.6393,3.6393,3.6393,3.6393,3.6397,3.6407,3.6392,3.727,3.9497,3.9702,3.9699,3.97,3.9693,4.0284,4.1612,4.1686,4.1684,4.1688,4.2548,4.2998,4.3008,4.2995,4.3002,4.3002,4.3002,4.3002,4.3014,4.3339,4.349,4.3501,4.4053,4.4278,4.4328,4.4893,4.5146,4.5171,4.5495,4.5771,4.5987,4.5987,4.6125,4.6298,4.6298,4.6298,4.6298,4.6298,4.6298,4.6298,4.6298,4.6298,4.6298,4.6298,4.6298,4.6298,4.6298,4.6298,4.6298,4.6298,4.6298,4.6298,4.6298,4.6298,4.6298,4.6298,4.6298,4.6298,4.6298,4.6298,4.6298,4.6298,4.6298,4.6298,4.6298,4.6298,4.6298,4.6298,4.6298,4.6298,4.6298,4.6298,4.6298,4.6298,4.6298,4.6298,4.6298,4.6298,4.6298,4.6298,4.6298,4.6298,4.6298,4.6298,4.6298,4.6298,4.6298,4.6298,2.9801,2.9809,3.0332,3.2549,3.3093,3.3094,3.3099,3.3102,3.3102,3.3102,3.3102,3.3098,3.3101,3.4915,3.6401,3.6398,3.6393,3.6393,3.6393,3.6393,3.64,3.6389,3.6985,3.7991,3.955,3.9712,3.9701,3.9702,4.0309,4.1369,4.2928,4.3,4.2998,4.2995,4.2994,4.3011,4.3002,4.3002,4.3002,4.3002,4.3002,4.3076,4.3251,4.3641,4.389,4.4079,4.4616,4.4867,4.4905,4.5497,4.5736,4.5761,4.6148,4.6298,4.6298,4.6298,4.6298,4.6298,4.6298,4.6298,4.6298,4.6298,4.6298,4.6298,4.6298,4.6298,4.6298,4.6298,4.6298,4.6298,4.6298,4.6298,4.6298,4.6298,4.6298,4.6298,4.6298,4.6298,4.6298,4.6298,4.6298,4.6298,4.6298,4.6298,4.6298,4.6298,4.6298,4.6298,4.6298,4.6298,4.6298,4.6298,4.6298,4.6298,4.6298,4.6298,4.6298,4.6298,4.6298,4.6298,4.6298,4.6298,4.6298,4.6298,4.6298,4.6298,4.6298,4.6298,4.6298,4.6298,4.6298,4.6298,2.9801,2.9795,3.0333,3.2548,3.3104,3.3102,3.3102,3.3102,3.3102,3.3102,3.3102,3.3098,3.3101,3.4915,3.6401,3.6398,3.6393,3.6393,3.6393,3.6393,3.64,3.6389,3.8333,3.967,3.9702,3.9694,3.9701,3.9701,4.174,4.298,4.2993,4.2994,4.3002,4.3002,4.3002,4.3002,4.3002,4.3002,4.3002,4.3002,4.3002,4.3277,4.379,4.3802,4.4089,4.4642,4.5234,4.5499,4.5537,4.6075,4.6286,4.6286,4.6298,4.6298,4.6298,4.6298,4.6298,4.6298,4.6298,4.6298,4.6298,4.6298,4.6298,4.6298,4.6298,4.6298,4.6298,4.6298,4.6298,4.6298,4.6298,4.6298,4.6298,4.6298,4.6298,4.6298,4.6298,4.6298,4.6298,4.6298,4.6298,4.6298,4.6298,4.6298,4.6298,4.6298,4.6298,4.6298,4.6298,4.6298,4.6298,4.6298,4.6298,4.6298,4.6298,4.6298,4.6298,4.6298,4.6298,4.6298,4.6298,4.6298,4.6298,4.6298,4.6298,4.6298,4.6298,4.6298,4.6298,4.6298,4.6298,4.6298,2.9801,2.9795,2.9965,3.0668,3.1972,3.3101,3.3098,3.3099,3.3102,3.3102,3.3102,3.3098,3.3101,3.4915,3.6401,3.6398,3.6393,3.6393,3.6393,3.6393,3.6404,3.6395,3.8354,3.9702,3.9701,3.9701,4.0327,4.1834,4.2599,4.2998,4.3005,4.3007,4.3002,4.3002,4.3002,4.3002,4.3002,4.3002,4.3002,4.3,4.3377,4.3641,4.3827,4.4606,4.5045,4.5246,4.5799,4.605,4.6062,4.6238,4.6298,4.6298,4.6298,4.6298,4.6298,4.6298,4.6298,4.6298,4.6298,4.6298,4.6298,4.6298,4.6298,4.6298,4.6298,4.6298,4.6298,4.6298,4.6298,4.6298,4.6298,4.6298,4.6298,4.6298,4.6298,4.6298,4.6298,4.6298,4.6298,4.6298,4.6298,4.6298,4.6298,4.6298,4.6298,4.6298,4.6298,4.6298,4.6298,4.6298,4.6298,4.6298,4.6298,4.6298,4.6298,4.6298,4.6298,4.6298,4.6298,4.6298,4.6298,4.6298,4.6298,4.6298,4.6298,4.6298,4.6298,4.6298,4.6298,4.6298,4.6298,4.6298,2.9793,2.9806,2.9801,2.9798,3.0849,3.207,3.2904,3.3101,3.3102,3.3102,3.3102,3.3098,3.3101,3.4915,3.6401,3.6398,3.6393,3.6393,3.6393,3.6399,3.6718,3.7543,3.8854,3.9709,3.9692,3.9702,4.0611,4.2828,4.3006,4.2996,4.3002,4.3002,4.3002,4.3002,4.3002,4.3002,4.3002,4.3403,4.3543,4.3408,4.3879,4.4229,4.447,4.5185,4.5612,4.5811,4.6148,4.6298,0.0,4.6298,4.6298,4.6298,4.6298,4.6298,4.6298,4.6298,4.6298,4.6298,4.6298,4.6298,4.6298,4.6298,4.6298,4.6298,4.6298,4.6298,4.6298,4.6298,4.6298,4.6298,4.6298,4.6298,4.6298,4.6298,4.6298,4.6298,4.6298,4.6298,4.6298,4.6298,4.6298,4.6298,4.6298,4.6298,4.6298,4.6298,4.6298,4.6298,4.6298,4.6298,4.6298,4.6298,4.6298,4.6298,4.6298,4.6298,4.6298,4.6298,4.6298,4.6298,4.6298,4.6298,4.6298,4.6298,4.6298,4.6298,4.6298,4.6298,4.6298,4.6298,4.6298,4.6298,0.0,2.9808,2.9806,2.9806,2.9923,3.0579,3.263,3.3099,0.0,3.3102,3.3093,3.3101,3.3101,3.4905,3.6404,3.6398,3.6393,3.6393,3.6393,3.6542,3.7403,3.9461,3.9701,3.9692,3.9703,3.9834,4.0794,4.2848,4.2994,4.3002,4.3002,4.3002,4.3002,4.3002,4.3078,4.3091,4.3077,4.4077,4.4423,4.4135,4.4484,4.4955,4.5499,4.555,4.5824,4.6298,4.6298,4.6298,4.6298,4.6298,4.6298,4.6298,4.6298,4.6298,4.6298,4.6298,4.6298,4.6298,4.6298,4.6298,4.6298,4.6298,4.6298,4.6298,4.6298,4.6298,4.6298,4.6298,4.6298,4.6298,4.6298,4.6298,4.6298,4.6298,4.6298,4.6298,4.6298,4.6298,4.6298,4.6298,4.6298,4.6298,4.6298,4.6298,4.6298,4.6298,4.6298,4.6298,4.6298,4.6298,4.6298,4.6298,4.6298,4.6298,4.6298,4.6298,4.6298,4.6298,4.6298,4.6298,4.6298,4.6298,4.6298,4.6298,4.6298,4.6298,4.6298,4.6298,4.6298,4.6298,4.6298,4.6298,2.9801,0.0,2.9805,2.9799,3.1065,3.2454,0.0,3.3095,3.3102,3.3102,3.3098,3.31,3.3105,3.4912,3.6407,3.6402,3.6393,3.6393,3.6393,3.7851,3.9114,3.9638,3.9697,3.9693,3.9702,4.1223,4.2443,4.2966,4.2994,4.3002,4.3002,4.3002,4.3002,4.3002,4.3791,4.4101,4.3844,4.4091,4.4313,4.4497,4.5035,4.5359,4.5512,4.5924,4.6188,4.6298,4.6298,4.6298,4.6298,4.6298,4.6298,4.6298,4.6298,4.6298,4.6298,4.6298,4.6298,4.6298,4.6298,4.6298,4.6298,4.6298,4.6298,4.6298,4.6298,4.6298,4.6298,4.6298,4.6298,4.6298,4.6298,4.6298,4.6298,4.6298,4.6298,4.6298,4.6298,4.6298,4.6298,4.6298,4.6298,4.6298,4.6298,4.6298,4.6298,4.6298,4.6298,4.6298,4.6298,4.6298,4.6298,4.6298,4.6298,4.6298,4.6298,4.6298,4.6298,4.6298,4.6298,4.6298,4.6298,4.6298,4.6298,4.6298,4.6298,4.6298,4.6298,4.6298,4.6298,4.6298,4.6298,4.6298,2.9525,2.9799,2.9799,2.9802,3.1461,3.3101,3.3104,3.3098,3.3097,3.3096,3.3096,3.3405,3.4433,3.5593,3.6403,3.6402,3.6393,3.6399,3.64,3.8299,3.97,3.969,3.9691,4.0097,4.1123,4.2299,4.3002,4.2988,4.2999,4.3002,4.3002,4.3002,4.3154,4.3485,4.4071,4.4357,4.433,4.4848,4.5196,4.5389,4.5707,4.5861,4.5874,4.6175,4.6298,4.6298,4.6298,4.6298,4.6298,4.6298,4.6298,4.6298,4.6298,4.6298,4.6298,4.6298,4.6298,4.6298,4.6298,4.6298,4.6298,4.6298,4.6298,4.6348,4.6584,4.6675,4.6624,4.6373,4.6298,4.6298,4.6298,4.6298,4.6298,4.6298,4.6298,4.6298,4.6298,4.6298,4.6298,4.6298,4.6298,4.6298,4.6298,4.6298,4.6298,4.6298,4.6298,4.6298,4.6298,4.6298,4.6298,4.6298,4.6298,4.6298,4.6298,4.6298,4.6298,4.6298,4.6298,4.6298,4.6298,4.6298,4.6298,4.6298,4.6298,4.6298,4.6298,4.6298,4.6298,4.6298,4.6298,4.6298,2.92,2.9799,2.9796,2.9794,3.1213,3.2688,3.3014,3.3099,3.3102,3.3092,3.3362,3.418,3.6048,3.6398,3.6408,3.6402,3.6408,3.653,3.6863,3.853,3.9829,4.0156,4.0042,4.0761,4.2794,4.3,4.2991,4.3003,4.3002,4.3002,4.3002,4.3116,4.3447,4.4047,4.4222,4.4446,4.473,4.5707,4.6227,4.63,4.6295,4.6298,4.6298,4.6298,4.6298,4.6298,4.6298,4.6298,4.6298,4.6298,4.6298,4.6298,4.6298,4.6298,4.6298,4.6298,4.6298,4.6298,4.6298,4.6348,4.6424,4.6424,4.6474,4.6624,4.7086,4.7224,4.7124,4.6675,4.6537,4.6537,4.6537,4.6537,4.6537,4.6537,4.6474,4.6424,4.6424,4.6361,4.6298,4.6298,4.6298,4.6298,4.6298,4.6298,4.6298,4.6298,4.6298,4.6298,4.6298,4.6298,4.6298,4.6298,4.6298,4.6298,4.6298,4.6298,4.6298,4.6298,4.6298,4.6298,4.6298,4.6298,4.6298,4.6298,4.6298,4.6298,4.6298,4.6298,4.6298,4.6298,4.6298,4.6298,2.9197,2.9796,2.9796,2.9803,3.0061,3.0797,3.2669,3.3094,3.3092,3.3098,3.4591,3.5999,3.6345,3.6388,3.6402,3.6392,3.6394,3.7043,3.8931,3.9487,4.0389,4.228,4.1644,4.1573,4.2868,4.3001,4.2993,4.3002,4.3002,4.3002,4.3002,4.3587,4.3904,4.3843,4.4773,4.5317,4.5359,4.5548,4.5848,4.6298,4.6303,4.6298,4.6298,4.6298,4.6298,4.6298,4.6298,4.6298,4.6298,4.6298,4.6298,4.6298,4.6298,4.6298,4.6298,4.6298,4.6298,4.6298,4.6298,4.6599,4.6986,4.6986,4.729,4.7666,4.7741,4.7779,4.7754,4.7679,4.7641,4.7641,4.7641,4.7641,4.7641,4.7641,4.7315,4.6986,4.6986,4.6624,4.6298,4.6298,4.6298,4.6298,4.6298,4.6298,4.6298,4.6298,4.6298,4.6298,4.6298,4.6298,4.6298,4.6298,4.6298,4.6298,4.6298,4.6298,4.6298,4.6298,4.6298,4.6298,4.6298,4.6298,4.6298,4.6298,4.6298,4.6298,4.6298,4.6298,4.6298,4.6298,4.6298,4.6298,2.9197,2.9796,3.0082,3.1271,3.1579,3.1849,3.2867,3.3104,3.3434,3.464,3.5691,3.6399,3.6401,3.6399,3.659,3.7161,3.7779,3.8549,3.9562,4.0198,4.0937,4.1952,4.2168,4.2422,4.2941,4.2994,4.3002,4.3002,4.3002,4.3126,4.3427,4.3759,4.4174,4.4694,4.5236,4.565,4.5937,4.5937,4.6062,4.6298,4.6298,4.6298,4.6298,4.6298,4.6298,4.6298,4.6298,4.6298,4.6298,4.6298,4.6298,4.6298,4.6298,4.6298,4.6298,4.6298,4.6486,4.6722,4.6722,4.7074,4.7541,4.7541,4.7691,4.797,4.83,4.8388,4.8451,4.8736,4.8385,4.7908,4.7908,4.7908,4.7908,4.7908,4.7704,4.7541,4.7541,4.7114,4.6722,4.6722,4.6499,4.6298,4.6298,4.6298,4.6298,4.6298,4.6298,4.6298,4.6298,4.6298,4.6298,4.6298,4.6298,4.6298,4.6298,4.6298,4.6298,4.6298,4.6298,4.6298,4.6298,4.6298,4.6298,4.6298,4.6298,4.6298,4.6298,4.6298,4.6298,4.6298,4.6298,4.6298,2.927,2.9976,3.0656,3.2607,3.3091,3.3174,3.3415,3.3673,3.435,3.6047,3.6399,3.6398,3.6402,3.6603,3.7038,3.7866,3.8959,3.9698,3.9702,4.0564,4.1249,4.1414,4.225,4.2858,4.2985,4.3002,4.3002,4.3002,4.3113,4.3377,4.3777,4.4053,4.4593,4.5474,4.5625,4.5886,4.6301,4.6298,4.6298,4.6298,4.6298,4.6298,4.6298,4.6298,4.6298,4.6298,4.6298,4.6298,4.6298,4.6298,4.6298,4.6298,4.6298,4.6373,4.6486,4.6486,4.6838,4.7287,4.7287,4.7654,4.8109,4.8109,4.8196,4.8385,4.8853,4.8994,4.9066,4.9477,4.8975,4.8309,4.8309,4.8309,4.8309,4.8309,4.8209,4.8109,4.8109,4.7679,4.7287,4.7287,4.6963,4.6662,4.6662,4.6574,4.6486,4.6486,4.6373,4.6298,4.6298,4.6298,4.6298,4.6298,4.6298,4.6298,4.6298,4.6298,4.6298,4.6298,4.6298,4.6298,4.6298,4.6298,4.6298,4.6298,4.6298,4.6298,4.6298,4.6298,4.6298,4.6298,4.6298,4.6298,2.9474,3.0533,3.1579,3.281,3.3091,3.3367,3.4359,3.5401,3.6204,3.6363,3.6402,3.6391,3.6405,3.7211,3.7903,3.7988,3.8956,3.9702,3.9699,4.0354,4.1089,4.1776,4.2083,4.244,4.2954,4.3003,4.3002,4.3002,4.3451,4.3765,4.3802,4.4794,4.5424,4.5499,4.5987,4.6261,4.6298,4.6298,4.6298,4.6298,4.6298,4.6298,4.6298,4.6298,4.6298,4.6298,4.6298,4.6298,4.6298,4.6298,4.6298,4.6298,4.6298,4.6612,4.7048,4.7048,4.739,4.7842,4.7842,4.8222,4.8743,4.8743,4.9066,4.949,4.9543,4.954,4.954,4.959,4.954,4.9477,4.9477,4.9477,4.9477,4.9477,4.9104,4.8743,4.8743,4.8259,4.7842,4.7842,4.7804,4.7779,4.7779,4.7378,4.7048,4.7048,4.6624,4.6298,4.6298,4.6298,4.6298,4.6298,4.6298,4.6298,4.6298,4.6298,4.6298,4.6298,4.6298,4.6298,4.6298,4.6298,4.6298,4.6298,4.6298,4.6298,4.6298,4.6298,4.6298,4.6298,4.6298,4.6298,3.0492,3.1093,3.1783,3.3384,3.3768,3.3944,3.4564,3.5573,3.6396,3.6401,3.64,3.6542,3.7005,3.7415,3.787,3.8454,3.8919,3.9436,4.0099,4.0715,4.1345,4.2005,4.2454,4.2776,4.2975,4.3002,4.3138,4.3478,4.3689,4.4104,4.4807,4.5273,4.5648,4.5987,4.6185,4.6298,4.6298,4.6298,4.6298,4.6298,4.6298,4.6298,4.6298,4.6298,4.6298,4.6298,4.6298,4.6298,4.6298,4.6298,4.6298,4.6323,4.6675,4.7139,4.7603,4.7603,4.797,4.8463,4.8463,4.8827,4.9305,4.9305,4.9443,4.959,4.959,4.959,4.959,4.959,4.959,4.959,4.959,4.959,4.959,4.959,4.9455,4.9305,4.9305,4.8865,4.8463,4.8463,4.8159,4.7908,4.7908,4.7729,4.7603,4.7603,4.7415,4.729,4.729,4.729,4.729,4.729,4.7001,4.6662,4.6323,4.6298,4.6298,4.6298,4.6298,4.6298,4.6298,4.6298,4.6298,4.6298,4.6298,4.6298,4.6298,4.6298,4.6298,4.6298,4.6298,4.6298,3.0798,3.1394,3.2011,3.3479,3.4233,3.4666,3.4902,3.5553,3.6173,3.6353,3.6531,3.6807,3.7307,3.7697,3.8151,3.8806,3.9183,3.966,4.04,4.1127,4.1743,4.2149,4.2663,4.3002,4.3002,4.3151,4.3388,4.3777,4.4129,4.4683,4.5462,4.5663,4.5924,4.6286,4.6298,4.6298,4.6298,4.6298,4.6298,4.6298,4.6298,4.6298,4.6298,4.6298,4.6298,4.6298,4.6298,4.6298,4.6311,4.6486,4.665,4.6838,4.7214,4.7691,4.8184,4.8184,4.8551,4.9053,4.9053,4.9292,4.959,4.959,4.959,4.959,4.959,4.959,4.959,4.959,4.959,4.959,4.959,4.959,4.959,4.959,4.959,4.959,4.959,4.9317,4.9053,4.9053,4.8711,4.8435,4.8435,4.8297,4.8184,4.8184,4.8021,4.7908,4.7908,4.7908,4.7908,4.7908,4.7578,4.7199,4.6838,4.665,4.6562,4.6562,4.6386,4.6298,4.6298,4.6298,4.6298,4.6298,4.6298,4.6298,4.6298,4.6298,4.6298,4.6298,4.6298,4.6298,3.0158,3.1378,3.2342,3.2953,3.4313,3.5495,3.5508,3.5508,3.5682,3.6281,3.6833,3.7198,3.7211,3.814,3.8894,3.8906,3.981,4.05,4.0499,4.1494,4.2199,4.2199,4.2675,4.3002,4.3014,4.349,4.3802,4.3815,4.4857,4.5499,4.5512,4.6012,4.6298,4.6298,4.6298,4.6298,4.6298,4.6298,4.6298,4.6298,4.6298,4.6298,4.6298,4.6298,4.6298,4.6298,4.6311,4.6311,4.6348,4.6885,4.7412,4.792,4.792,4.8287,4.8818,4.8818,4.9141,4.959,4.959,4.959,4.959,4.959,4.959,4.959,4.959,4.959,4.959,4.959,4.959,4.959,4.959,4.959,4.959,4.959,4.959,4.959,4.959,4.959,4.959,4.959,4.959,4.959,4.959,4.9154,4.8818,4.8818,4.83,4.792,4.792,4.792,4.7905,4.792,4.792,4.792,4.7908,4.74,4.7111,4.7099,4.6612,4.6311,4.6298,4.6298,4.6298,4.6298,4.6298,4.6298,4.6298,4.6298,4.6298,4.6298,4.6298,4.6298,3.0595,3.1386,3.2051,3.3786,3.4577,3.5142,3.5955,3.6131,3.6281,3.6846,3.7097,3.7437,3.8253,3.8668,3.9158,3.9898,4.0287,4.0789,4.1582,4.1985,4.2337,4.2713,4.2901,4.3151,4.354,4.3702,4.4129,4.4947,4.5311,4.566,4.605,4.621,4.6298,4.6298,4.6298,4.6298,4.6298,4.6298,4.6298,4.6298,4.6298,4.6298,4.6298,4.6298,4.6298,4.6323,4.6712,4.686,4.6898,4.744,4.8008,4.8526,4.8526,4.8865,4.9367,4.9367,4.9452,4.959,4.959,4.959,4.959,4.959,4.959,4.959,4.959,4.959,4.959,4.959,4.959,4.959,4.959,4.959,4.959,4.959,4.959,4.959,4.959,4.959,4.959,4.959,4.959,4.959,4.959,4.9464,4.9367,4.9367,4.9201,4.91,4.91,4.91,4.895,4.8564,4.8526,4.8363,4.7945,4.7754,4.7503,4.7124,4.6948,4.6685,4.6311,4.6298,4.6298,4.6298,4.6298,4.6298,4.6298,4.6298,4.6298,4.6298,4.6298,4.6298,3.0806,3.156,3.2202,3.4201,3.4866,3.5255,3.618,3.6393,3.6556,3.7097,3.7374,3.7801,3.873,3.907,3.9496,4.0362,4.0688,4.114,4.2073,4.2387,4.2637,4.2964,4.3002,4.3201,4.374,4.3989,4.4505,4.5437,4.5698,4.5962,4.6273,4.6298,4.6298,4.6298,4.6298,4.6298,4.6298,4.6298,4.6298,4.6298,4.6298,4.6411,4.6624,4.6624,4.6624,4.665,4.7174,4.7553,4.7807,4.8121,4.8601,4.9116,4.9116,4.9317,4.959,4.959,4.959,4.959,4.959,4.959,4.959,4.959,4.959,4.959,4.959,4.959,4.959,4.959,4.959,4.959,4.959,4.959,4.959,4.959,4.959,4.959,4.959,4.959,4.959,4.959,4.959,4.959,4.959,4.959,4.959,4.959,4.959,4.959,4.959,4.959,4.9493,4.9154,4.9116,4.8966,4.8611,4.8372,4.8121,4.7807,4.735,4.6948,4.6637,4.6411,4.6298,4.6298,4.6298,4.6298,4.6298,4.6298,4.6298,4.6298,4.6298,4.6298,3.0806,3.175,3.2543,3.4264,3.5143,3.5732,3.6268,3.6443,3.6632,3.7161,3.7701,3.8266,3.8869,3.9409,3.9948,4.0487,4.1026,4.1592,4.2199,4.2688,4.3002,4.3002,4.3052,4.3277,4.3827,4.4365,4.493,4.5537,4.601,4.6298,4.6298,4.6298,4.6298,4.6298,4.6298,4.6298,4.6298,4.6298,4.6323,4.6373,4.6373,4.6662,4.7174,4.7124,4.7161,4.7274,4.7767,4.8309,4.8881,4.8881,4.9154,4.959,4.959,4.959,4.959,4.959,4.959,4.959,4.959,4.959,4.959,4.959,4.959,4.959,4.959,4.959,4.959,4.959,4.959,4.959,4.959,4.959,4.959,4.959,4.959,4.959,4.959,4.959,4.959,4.959,4.959,4.959,4.959,4.959,4.959,4.959,4.959,4.959,4.959,4.959,4.959,4.959,4.959,4.959,4.959,4.9154,4.884,4.8806,4.7832,4.7212,4.7099,4.6572,4.6298,4.6298,4.6298,4.6298,4.6298,4.6298,4.6298,4.6298,4.6298,4.6298,3.0806,3.1474,3.2087,3.4176,3.5466,3.6243,3.6368,3.6732,3.7173,3.7713,3.8303,3.8869,3.9434,3.9973,4.05,4.1038,4.1618,4.2198,4.275,4.2926,4.3002,4.3002,4.3377,4.384,4.4378,4.497,4.5535,4.6087,4.6223,4.6298,4.6298,4.6298,4.6298,4.6298,4.6298,4.6298,4.6298,4.6298,4.6512,4.6923,4.6923,4.7199,4.7704,4.7287,4.7591,4.8438,4.8551,4.8915,4.943,4.943,4.9506,4.959,4.959,4.959,4.959,4.959,4.959,4.959,4.959,4.959,4.959,4.959,4.959,4.959,4.959,4.959,4.959,4.959,4.959,4.959,4.959,4.959,4.959,4.959,4.959,4.959,4.959,4.959,4.959,4.959,4.959,4.959,4.959,4.959,4.959,4.959,4.959,4.959,4.959,4.959,4.959,4.959,4.959,4.959,4.959,4.949,4.9254,4.8831,4.8564,4.8033,4.7136,4.6572,4.6298,4.6298,4.6298,4.6298,4.6298,4.6298,4.6298,4.6298,4.6298,4.6298,3.0806,3.1396,3.1936,3.4149,3.5566,3.6393,3.6393,3.7022,3.7663,3.794,3.8479,3.9057,3.9609,4.0149,4.0688,4.1214,4.182,4.2387,4.2912,4.3002,4.3102,4.3352,4.3627,4.4129,4.4957,4.5324,4.5711,4.6261,4.6298,4.6298,4.6298,4.6298,4.5926,4.5074,4.5853,4.5911,4.5071,4.6142,4.681,4.7099,4.735,4.7779,4.8309,4.8033,4.8372,4.9179,4.9179,4.9342,4.959,4.959,4.959,4.959,4.959,4.959,4.959,4.959,4.959,4.959,4.959,4.959,4.959,4.959,4.959,4.959,4.959,4.959,4.959,4.959,4.959,4.959,4.959,4.959,4.959,4.959,4.959,4.959,4.959,4.959,4.959,4.959,4.959,4.959,4.959,4.959,4.959,4.959,4.959,4.959,4.959,4.959,4.959,4.959,4.959,4.959,4.959,4.959,4.9493,4.9204,4.8928,4.8526,4.7945,4.7127,4.6562,4.6311,4.6298,4.6298,4.6298,4.6298,4.6298,4.6298,4.6298,4.6298,3.0806,3.1685,3.2403,3.4239,3.5566,3.6393,3.6393,3.7223,3.799,3.799,3.8542,3.9195,3.9735,4.0274,4.0813,4.1365,4.1958,4.2487,4.2939,4.3002,4.3201,4.374,4.3878,4.4342,4.5399,4.5587,4.5811,4.6261,4.6017,4.5853,4.5853,4.5568,4.489,4.3746,4.5101,4.5349,4.4293,4.6149,4.7033,4.6914,4.7455,4.8139,4.8944,4.8944,4.9179,4.959,4.959,4.959,4.959,4.959,4.959,4.959,4.959,4.959,4.959,4.959,4.959,4.959,4.959,4.959,4.959,4.959,4.959,4.959,4.959,4.959,4.959,4.959,4.959,4.959,4.959,4.959,4.959,4.959,4.959,4.959,4.959,4.959,4.959,4.959,4.959,4.959,4.959,4.959,4.959,4.959,4.959,4.959,4.959,4.959,4.959,4.959,4.959,4.959,4.959,4.959,4.959,4.959,4.9179,4.8906,4.8806,4.7792,4.6986,4.6449,4.6348,4.6298,4.6298,4.6298,4.6298,4.6298,4.6298,4.6298,3.0806,3.2805,3.4327,3.4628,3.5566,3.6393,3.6393,3.7223,3.799,3.799,3.8856,3.976,4.0287,4.0826,4.139,4.1984,4.2537,4.2926,4.3002,4.3002,4.3201,4.374,4.4202,4.4754,4.5422,4.5924,4.621,4.6286,4.4905,4.4053,4.4053,4.2659,4.2438,4.3657,4.3933,4.4882,4.6624,4.6954,4.6776,4.6143,4.6683,4.7844,4.949,4.949,4.9527,4.959,4.959,4.959,4.959,4.959,4.959,4.959,4.959,4.959,4.959,4.959,4.959,4.959,4.959,4.959,4.959,4.959,4.959,4.959,4.959,4.959,4.959,4.959,4.959,4.959,4.959,4.959,4.959,4.959,4.959,4.959,4.959,4.959,4.959,4.959,4.959,4.959,4.959,4.959,4.959,4.959,4.959,4.959,4.959,4.959,4.959,4.959,4.959,4.959,4.959,4.959,4.959,4.959,4.9527,4.9292,4.8818,4.8146,4.7541,4.6998,4.6537,4.6298,4.6298,4.6298,4.6298,4.6298,4.6298,4.6298,3.0806,3.2792,3.4325,3.4628,3.5566,3.6393,3.6393,3.6997,3.7638,3.7939,3.868,3.9509,4.0349,4.0938,4.149,4.2111,4.265,4.3002,4.3002,4.3002,4.2965,4.2861,4.3049,4.3538,4.4406,4.4698,4.4832,4.4832,4.413,4.3298,4.2359,4.1597,4.1533,4.228,4.3208,4.4336,4.5636,4.5909,4.6167,4.6456,4.6687,4.7773,4.959,4.959,4.959,4.959,4.959,4.959,4.959,4.959,4.959,4.959,4.959,4.959,4.959,4.959,4.959,4.959,4.959,4.959,4.959,4.959,4.959,4.959,4.959,4.959,4.959,4.959,4.959,4.959,4.959,4.959,4.959,4.959,4.959,4.959,4.959,4.959,4.959,4.959,4.959,4.959,4.959,4.959,4.959,4.959,4.959,4.959,4.959,4.959,4.959,4.959,4.959,4.959,4.959,4.959,4.959,4.959,4.959,4.949,4.9254,4.8385,4.7792,4.7553,4.6725,4.6298,4.6298,4.6298,4.6298,4.6298,4.6298,4.674,3.0909,3.2527,3.3859,3.4527,3.5441,3.6218,3.6368,3.6808,3.7349,3.7889,3.8479,3.9233,4.0299,4.0606,4.102,4.2042,4.2306,4.2528,4.2946,4.2653,4.2317,4.2117,4.1741,4.2065,4.3562,4.3314,4.3251,4.3672,4.2895,4.1856,4.0602,4.0116,4.0083,4.0521,4.1854,4.3025,4.4012,4.4139,4.5083,4.6782,4.6331,4.7344,4.959,4.959,4.959,4.959,4.959,4.959,4.959,4.959,4.959,4.959,4.959,4.959,4.959,4.959,4.959,4.959,4.959,4.959,4.959,4.959,4.959,4.959,4.959,4.959,4.959,4.959,4.959,4.959,4.959,4.959,4.959,4.959,4.959,4.959,4.959,4.959,4.959,4.959,4.959,4.959,4.959,4.959,4.959,4.959,4.959,4.959,4.959,4.959,4.959,4.959,4.959,4.959,4.959,4.959,4.959,4.959,4.959,4.959,4.959,4.851,4.7908,4.7908,4.6838,4.6298,4.6298,4.6298,4.6298,4.6313,4.668,4.7446,3.1223,3.2248,3.3393,3.4438,3.5131,3.5707,3.6268,3.6808,3.7349,3.7889,3.8479,3.9233,4.0299,3.9696,3.9728,4.1853,4.1374,4.1262,4.2779,4.17,4.1069,4.1998,4.0747,4.0844,4.3441,4.2253,4.1995,4.3579,4.0703,3.8828,3.8729,3.7166,3.7025,3.868,3.919,4.0478,4.2681,4.1902,4.3286,4.6777,4.505,4.612,4.959,4.959,4.959,4.959,4.959,4.959,4.959,4.959,4.959,4.959,4.959,4.959,4.959,4.959,4.959,4.959,4.959,4.959,4.959,4.959,4.959,4.959,4.959,4.959,4.959,4.959,4.959,4.959,4.959,4.959,4.959,4.959,4.959,4.959,4.959,4.959,4.959,4.959,4.959,4.959,4.959,4.959,4.959,4.959,4.959,4.959,4.959,4.959,4.959,4.959,4.959,4.959,4.959,4.959,4.959,4.959,4.959,4.959,4.959,4.851,4.7908,4.7908,4.6838,4.6298,4.6298,4.6298,4.6298,4.6328,4.7727,4.8429,3.0736,3.1687,3.2792,3.3909,3.4853,3.5657,3.6256,3.6556,3.6833,3.7374,3.7939,3.8266,3.8086,3.8524,3.9619,4.1839,4.1304,4.1162,4.2765,4.1602,4.0563,4.0453,3.9008,3.8661,4.0276,3.9888,3.9774,4.038,3.9294,3.8104,3.6991,3.6345,3.6799,3.8542,3.8998,3.9863,4.1242,4.1274,4.257,4.505,4.4413,4.6019,4.959,4.959,4.959,4.959,4.959,4.959,4.959,4.959,4.959,4.959,4.959,4.959,4.959,4.959,4.959,4.959,4.959,4.959,4.959,4.959,4.959,4.959,4.959,4.959,4.959,4.959,4.959,4.959,4.959,4.959,4.959,4.959,4.959,4.959,4.959,4.959,4.959,4.959,4.959,4.959,4.959,4.959,4.959,4.959,4.959,4.959,4.959,4.959,4.959,4.959,4.959,4.959,4.959,4.959,4.959,4.959,4.959,4.9455,4.9104,4.8322,4.7741,4.7387,4.6675,4.6298,4.6298,4.6298,4.6785,4.7712,4.8255,4.9008,3.045,3.125,3.2215,3.3355,3.4438,3.5381,3.5968,3.6243,3.6556,3.7097,3.7487,3.7519,3.6821,3.721,3.8218,4.0051,3.9941,4.0016,4.1224,4.0476,3.9465,3.86,3.7197,3.6844,3.8227,3.7978,3.7982,3.8558,3.8055,3.7216,3.605,3.5999,3.6651,3.8122,3.8419,3.8985,3.985,4.0228,4.1637,4.4088,4.4088,4.6019,4.959,4.959,4.959,4.959,4.959,4.959,4.959,4.959,4.959,4.959,4.959,4.959,4.959,4.959,4.959,4.959,4.959,4.959,4.959,4.959,4.959,4.959,4.959,4.959,4.959,4.959,4.959,4.959,4.959,4.959,4.959,4.959,4.959,4.959,4.959,4.959,4.959,4.959,4.959,4.959,4.959,4.959,4.959,4.959,4.959,4.959,4.959,4.959,4.959,4.959,4.959,4.959,4.959,4.959,4.959,4.959,4.959,4.9367,4.8831,4.8222,4.7654,4.7111,4.6574,4.6298,4.6298,4.6298,4.68,4.7771,4.827,4.9294,0.0,0.0,0.0,3.2788,3.3884,3.4828,3.537,3.5956,3.6531,3.7072,3.7186,3.7072,3.6685,3.577,3.5399,3.6383,3.713,3.7748,3.8134,3.8182,3.7783,3.6644,3.5413,3.5506,3.7619,3.672,3.6688,3.8393,3.6958,3.5999,3.5999,3.5999,3.6399,3.7266,3.7295,3.7733,3.8583,3.8592,4.0407,4.403,4.407,4.6003,4.9525,4.9574,4.959,4.959,4.959,4.959,4.959,4.959,4.959,4.959,4.959,4.959,4.959,4.959,4.959,4.959,4.959,4.959,4.959,4.959,4.959,4.959,4.959,4.959,4.959,4.959,4.959,4.959,4.959,4.959,4.959,4.959,4.959,4.959,4.959,4.959,4.959,4.959,4.959,4.959,4.959,4.959,4.959,4.959,4.959,4.959,4.959,4.959,4.959,4.959,4.959,4.959,4.959,4.959,4.959,4.959,4.9594,4.9342,4.8806,4.8196,4.7629,4.7086,4.6574,4.6298,4.6298,4.6298,4.6328,4.6391,4.7829,4.9294,2.998,0.0,0.0,0.0,0.0,0.0,3.5282,3.5632,3.5919,3.6494,3.6934,3.6641,3.4793,3.4537,3.4226,3.312,3.5563,3.7639,3.7744,3.8014,3.7783,3.6644,3.5183,3.4753,3.5981,3.5763,3.5886,3.6661,3.6278,3.5999,3.5999,3.5999,3.6399,3.7266,3.7295,3.7733,3.8583,3.8592,3.9764,4.209,4.345,4.5333,4.7625,4.8986,4.959,4.959,4.959,4.959,4.959,4.959,4.959,4.959,4.959,4.959,4.959,4.959,4.959,4.959,4.959,4.959,4.959,4.959,4.959,4.959,4.959,4.959,4.959,4.959,4.959,4.959,4.959,4.959,4.959,4.959,4.959,4.959,4.959,4.959,4.959,4.959,4.959,4.959,4.959,4.959,4.959,4.959,4.959,4.959,4.959,4.959,4.959,4.959,4.959,4.959,4.959,4.959,4.959,4.959,4.9229,4.8765,4.8171,4.7616,4.7076,4.6537,4.6373,4.6298,4.6298,4.6298,4.6859,4.7889,4.8313,4.9294,2.9801,3.0419,3.1198,3.1738,0.0,0.0,3.4917,3.5332,3.567,3.6281,3.6657,3.6149,3.3783,3.3729,3.3372,3.1295,3.4336,3.666,3.5725,3.6914,3.719,3.5421,3.4543,3.431,3.4811,3.5192,3.5498,3.5725,3.5911,3.5999,3.5999,3.5999,3.6399,3.7266,3.7295,3.7733,3.8583,3.8592,3.9504,4.1308,4.3207,4.505,4.686,4.8734,4.959,4.959,4.959,4.959,4.959,4.959,4.959,4.959,4.959,4.959,4.959,4.959,4.959,4.959,4.959,4.959,4.959,4.959,4.959,4.959,4.959,4.959,4.959,4.959,4.959,4.959,4.959,4.959,4.959,4.959,4.9443,4.9267,4.9267,4.9079,4.8962,4.9217,4.9455,4.9543,4.9305,4.9455,4.959,4.959,4.959,4.959,4.959,4.959,4.959,4.959,4.959,4.959,4.959,4.959,4.959,4.959,4.9091,4.8526,4.7917,4.7375,4.6863,4.6311,4.6298,4.6298,4.6298,4.6298,4.674,4.7578,4.7578,4.8037,2.9826,3.0244,3.0799,3.1273,3.2261,0.0,3.4388,3.503,3.5535,3.5991,3.613,3.5478,3.321,3.3076,3.2609,3.0478,3.3251,3.5042,3.3158,3.5506,3.644,3.3877,3.3842,3.4039,3.4079,3.4802,3.531,3.5391,3.5764,3.5999,3.5999,3.5999,3.6399,3.7266,3.7295,3.7733,3.8583,3.8592,3.9405,4.1017,4.3103,4.4931,4.6565,4.8653,4.959,4.959,4.959,4.959,4.959,4.959,4.959,4.959,4.959,4.959,4.959,4.959,4.959,4.959,4.959,4.959,4.959,4.959,4.959,4.959,4.959,4.959,4.959,4.959,4.959,4.959,4.959,4.9568,4.9502,4.9502,4.9104,4.8705,4.8705,4.8287,4.8046,4.8513,4.9041,4.9251,4.8777,4.9154,4.9502,4.9502,4.9552,4.959,4.959,4.959,4.959,4.959,4.959,4.959,4.959,4.959,4.9565,4.9502,4.9003,4.8438,4.7829,4.7302,4.6785,4.6311,4.6298,4.6298,4.6298,4.6298,4.6298,4.6298,4.6298,4.6391,2.9917,3.0505,3.1271,3.1371,3.2261,0.0,3.3909,3.4476,3.4719,3.4184,3.4451,3.4085,3.181,3.1445,3.1116,2.9916,3.162,3.3216,3.3499,3.5771,3.6736,3.4903,3.4013,3.3682,3.4049,3.4245,3.4635,3.5342,3.5764,3.5999,3.5999,3.5999,3.6399,3.7266,3.7295,3.7733,3.8583,3.8592,3.8783,3.9162,4.2504,4.4276,4.4738,4.8072,4.959,4.959,4.959,4.959,4.959,4.959,4.959,4.959,4.959,4.959,4.959,4.959,4.959,4.959,4.959,4.959,4.959,4.959,4.959,4.959,4.959,4.959,4.959,4.959,4.959,4.959,4.959,4.928,4.8953,4.8953,4.8513,4.8083,4.8083,4.7983,4.7804,4.749,4.7854,4.8209,4.8096,4.8564,4.8953,4.8953,4.9317,4.959,4.959,4.959,4.959,4.959,4.959,4.959,4.959,4.959,4.9418,4.8978,4.8397,4.7829,4.7274,4.6737,4.6411,4.6298,4.6298,4.6298,4.6298,4.6298,4.6298,4.6298,4.6298,4.6936,3.0733,3.0994,3.1459,3.1738,3.2227,0.0,0.0,3.4313,3.4464,3.3672,3.3981,3.362,3.1108,3.085,3.0624,2.9433,3.0849,3.2321,3.2962,3.4493,3.5338,3.4777,3.3753,3.3193,3.3434,3.3834,3.446,3.5322,3.5586,3.5784,3.5989,3.5999,3.6318,3.698,3.7205,3.7607,3.8242,3.8485,3.8592,3.8647,4.2329,4.4088,4.4225,4.7924,4.959,4.959,4.959,4.959,4.959,4.959,4.959,4.959,4.959,4.959,4.959,4.959,4.959,4.959,4.959,4.959,4.959,4.959,4.959,4.959,4.959,4.959,4.959,4.959,4.959,4.9543,4.9267,4.8991,4.8714,4.8426,4.792,4.7503,4.7503,4.729,4.7014,4.6763,4.6926,4.7189,4.7453,4.797,4.835,4.835,4.884,4.9204,4.9204,4.9443,4.959,4.959,4.959,4.959,4.959,4.959,4.9367,4.8831,4.8222,4.7654,4.7124,4.6572,4.6298,4.6298,4.6298,4.6298,4.6298,4.6298,4.6298,4.6328,4.7042,4.7785,3.1725,3.1647,3.1798,3.2116,3.2292,3.2553,0.0,0.0,0.0,3.2828,3.3146,3.2843,3.0369,3.0222,3.0046,2.8749,3.0062,3.1396,3.1856,3.2482,3.3256,3.4158,3.3573,3.3025,3.2814,3.358,3.4391,3.5104,3.531,3.5537,3.5862,3.5959,3.6221,3.6695,3.7098,3.75,3.7902,3.8377,3.8592,3.8647,4.2329,4.4088,4.4225,4.7924,4.959,4.959,4.959,4.959,4.959,4.959,4.959,4.959,4.959,4.959,4.959,4.959,4.959,4.959,4.959,4.959,4.959,4.959,4.959,4.959,4.959,4.959,4.959,4.959,4.9543,4.9355,4.8919,4.8626,4.835,4.7854,4.734,4.6948,4.6948,4.6612,4.6298,4.6298,4.6298,4.6436,4.686,4.739,4.7741,4.7741,4.8247,4.868,4.8793,4.9179,4.9493,4.959,4.959,4.959,4.959,4.959,4.933,4.8664,4.8171,4.7603,4.6973,4.6537,4.6298,4.6298,4.6298,4.6298,4.6298,4.6298,4.6298,4.6328,4.7519,4.8226,3.2392,3.2501,3.279,3.2317,3.2604,3.2735,3.1738,0.0,3.2242,2.9836,0.0,3.0305,2.8804,0.0,0.0,2.7366,2.8346,2.945,3.0089,3.0116,3.099,3.3474,3.4037,3.3833,3.2883,3.358,3.4143,3.4235,3.4968,3.542,3.5459,3.582,3.6221,3.6695,3.7098,3.75,3.7902,3.8377,3.8592,3.8647,4.2329,4.4088,4.4225,4.7924,4.959,4.959,4.959,4.959,4.959,4.959,4.959,4.959,4.959,4.959,4.959,4.959,4.959,4.959,4.959,4.959,4.959,4.959,4.959,4.959,4.959,4.959,4.959,4.959,4.9254,4.8881,4.8818,4.8046,4.7274,4.7212,4.6772,4.6386,4.6386,4.6336,4.6298,4.6298,4.6298,4.6311,4.6373,4.6838,4.7186,4.7186,4.7654,4.8196,4.873,4.884,4.9066,4.954,4.959,4.959,4.959,4.959,4.9138,4.8071,4.7945,4.7456,4.6424,4.6323,4.6298,4.6298,4.6298,4.6298,4.6298,4.6298,4.6298,4.6298,4.6466,4.7252,3.3862,3.3268,3.2806,3.2552,3.2097,3.1576,3.102,3.1488,3.1471,2.9594,0.0,0.0,0.0,0.0,0.0,0.0,2.819,2.8721,2.9259,2.9971,3.1083,3.2745,3.2602,3.248,3.2767,3.3131,3.3551,3.4049,3.4665,3.5107,3.5381,3.5774,3.6086,3.6289,3.6726,3.7139,3.7559,3.7978,3.833,3.8629,4.1241,4.3051,4.4191,4.6801,4.8559,4.959,4.959,4.959,4.959,4.959,4.959,4.959,4.959,4.959,4.959,4.959,4.959,4.959,4.959,4.959,4.959,4.959,4.959,4.959,4.959,4.959,4.959,4.959,4.9217,4.873,4.8375,4.7691,4.7023,4.6712,4.6461,4.6298,4.6298,4.6298,4.6298,4.6298,4.6298,4.6298,4.6298,4.6486,4.6637,4.6637,4.7086,4.7528,4.7779,4.8083,4.8501,4.9066,4.9129,4.9267,4.9565,4.9317,4.879,4.7958,4.7315,4.6763,4.6311,4.6298,4.6298,4.6298,4.6298,4.6298,4.6298,4.6298,4.6298,4.6328,4.7176,4.7904,3.3969,3.3112,3.2346,3.2194,3.1425,3.061,3.0259,3.0571,3.0573,2.9277,2.9394,0.0,0.0,0.0,2.8213,2.7978,0.0,2.832,2.8375,2.9504,3.0669,3.1526,3.1197,3.1314,3.2344,3.2656,3.3062,3.3697,3.4245,3.4726,3.5176,3.5615,3.5881,3.5999,3.6462,3.6892,3.7295,3.7697,3.8144,3.8629,4.0433,4.2283,4.4156,4.5979,4.7822,4.959,4.959,4.959,4.959,4.959,4.959,4.959,4.959,4.959,4.959,4.959,4.959,4.959,4.959,4.959,4.959,4.959,4.959,4.959,4.959,4.959,4.9565,4.943,4.8978,4.8426,4.7829,4.729,4.6772,4.6386,4.6298,4.6298,4.6298,4.6298,4.6298,4.6298,4.6298,4.6298,4.6298,4.6298,4.6298,4.6298,4.6637,4.6936,4.7086,4.744,4.7908,4.8488,4.8551,4.8714,4.91,4.879,4.8297,4.7716,4.6813,4.6298,4.6298,4.6298,4.6298,4.6298,4.6298,4.6298,4.6298,4.6298,4.6298,4.6328,4.74,4.7889,3.1752,3.1568,3.1408,3.089,3.0731,3.0381,2.9132,2.9237,2.9226,2.8011,2.8077,2.8358,2.8304,2.8304,2.8018,0.0,2.7754,0.0,0.0,2.7832,2.8704,2.9594,3.0404,3.1064,3.1499,3.2305,3.2803,3.2832,3.3639,3.4293,3.4697,3.5166,3.5596,3.5989,3.6462,3.6892,3.7295,3.7697,3.8144,3.8629,4.0433,4.2283,4.4156,4.5979,4.7822,4.959,4.959,4.959,4.959,4.959,4.959,4.959,4.959,4.959,4.959,4.959,4.959,4.959,4.959,4.959,4.959,4.959,4.959,4.959,4.959,4.959,4.9493,4.8981,4.84,4.7792,4.7262,4.6737,4.6323,4.6298,4.6298,4.6298,4.6298,4.6298,4.6298,4.6298,4.6298,4.6298,4.6298,4.6298,4.6298,4.6298,4.6311,4.6512,4.7036,4.7124,4.7324,4.7867,4.7933,4.7945,4.7958,4.7945,4.7691,4.7161,4.6612,4.6298,4.6298,4.6298,4.6298,4.6298,4.6298,4.6298,4.6298,4.6298,4.6298,4.6298,4.6346,4.6361,0.0,0.0,3.1133,3.0946,2.9996,2.9002,2.8568,2.8597,2.8588,2.8182,2.8207,2.8304,2.8304,2.8304,2.8203,2.791,0.0,2.8193,0.0,2.8115,2.8506,2.9072,2.9672,3.0317,3.1035,3.1611,3.2187,3.2754,3.361,3.4274,3.4678,3.5153,3.5586,3.5989,3.6145,3.6582,3.7295,3.7441,3.7871,3.8611,3.9216,4.1116,4.4122,4.4727,4.6701,4.959,4.959,4.959,4.959,4.959,4.959,4.959,4.959,4.959,4.959,4.959,4.959,4.959,4.959,4.959,4.959,4.959,4.959,4.959,4.959,4.9355,4.9028,4.8856,4.8109,4.7324,4.7149,4.6712,4.6298,4.6298,4.6298,4.6298,4.6298,4.6298,4.6298,4.6298,4.6298,4.6298,4.6298,4.6298,4.6298,4.6298,4.6298,4.6361,4.6549,4.6574,4.6788,4.7312,4.7378,4.75,4.7867,4.7578,4.7136,4.6612,4.6399,4.6298,4.6298,4.6298,4.6298,4.6298,4.6298,4.6298,4.6298,4.6298,4.6298,4.6298,4.6298,4.6298,3.2182,3.1361,0.0,3.0502,2.9633,0.0,2.8764,2.8764,2.8764,2.8764,2.8636,2.8516,2.8516,2.8398,2.8304,2.8304,0.0,0.0,0.0,2.8304,2.8398,2.8662,2.9072,2.9687,3.0581,3.1035,3.165,3.2525,3.3238,3.3883,3.4469,3.4902,3.5342,3.5764,3.592,3.634,3.7088,3.7226,3.7646,3.834,3.8514,4.0185,4.3138,4.3795,4.575,4.8636,4.9319,4.959,4.959,4.959,4.959,4.959,4.959,4.959,4.959,4.959,4.959,4.959,4.959,4.959,4.959,4.959,4.959,4.959,4.959,4.9229,4.8806,4.8806,4.7983,4.7099,4.7099,4.6712,4.6298,4.6298,4.6298,4.6298,4.6298,4.6298,4.6298,4.6298,4.6298,4.6298,4.6298,4.6298,4.6298,4.6298,4.6298,4.6298,4.6298,4.6298,4.6436,4.6772,4.6825,4.6963,4.729,4.7014,4.6675,4.6323,4.6298,4.6298,4.6298,4.6298,4.621,4.6024,4.6198,4.6213,4.6012,4.6213,4.6298,4.6298,4.6298,4.6298]}]]